Wetterdaten: Montag, 18.04.2016
Datum Zeit Temp. A. Feuchte A. Luftdruck Regen Wind Richtung Richtung Sonnenschein ET UV Solar Taupunkt Windchill Windben Empfang
18.04.2016 00:00 9,5 C 95 % 1014,1 hPa 0,0 l/m 7,2 km/h (2 Bft) W 273 0 min 0,000 mm 0,0 UV-I 0 W/m 8,7 C 8,9 C 11,3 km/h (2 Bft) 100,00 %
18.04.2016 00:02 9,4 C 95 % 1014,0 hPa 0,0 l/m 5,6 km/h (1 Bft) W 269 0 min 0,000 mm 0,0 UV-I 0 W/m 8,6 C 9,4 C 11,3 km/h (2 Bft) 97,44 %
18.04.2016 00:03 9,4 C 95 % 1014,0 hPa 0,0 l/m 4,2 km/h (1 Bft) W 267 0 min 0,000 mm 0,0 UV-I 0 W/m 8,6 C 9,4 C 4,8 km/h (1 Bft) 96,15 %
18.04.2016 00:04 9,4 C 95 % 1014,1 hPa 0,0 l/m 4,8 km/h (1 Bft) W 273 0 min 0,000 mm 0,0 UV-I 0 W/m 8,6 C 9,4 C 8,0 km/h (2 Bft) 100,00 %
18.04.2016 00:05 9,4 C 95 % 1014,1 hPa 0,0 l/m 5,8 km/h (2 Bft) W-NW 294 0 min 0,000 mm 0,0 UV-I 0 W/m 8,6 C 9,4 C 11,3 km/h (2 Bft) 100,00 %
18.04.2016 00:06 9,4 C 95 % 1014,1 hPa 0,2 l/m 6,9 km/h (2 Bft) W 271 0 min 0,000 mm 0,0 UV-I 0 W/m 8,6 C 9,0 C 11,3 km/h (2 Bft) 100,00 %
18.04.2016 00:07 9,4 C 95 % 1014,1 hPa 0,0 l/m 6,2 km/h (2 Bft) W-SW 241 0 min 0,000 mm 0,0 UV-I 0 W/m 8,6 C 9,4 C 8,0 km/h (2 Bft) 96,55 %
18.04.2016 00:08 9,4 C 95 % 1014,1 hPa 0,0 l/m 8,3 km/h (2 Bft) W-SW 257 0 min 0,000 mm 0,0 UV-I 0 W/m 8,6 C 8,0 C 17,7 km/h (3 Bft) 100,00 %
18.04.2016 00:09 9,4 C 95 % 1014,1 hPa 0,0 l/m 14,0 km/h (3 Bft) W-SW 250 0 min 0,000 mm 0,0 UV-I 0 W/m 8,6 C 4,9 C 19,3 km/h (3 Bft) 100,00 %
18.04.2016 00:10 9,3 C 95 % 1014,1 hPa 0,0 l/m 10,0 km/h (2 Bft) W 267 0 min 0,000 mm 0,0 UV-I 0 W/m 8,5 C 6,8 C 14,5 km/h (3 Bft) 100,00 %
18.04.2016 00:11 9,3 C 95 % 1014,2 hPa 0,0 l/m 7,4 km/h (2 Bft) W 259 0 min 0,000 mm 0,0 UV-I 0 W/m 8,5 C 8,6 C 11,3 km/h (2 Bft) 100,00 %
18.04.2016 00:12 9,3 C 95 % 1014,2 hPa 0,0 l/m 8,0 km/h (2 Bft) W 274 0 min 0,000 mm 0,0 UV-I 0 W/m 8,5 C 8,1 C 12,9 km/h (3 Bft) 100,00 %
18.04.2016 00:13 9,3 C 95 % 1014,2 hPa 0,0 l/m 9,2 km/h (2 Bft) W 281 0 min 0,000 mm 0,0 UV-I 0 W/m 8,5 C 7,3 C 12,9 km/h (3 Bft) 100,00 %
18.04.2016 00:14 9,2 C 95 % 1014,2 hPa 0,0 l/m 10,5 km/h (2 Bft) W 263 0 min 0,000 mm 0,0 UV-I 0 W/m 8,4 C 6,4 C 14,5 km/h (3 Bft) 100,00 %
18.04.2016 00:15 9,2 C 95 % 1014,2 hPa 0,0 l/m 11,3 km/h (2 Bft) W 275 0 min 0,000 mm 0,0 UV-I 0 W/m 8,4 C 6,0 C 17,7 km/h (3 Bft) 100,00 %
18.04.2016 00:16 9,2 C 94 % 1014,2 hPa 0,0 l/m 8,4 km/h (2 Bft) W-NW 295 0 min 0,000 mm 0,0 UV-I 0 W/m 8,3 C 7,7 C 12,9 km/h (3 Bft) 95,83 %
18.04.2016 00:17 9,2 C 94 % 1014,2 hPa 0,0 l/m 7,8 km/h (2 Bft) W 279 0 min 0,000 mm 0,0 UV-I 0 W/m 8,3 C 8,2 C 14,5 km/h (3 Bft) 96,15 %
18.04.2016 00:18 9,1 C 94 % 1014,2 hPa 0,0 l/m 7,4 km/h (2 Bft) W 264 0 min 0,000 mm 0,0 UV-I 0 W/m 8,2 C 8,3 C 14,5 km/h (3 Bft) 100,00 %
18.04.2016 00:19 9,1 C 94 % 1014,3 hPa 0,0 l/m 7,3 km/h (2 Bft) W 266 0 min 0,000 mm 0,0 UV-I 0 W/m 8,2 C 8,4 C 9,7 km/h (2 Bft) 100,00 %
18.04.2016 00:20 9,1 C 94 % 1014,3 hPa 0,0 l/m 4,4 km/h (1 Bft) W 271 0 min 0,000 mm 0,0 UV-I 0 W/m 8,2 C 9,1 C 6,4 km/h (2 Bft) 96,55 %
18.04.2016 00:21 9,1 C 94 % 1014,3 hPa 0,0 l/m 3,3 km/h (1 Bft) W 275 0 min 0,000 mm 0,0 UV-I 0 W/m 8,2 C 9,1 C 4,8 km/h (1 Bft) 98,71 %
18.04.2016 00:22 9,1 C 94 % 1014,3 hPa 0,0 l/m 2,7 km/h (1 Bft) W 275 0 min 0,000 mm 0,0 UV-I 0 W/m 8,2 C 9,1 C 4,8 km/h (1 Bft) 96,00 %
18.04.2016 00:23 9,1 C 94 % 1014,3 hPa 0,0 l/m 3,5 km/h (1 Bft) W-SW 255 0 min 0,000 mm 0,0 UV-I 0 W/m 8,2 C 9,1 C 6,4 km/h (2 Bft) 100,00 %
18.04.2016 00:24 9,1 C 94 % 1014,3 hPa 0,0 l/m 3,9 km/h (1 Bft) W-SW 253 0 min 0,000 mm 0,0 UV-I 0 W/m 8,2 C 9,1 C 6,4 km/h (2 Bft) 88,46 %
18.04.2016 00:25 9,0 C 94 % 1014,3 hPa 0,0 l/m 6,9 km/h (2 Bft) W 270 0 min 0,000 mm 0,0 UV-I 0 W/m 8,1 C 8,6 C 9,7 km/h (2 Bft) 100,00 %
18.04.2016 00:26 9,0 C 95 % 1014,4 hPa 0,0 l/m 5,3 km/h (1 Bft) W-SW 254 0 min 0,000 mm 0,0 UV-I 0 W/m 8,2 C 9,0 C 9,7 km/h (2 Bft) 94,12 %
18.04.2016 00:27 9,0 C 95 % 1014,4 hPa 0,0 l/m 5,8 km/h (2 Bft) W 273 0 min 0,000 mm 0,0 UV-I 0 W/m 8,2 C 9,0 C 11,3 km/h (2 Bft) 95,83 %
18.04.2016 00:28 8,9 C 95 % 1014,4 hPa 0,0 l/m 11,3 km/h (2 Bft) W 272 0 min 0,000 mm 0,0 UV-I 0 W/m 8,1 C 5,6 C 12,9 km/h (3 Bft) 96,55 %
18.04.2016 00:29 8,9 C 95 % 1014,4 hPa 0,0 l/m 5,2 km/h (1 Bft) W-SW 257 0 min 0,000 mm 0,0 UV-I 0 W/m 8,1 C 8,9 C 9,7 km/h (2 Bft) 100,00 %
18.04.2016 00:30 8,9 C 95 % 1014,4 hPa 0,0 l/m 8,0 km/h (2 Bft) W 269 0 min 0,000 mm 0,0 UV-I 0 W/m 8,1 C 7,7 C 11,3 km/h (2 Bft) 93,33 %
18.04.2016 00:31 8,9 C 95 % 1014,4 hPa 0,0 l/m 5,9 km/h (2 Bft) W 267 0 min 0,000 mm 0,0 UV-I 0 W/m 8,1 C 8,9 C 9,7 km/h (2 Bft) 100,00 %
18.04.2016 00:32 8,9 C 95 % 1014,4 hPa 0,0 l/m 3,3 km/h (1 Bft) W-NW 296 0 min 0,000 mm 0,0 UV-I 0 W/m 8,1 C 8,9 C 8,0 km/h (2 Bft) 96,55 %
18.04.2016 00:33 8,9 C 95 % 1014,3 hPa 0,0 l/m 5,5 km/h (1 Bft) W-NW 288 0 min 0,000 mm 0,0 UV-I 0 W/m 8,1 C 8,9 C 9,7 km/h (2 Bft) 100,00 %
18.04.2016 00:34 8,9 C 95 % 1014,3 hPa 0,2 l/m 7,9 km/h (2 Bft) W 259 0 min 0,000 mm 0,0 UV-I 0 W/m 8,1 C 7,8 C 14,5 km/h (3 Bft) 95,65 %
18.04.2016 00:35 8,9 C 95 % 1014,3 hPa 0,0 l/m 5,9 km/h (2 Bft) W-NW 294 0 min 0,000 mm 0,0 UV-I 0 W/m 8,1 C 8,9 C 11,3 km/h (2 Bft) 96,30 %
18.04.2016 00:36 8,9 C 95 % 1014,4 hPa 0,0 l/m 8,4 km/h (2 Bft) W 274 0 min 0,000 mm 0,0 UV-I 0 W/m 8,1 C 7,4 C 11,3 km/h (2 Bft) 100,00 %
18.04.2016 00:37 8,8 C 95 % 1014,4 hPa 0,0 l/m 7,9 km/h (2 Bft) W-NW 301 0 min 0,000 mm 0,0 UV-I 0 W/m 8,0 C 7,7 C 11,3 km/h (2 Bft) 86,67 %
18.04.2016 00:38 8,8 C 95 % 1014,4 hPa 0,0 l/m 7,2 km/h (2 Bft) W 261 0 min 0,000 mm 0,0 UV-I 0 W/m 8,0 C 8,2 C 11,3 km/h (2 Bft) 100,00 %
18.04.2016 00:39 8,8 C 95 % 1014,4 hPa 0,0 l/m 7,0 km/h (2 Bft) W 259 0 min 0,000 mm 0,0 UV-I 0 W/m 8,0 C 8,3 C 11,3 km/h (2 Bft) 90,91 %
18.04.2016 00:40 8,8 C 95 % 1014,4 hPa 0,0 l/m 4,6 km/h (1 Bft) W 265 0 min 0,000 mm 0,0 UV-I 0 W/m 8,0 C 8,8 C 6,4 km/h (2 Bft) 95,12 %
18.04.2016 00:41 8,8 C 95 % 1014,4 hPa 0,0 l/m 5,0 km/h (1 Bft) W 277 0 min 0,000 mm 0,0 UV-I 0 W/m 8,0 C 8,8 C 6,4 km/h (2 Bft) 100,00 %
18.04.2016 00:42 8,8 C 95 % 1014,4 hPa 0,0 l/m 5,7 km/h (1 Bft) W-SW 252 0 min 0,000 mm 0,0 UV-I 0 W/m 8,0 C 8,8 C 9,7 km/h (2 Bft) 95,83 %
18.04.2016 00:43 8,8 C 95 % 1014,4 hPa 0,0 l/m 7,0 km/h (2 Bft) W-SW 256 0 min 0,000 mm 0,0 UV-I 0 W/m 8,0 C 8,3 C 12,9 km/h (3 Bft) 100,00 %
18.04.2016 00:44 8,8 C 95 % 1014,4 hPa 0,0 l/m 4,6 km/h (1 Bft) W-SW 248 0 min 0,000 mm 0,0 UV-I 0 W/m 8,0 C 8,8 C 6,4 km/h (2 Bft) 93,33 %
18.04.2016 00:45 8,8 C 95 % 1014,4 hPa 0,0 l/m 5,9 km/h (2 Bft) W 263 0 min 0,000 mm 0,0 UV-I 0 W/m 8,0 C 8,8 C 9,7 km/h (2 Bft) 100,00 %
18.04.2016 00:46 8,8 C 95 % 1014,4 hPa 0,0 l/m 8,0 km/h (2 Bft) W 269 0 min 0,000 mm 0,0 UV-I 0 W/m 8,0 C 7,6 C 11,3 km/h (2 Bft) 96,30 %
18.04.2016 00:47 8,8 C 95 % 1014,5 hPa 0,0 l/m 5,3 km/h (1 Bft) W 275 0 min 0,000 mm 0,0 UV-I 0 W/m 8,0 C 8,8 C 9,7 km/h (2 Bft) 100,00 %
18.04.2016 00:48 8,8 C 95 % 1014,5 hPa 0,0 l/m 9,4 km/h (2 Bft) W-SW 251 0 min 0,000 mm 0,0 UV-I 0 W/m 8,0 C 6,6 C 16,1 km/h (3 Bft) 97,06 %
18.04.2016 00:49 8,8 C 95 % 1014,4 hPa 0,0 l/m 9,2 km/h (2 Bft) W-NW 283 0 min 0,000 mm 0,0 UV-I 0 W/m 8,0 C 6,8 C 12,9 km/h (3 Bft) 95,65 %
18.04.2016 00:50 8,8 C 95 % 1014,4 hPa 0,0 l/m 8,0 km/h (2 Bft) W-NW 282 0 min 0,000 mm 0,0 UV-I 0 W/m 8,0 C 7,6 C 11,3 km/h (2 Bft) 100,00 %
18.04.2016 00:51 8,8 C 95 % 1014,4 hPa 0,0 l/m 5,3 km/h (1 Bft) W 274 0 min 0,000 mm 0,0 UV-I 0 W/m 8,0 C 8,8 C 6,4 km/h (2 Bft) 95,65 %
18.04.2016 00:52 8,8 C 95 % 1014,5 hPa 0,0 l/m 11,0 km/h (2 Bft) W 259 0 min 0,000 mm 0,0 UV-I 0 W/m 8,0 C 5,7 C 16,1 km/h (3 Bft) 100,00 %
18.04.2016 00:53 8,8 C 95 % 1014,5 hPa 0,0 l/m 7,3 km/h (2 Bft) W-SW 250 0 min 0,000 mm 0,0 UV-I 0 W/m 8,0 C 8,1 C 11,3 km/h (2 Bft) 96,55 %
18.04.2016 00:54 8,8 C 95 % 1014,5 hPa 0,0 l/m 9,2 km/h (2 Bft) W-SW 237 0 min 0,000 mm 0,0 UV-I 0 W/m 8,0 C 6,8 C 17,7 km/h (3 Bft) 96,30 %
18.04.2016 00:55 8,8 C 95 % 1014,6 hPa 0,0 l/m 8,4 km/h (2 Bft) W 261 0 min 0,000 mm 0,0 UV-I 0 W/m 8,0 C 7,3 C 12,9 km/h (3 Bft) 95,65 %
18.04.2016 00:56 8,7 C 95 % 1014,6 hPa 0,0 l/m 4,8 km/h (1 Bft) W 273 0 min 0,000 mm 0,0 UV-I 0 W/m 7,9 C 8,7 C 8,0 km/h (2 Bft) 100,00 %
18.04.2016 00:57 8,7 C 95 % 1014,7 hPa 0,0 l/m 7,0 km/h (2 Bft) W 259 0 min 0,000 mm 0,0 UV-I 0 W/m 7,9 C 8,2 C 9,7 km/h (2 Bft) 100,00 %
18.04.2016 00:58 8,7 C 95 % 1014,7 hPa 0,0 l/m 8,3 km/h (2 Bft) W 265 0 min 0,000 mm 0,0 UV-I 0 W/m 7,9 C 7,3 C 11,3 km/h (2 Bft) 100,00 %
18.04.2016 00:59 8,7 C 95 % 1014,7 hPa 0,0 l/m 6,9 km/h (2 Bft) W-SW 251 0 min 0,000 mm 0,0 UV-I 0 W/m 7,9 C 8,3 C 11,3 km/h (2 Bft) 100,00 %
18.04.2016 01:00 8,7 C 95 % 1014,7 hPa 0,0 l/m 5,5 km/h (1 Bft) W-SW 258 0 min 0,000 mm 0,0 UV-I 0 W/m 7,9 C 8,7 C 6,4 km/h (2 Bft) 100,00 %
18.04.2016 01:01 8,7 C 95 % 1014,7 hPa 0,0 l/m 4,3 km/h (1 Bft) W-SW 250 0 min 0,000 mm 0,0 UV-I 0 W/m 7,9 C 8,7 C 6,4 km/h (2 Bft) 100,00 %
18.04.2016 01:02 8,7 C 95 % 1014,7 hPa 0,0 l/m 9,5 km/h (2 Bft) W-SW 244 0 min 0,000 mm 0,0 UV-I 0 W/m 7,9 C 6,5 C 14,5 km/h (3 Bft) 95,65 %
18.04.2016 01:03 8,7 C 95 % 1014,7 hPa 0,0 l/m 6,0 km/h (2 Bft) W-SW 248 0 min 0,000 mm 0,0 UV-I 0 W/m 7,9 C 8,7 C 11,3 km/h (2 Bft) 100,00 %
18.04.2016 01:04 8,7 C 95 % 1014,8 hPa 0,0 l/m 5,6 km/h (1 Bft) W-SW 244 0 min 0,000 mm 0,0 UV-I 0 W/m 7,9 C 8,7 C 11,3 km/h (2 Bft) 100,00 %
18.04.2016 01:05 8,7 C 95 % 1014,8 hPa 0,0 l/m 7,8 km/h (2 Bft) W-NW 292 0 min 0,000 mm 0,0 UV-I 0 W/m 7,9 C 7,6 C 11,3 km/h (2 Bft) 100,00 %
18.04.2016 01:06 8,7 C 95 % 1014,7 hPa 0,0 l/m 2,6 km/h (1 Bft) W-NW 288 0 min 0,000 mm 0,0 UV-I 0 W/m 7,9 C 8,7 C 4,8 km/h (1 Bft) 100,00 %
18.04.2016 01:07 8,7 C 95 % 1014,7 hPa 0,0 l/m 3,7 km/h (1 Bft) W-NW 288 0 min 0,000 mm 0,0 UV-I 0 W/m 7,9 C 8,7 C 4,8 km/h (1 Bft) 96,30 %
18.04.2016 01:08 8,7 C 95 % 1014,7 hPa 0,0 l/m 4,0 km/h (1 Bft) W 278 0 min 0,000 mm 0,0 UV-I 0 W/m 7,9 C 8,7 C 6,4 km/h (2 Bft) 100,00 %
18.04.2016 01:09 8,7 C 95 % 1014,7 hPa 0,0 l/m 6,2 km/h (2 Bft) W 279 0 min 0,000 mm 0,0 UV-I 0 W/m 7,9 C 8,7 C 9,7 km/h (2 Bft) 100,00 %
18.04.2016 01:10 8,7 C 95 % 1014,7 hPa 0,0 l/m 5,1 km/h (1 Bft) W-NW 291 0 min 0,000 mm 0,0 UV-I 0 W/m 7,9 C 8,7 C 8,0 km/h (2 Bft) 100,00 %
18.04.2016 01:11 8,7 C 95 % 1014,7 hPa 0,0 l/m 3,6 km/h (1 Bft) W-NW 291 0 min 0,000 mm 0,0 UV-I 0 W/m 7,9 C 8,7 C 4,8 km/h (1 Bft) 100,00 %
18.04.2016 01:12 8,7 C 95 % 1014,7 hPa 0,0 l/m 5,4 km/h (1 Bft) W 279 0 min 0,000 mm 0,0 UV-I 0 W/m 7,9 C 8,7 C 9,7 km/h (2 Bft) 100,00 %
18.04.2016 01:13 8,7 C 95 % 1014,8 hPa 0,0 l/m 5,5 km/h (1 Bft) W 269 0 min 0,000 mm 0,0 UV-I 0 W/m 7,9 C 8,7 C 8,0 km/h (2 Bft) 100,00 %
18.04.2016 01:14 8,7 C 95 % 1014,8 hPa 0,0 l/m 5,5 km/h (1 Bft) W-SW 248 0 min 0,000 mm 0,0 UV-I 0 W/m 7,9 C 8,7 C 8,0 km/h (2 Bft) 100,00 %
18.04.2016 01:15 8,7 C 95 % 1014,8 hPa 0,0 l/m 5,9 km/h (2 Bft) W 275 0 min 0,000 mm 0,0 UV-I 0 W/m 7,9 C 8,7 C 9,7 km/h (2 Bft) 100,00 %
18.04.2016 01:16 8,7 C 95 % 1014,8 hPa 0,0 l/m 4,8 km/h (1 Bft) W 273 0 min 0,000 mm 0,0 UV-I 0 W/m 7,9 C 8,7 C 6,4 km/h (2 Bft) 100,00 %
18.04.2016 01:17 8,7 C 95 % 1014,8 hPa 0,0 l/m 4,9 km/h (1 Bft) W 276 0 min 0,000 mm 0,0 UV-I 0 W/m 7,9 C 8,7 C 6,4 km/h (2 Bft) 100,00 %
18.04.2016 01:18 8,7 C 95 % 1014,8 hPa 0,0 l/m 3,9 km/h (1 Bft) W-SW 255 0 min 0,000 mm 0,0 UV-I 0 W/m 7,9 C 8,7 C 6,4 km/h (2 Bft) 100,00 %
18.04.2016 01:19 8,7 C 96 % 1014,8 hPa 0,0 l/m 4,4 km/h (1 Bft) W 275 0 min 0,000 mm 0,0 UV-I 0 W/m 8,1 C 8,7 C 6,4 km/h (2 Bft) 100,00 %
18.04.2016 01:20 8,7 C 96 % 1014,8 hPa 0,0 l/m 4,4 km/h (1 Bft) W-NW 289 0 min 0,000 mm 0,0 UV-I 0 W/m 8,1 C 8,7 C 4,8 km/h (1 Bft) 100,00 %
18.04.2016 01:21 8,7 C 96 % 1014,8 hPa 0,0 l/m 5,0 km/h (1 Bft) W 262 0 min 0,000 mm 0,0 UV-I 0 W/m 8,1 C 8,7 C 9,7 km/h (2 Bft) 100,00 %
18.04.2016 01:22 8,7 C 96 % 1014,7 hPa 0,2 l/m 4,7 km/h (1 Bft) W 262 0 min 0,000 mm 0,0 UV-I 0 W/m 8,1 C 8,7 C 4,8 km/h (1 Bft) 100,00 %
18.04.2016 01:23 8,7 C 96 % 1014,8 hPa 0,0 l/m 3,9 km/h (1 Bft) W-SW 240 0 min 0,000 mm 0,0 UV-I 0 W/m 8,1 C 8,7 C 4,8 km/h (1 Bft) 100,00 %
18.04.2016 01:24 8,7 C 96 % 1014,8 hPa 0,0 l/m 5,4 km/h (1 Bft) W 261 0 min 0,000 mm 0,0 UV-I 0 W/m 8,1 C 8,7 C 8,0 km/h (2 Bft) 100,00 %
18.04.2016 01:25 8,7 C 96 % 1014,9 hPa 0,0 l/m 4,1 km/h (1 Bft) W 259 0 min 0,000 mm 0,0 UV-I 0 W/m 8,1 C 8,7 C 4,8 km/h (1 Bft) 95,65 %
18.04.2016 01:26 8,7 C 96 % 1014,9 hPa 0,0 l/m 4,0 km/h (1 Bft) W 269 0 min 0,000 mm 0,0 UV-I 0 W/m 8,1 C 8,7 C 6,4 km/h (2 Bft) 100,00 %
18.04.2016 01:27 8,7 C 96 % 1014,8 hPa 0,0 l/m 4,0 km/h (1 Bft) W 261 0 min 0,000 mm 0,0 UV-I 0 W/m 8,1 C 8,7 C 6,4 km/h (2 Bft) 100,00 %
18.04.2016 01:28 8,7 C 96 % 1014,8 hPa 0,0 l/m 2,4 km/h (1 Bft) W 281 0 min 0,000 mm 0,0 UV-I 0 W/m 8,1 C 8,7 C 6,4 km/h (2 Bft) 100,00 %
18.04.2016 01:29 8,7 C 96 % 1014,8 hPa 0,0 l/m 7,2 km/h (2 Bft) W-SW 258 0 min 0,000 mm 0,0 UV-I 0 W/m 8,1 C 8,1 C 9,7 km/h (2 Bft) 100,00 %
18.04.2016 01:30 8,7 C 96 % 1014,7 hPa 0,0 l/m 5,5 km/h (1 Bft) W-NW 290 0 min 0,000 mm 0,0 UV-I 0 W/m 8,1 C 8,7 C 9,7 km/h (2 Bft) 100,00 %
18.04.2016 01:31 8,7 C 96 % 1014,7 hPa 0,0 l/m 1,7 km/h (1 Bft) W-NW 290 0 min 0,000 mm 0,0 UV-I 0 W/m 8,1 C 8,7 C 3,2 km/h (1 Bft) 100,00 %
18.04.2016 01:32 8,7 C 96 % 1014,8 hPa 0,0 l/m 4,6 km/h (1 Bft) W 279 0 min 0,000 mm 0,0 UV-I 0 W/m 8,1 C 8,7 C 6,4 km/h (2 Bft) 100,00 %
18.04.2016 01:33 8,7 C 96 % 1014,8 hPa 0,0 l/m 3,6 km/h (1 Bft) W-SW 250 0 min 0,000 mm 0,0 UV-I 0 W/m 8,1 C 8,7 C 11,3 km/h (2 Bft) 100,00 %
18.04.2016 01:34 8,7 C 96 % 1014,8 hPa 0,0 l/m 5,5 km/h (1 Bft) W-SW 257 0 min 0,000 mm 0,0 UV-I 0 W/m 8,1 C 8,7 C 6,4 km/h (2 Bft) 100,00 %
18.04.2016 01:35 8,7 C 96 % 1014,8 hPa 0,0 l/m 3,0 km/h (1 Bft) W-SW 257 0 min 0,000 mm 0,0 UV-I 0 W/m 8,1 C 8,7 C 4,8 km/h (1 Bft) 100,00 %
18.04.2016 01:36 8,7 C 96 % 1014,8 hPa 0,0 l/m 3,5 km/h (1 Bft) W-SW 256 0 min 0,000 mm 0,0 UV-I 0 W/m 8,1 C 8,7 C 6,4 km/h (2 Bft) 100,00 %
18.04.2016 01:37 8,7 C 96 % 1014,8 hPa 0,0 l/m 3,7 km/h (1 Bft) W 280 0 min 0,000 mm 0,0 UV-I 0 W/m 8,1 C 8,7 C 4,8 km/h (1 Bft) 100,00 %
18.04.2016 01:38 8,7 C 96 % 1014,8 hPa 0,0 l/m 4,5 km/h (1 Bft) W 267 0 min 0,000 mm 0,0 UV-I 0 W/m 8,1 C 8,7 C 6,4 km/h (2 Bft) 100,00 %
18.04.2016 01:39 8,7 C 95 % 1014,8 hPa 0,0 l/m 4,6 km/h (1 Bft) W 270 0 min 0,000 mm 0,0 UV-I 0 W/m 7,9 C 8,7 C 6,4 km/h (2 Bft) 100,00 %
18.04.2016 01:40 8,7 C 95 % 1014,8 hPa 0,0 l/m 3,5 km/h (1 Bft) W 266 0 min 0,000 mm 0,0 UV-I 0 W/m 7,9 C 8,7 C 6,4 km/h (2 Bft) 100,00 %
18.04.2016 01:41 8,7 C 95 % 1014,9 hPa 0,0 l/m 6,3 km/h (2 Bft) W-SW 252 0 min 0,000 mm 0,0 UV-I 0 W/m 7,9 C 8,7 C 9,7 km/h (2 Bft) 100,00 %
18.04.2016 01:42 8,7 C 95 % 1015,0 hPa 0,0 l/m 4,7 km/h (1 Bft) W-SW 252 0 min 0,000 mm 0,0 UV-I 0 W/m 7,9 C 8,7 C 6,4 km/h (2 Bft) 96,15 %
18.04.2016 01:43 8,7 C 95 % 1015,0 hPa 0,0 l/m 3,2 km/h (1 Bft) W-SW 252 0 min 0,000 mm 0,0 UV-I 0 W/m 7,9 C 8,7 C 4,8 km/h (1 Bft) 100,00 %
18.04.2016 01:44 8,7 C 95 % 1015,0 hPa 0,0 l/m 2,6 km/h (1 Bft) W-SW 252 0 min 0,000 mm 0,0 UV-I 0 W/m 7,9 C 8,7 C 4,8 km/h (1 Bft) 100,00 %
18.04.2016 01:45 8,7 C 96 % 1015,0 hPa 0,0 l/m 4,8 km/h (1 Bft) W-SW 245 0 min 0,000 mm 0,0 UV-I 0 W/m 8,1 C 8,7 C 6,4 km/h (2 Bft) 100,00 %
18.04.2016 01:46 8,7 C 96 % 1015,0 hPa 0,0 l/m 4,1 km/h (1 Bft) W-SW 252 0 min 0,000 mm 0,0 UV-I 0 W/m 8,1 C 8,7 C 4,8 km/h (1 Bft) 92,86 %
18.04.2016 01:47 8,7 C 96 % 1015,0 hPa 0,0 l/m 3,6 km/h (1 Bft) W-SW 252 0 min 0,000 mm 0,0 UV-I 0 W/m 8,1 C 8,7 C 4,8 km/h (1 Bft) 100,00 %
18.04.2016 01:48 8,7 C 96 % 1015,0 hPa 0,0 l/m 4,2 km/h (1 Bft) SW 236 0 min 0,000 mm 0,0 UV-I 0 W/m 8,1 C 8,7 C 4,8 km/h (1 Bft) 100,00 %
18.04.2016 01:49 8,7 C 96 % 1015,0 hPa 0,0 l/m 6,4 km/h (2 Bft) W-SW 252 0 min 0,000 mm 0,0 UV-I 0 W/m 8,1 C 8,7 C 8,0 km/h (2 Bft) 100,00 %
18.04.2016 01:50 8,7 C 95 % 1015,0 hPa 0,0 l/m 5,2 km/h (1 Bft) W 260 0 min 0,000 mm 0,0 UV-I 0 W/m 7,9 C 8,7 C 9,7 km/h (2 Bft) 100,00 %
18.04.2016 01:51 8,7 C 95 % 1015,0 hPa 0,0 l/m 7,2 km/h (2 Bft) W-SW 257 0 min 0,000 mm 0,0 UV-I 0 W/m 7,9 C 8,1 C 11,3 km/h (2 Bft) 100,00 %
18.04.2016 01:52 8,7 C 95 % 1015,1 hPa 0,0 l/m 6,6 km/h (2 Bft) SW 226 0 min 0,000 mm 0,0 UV-I 0 W/m 7,9 C 8,6 C 8,0 km/h (2 Bft) 95,65 %
18.04.2016 01:53 8,7 C 95 % 1015,1 hPa 0,0 l/m 4,4 km/h (1 Bft) W-SW 248 0 min 0,000 mm 0,0 UV-I 0 W/m 7,9 C 8,7 C 6,4 km/h (2 Bft) 100,00 %
18.04.2016 01:54 8,7 C 95 % 1015,1 hPa 0,0 l/m 5,2 km/h (1 Bft) W 265 0 min 0,000 mm 0,0 UV-I 0 W/m 7,9 C 8,7 C 6,4 km/h (2 Bft) 100,00 %
18.04.2016 01:55 8,7 C 95 % 1015,1 hPa 0,0 l/m 3,9 km/h (1 Bft) W 266 0 min 0,000 mm 0,0 UV-I 0 W/m 7,9 C 8,7 C 6,4 km/h (2 Bft) 100,00 %
18.04.2016 01:56 8,7 C 95 % 1015,1 hPa 0,0 l/m 5,5 km/h (1 Bft) W-SW 250 0 min 0,000 mm 0,0 UV-I 0 W/m 7,9 C 8,7 C 9,7 km/h (2 Bft) 95,65 %
18.04.2016 01:57 8,7 C 95 % 1015,1 hPa 0,0 l/m 3,5 km/h (1 Bft) W-SW 247 0 min 0,000 mm 0,0 UV-I 0 W/m 7,9 C 8,7 C 4,8 km/h (1 Bft) 100,00 %
18.04.2016 01:58 8,7 C 95 % 1015,0 hPa 0,0 l/m 2,3 km/h (1 Bft) W-SW 257 0 min 0,000 mm 0,0 UV-I 0 W/m 7,9 C 8,7 C 6,4 km/h (2 Bft) 100,00 %
18.04.2016 01:59 8,7 C 96 % 1015,0 hPa 0,0 l/m 4,0 km/h (1 Bft) W 263 0 min 0,000 mm 0,0 UV-I 0 W/m 8,1 C 8,7 C 4,8 km/h (1 Bft) 96,15 %
18.04.2016 02:00 8,7 C 96 % 1015,0 hPa 0,0 l/m 4,0 km/h (1 Bft) W 269 0 min 0,000 mm 0,0 UV-I 0 W/m 8,1 C 8,7 C 6,4 km/h (2 Bft) 100,00 %
18.04.2016 02:01 8,7 C 96 % 1014,9 hPa 0,0 l/m 4,3 km/h (1 Bft) W-SW 252 0 min 0,000 mm 0,0 UV-I 0 W/m 8,1 C 8,7 C 4,8 km/h (1 Bft) 100,00 %
18.04.2016 02:02 8,7 C 96 % 1014,9 hPa 0,0 l/m 3,7 km/h (1 Bft) W-SW 252 0 min 0,000 mm 0,0 UV-I 0 W/m 8,1 C 8,7 C 4,8 km/h (1 Bft) 100,00 %
18.04.2016 02:03 8,7 C 96 % 1014,9 hPa 0,0 l/m 3,3 km/h (1 Bft) W-SW 250 0 min 0,000 mm 0,0 UV-I 0 W/m 8,1 C 8,7 C 4,8 km/h (1 Bft) 95,65 %
18.04.2016 02:04 8,7 C 95 % 1014,9 hPa 0,0 l/m 5,4 km/h (1 Bft) W-SW 250 0 min 0,000 mm 0,0 UV-I 0 W/m 7,9 C 8,7 C 6,4 km/h (2 Bft) 100,00 %
18.04.2016 02:05 8,7 C 95 % 1014,9 hPa 0,0 l/m 3,8 km/h (1 Bft) W-SW 250 0 min 0,000 mm 0,0 UV-I 0 W/m 7,9 C 8,7 C 4,8 km/h (1 Bft) 100,00 %
18.04.2016 02:06 8,7 C 95 % 1015,0 hPa 0,0 l/m 5,2 km/h (1 Bft) W-SW 251 0 min 0,000 mm 0,0 UV-I 0 W/m 7,9 C 8,7 C 12,9 km/h (3 Bft) 100,00 %
18.04.2016 02:07 8,7 C 95 % 1015,0 hPa 0,0 l/m 7,2 km/h (2 Bft) W-SW 241 0 min 0,000 mm 0,0 UV-I 0 W/m 7,9 C 8,1 C 12,9 km/h (3 Bft) 100,00 %
18.04.2016 02:08 8,7 C 95 % 1015,1 hPa 0,0 l/m 8,7 km/h (2 Bft) SW 232 0 min 0,000 mm 0,0 UV-I 0 W/m 7,9 C 7,0 C 11,3 km/h (2 Bft) 100,00 %
18.04.2016 02:09 8,7 C 95 % 1015,2 hPa 0,0 l/m 9,4 km/h (2 Bft) SW 219 0 min 0,000 mm 0,0 UV-I 0 W/m 7,9 C 6,5 C 11,3 km/h (2 Bft) 100,00 %
18.04.2016 02:10 8,7 C 95 % 1015,2 hPa 0,0 l/m 8,4 km/h (2 Bft) W-SW 258 0 min 0,000 mm 0,0 UV-I 0 W/m 7,9 C 7,2 C 11,3 km/h (2 Bft) 100,00 %
18.04.2016 02:11 8,7 C 95 % 1015,2 hPa 0,0 l/m 7,5 km/h (2 Bft) SW 228 0 min 0,000 mm 0,0 UV-I 0 W/m 7,9 C 7,9 C 11,3 km/h (2 Bft) 100,00 %
18.04.2016 02:12 8,7 C 95 % 1015,2 hPa 0,0 l/m 5,6 km/h (1 Bft) W 262 0 min 0,000 mm 0,0 UV-I 0 W/m 7,9 C 8,7 C 8,0 km/h (2 Bft) 95,83 %
18.04.2016 02:13 8,7 C 95 % 1015,2 hPa 0,0 l/m 6,5 km/h (2 Bft) W-SW 257 0 min 0,000 mm 0,0 UV-I 0 W/m 7,9 C 8,6 C 9,7 km/h (2 Bft) 100,00 %
18.04.2016 02:14 8,7 C 95 % 1015,1 hPa 0,2 l/m 7,2 km/h (2 Bft) W-SW 250 0 min 0,000 mm 0,0 UV-I 0 W/m 7,9 C 8,1 C 11,3 km/h (2 Bft) 100,00 %
18.04.2016 02:15 8,7 C 95 % 1015,1 hPa 0,0 l/m 4,6 km/h (1 Bft) W 259 0 min 0,000 mm 0,0 UV-I 0 W/m 7,9 C 8,7 C 6,4 km/h (2 Bft) 100,00 %
18.04.2016 02:16 8,7 C 95 % 1015,1 hPa 0,0 l/m 4,6 km/h (1 Bft) W 269 0 min 0,000 mm 0,0 UV-I 0 W/m 7,9 C 8,7 C 6,4 km/h (2 Bft) 100,00 %
18.04.2016 02:17 8,7 C 95 % 1015,0 hPa 0,0 l/m 5,8 km/h (2 Bft) W 263 0 min 0,000 mm 0,0 UV-I 0 W/m 7,9 C 8,7 C 8,0 km/h (2 Bft) 100,00 %
18.04.2016 02:18 8,7 C 95 % 1015,0 hPa 0,0 l/m 3,4 km/h (1 Bft) W-SW 243 0 min 0,000 mm 0,0 UV-I 0 W/m 7,9 C 8,7 C 4,8 km/h (1 Bft) 100,00 %
18.04.2016 02:19 8,7 C 95 % 1015,0 hPa 0,0 l/m 3,8 km/h (1 Bft) W 268 0 min 0,000 mm 0,0 UV-I 0 W/m 7,9 C 8,7 C 6,4 km/h (2 Bft) 100,00 %
18.04.2016 02:20 8,7 C 95 % 1014,9 hPa 0,0 l/m 4,2 km/h (1 Bft) W 260 0 min 0,000 mm 0,0 UV-I 0 W/m 7,9 C 8,7 C 6,4 km/h (2 Bft) 100,00 %
18.04.2016 02:21 8,7 C 95 % 1014,9 hPa 0,0 l/m 3,9 km/h (1 Bft) W 263 0 min 0,000 mm 0,0 UV-I 0 W/m 7,9 C 8,7 C 9,7 km/h (2 Bft) 96,30 %
18.04.2016 02:22 8,7 C 95 % 1014,9 hPa 0,0 l/m 2,4 km/h (1 Bft) W 263 0 min 0,000 mm 0,0 UV-I 0 W/m 7,9 C 8,7 C 3,2 km/h (1 Bft) 96,15 %
18.04.2016 02:23 8,7 C 95 % 1014,9 hPa 0,0 l/m 3,8 km/h (1 Bft) W 264 0 min 0,000 mm 0,0 UV-I 0 W/m 7,9 C 8,7 C 4,8 km/h (1 Bft) 100,00 %
18.04.2016 02:24 8,7 C 95 % 1014,9 hPa 0,0 l/m 4,8 km/h (1 Bft) W 261 0 min 0,000 mm 0,0 UV-I 0 W/m 7,9 C 8,7 C 6,4 km/h (2 Bft) 100,00 %
18.04.2016 02:25 8,7 C 95 % 1015,0 hPa 0,0 l/m 4,6 km/h (1 Bft) W-SW 256 0 min 0,000 mm 0,0 UV-I 0 W/m 7,9 C 8,7 C 9,7 km/h (2 Bft) 95,83 %
18.04.2016 02:26 8,7 C 95 % 1015,1 hPa 0,0 l/m 5,3 km/h (1 Bft) W-SW 246 0 min 0,000 mm 0,0 UV-I 0 W/m 7,9 C 8,7 C 6,4 km/h (2 Bft) 96,55 %
18.04.2016 02:27 8,7 C 95 % 1015,1 hPa 0,0 l/m 5,0 km/h (1 Bft) W 267 0 min 0,000 mm 0,0 UV-I 0 W/m 7,9 C 8,7 C 6,4 km/h (2 Bft) 100,00 %
18.04.2016 02:28 8,7 C 95 % 1015,1 hPa 0,0 l/m 3,9 km/h (1 Bft) W-SW 257 0 min 0,000 mm 0,0 UV-I 0 W/m 7,9 C 8,7 C 4,8 km/h (1 Bft) 95,65 %
18.04.2016 02:29 8,7 C 95 % 1015,1 hPa 0,0 l/m 4,7 km/h (1 Bft) W 275 0 min 0,000 mm 0,0 UV-I 0 W/m 7,9 C 8,7 C 6,4 km/h (2 Bft) 100,00 %
18.04.2016 02:30 8,6 C 95 % 1015,0 hPa 0,0 l/m 5,0 km/h (1 Bft) W-NW 299 0 min 0,000 mm 0,0 UV-I 0 W/m 7,8 C 8,6 C 6,4 km/h (2 Bft) 95,65 %
18.04.2016 02:31 8,7 C 95 % 1015,0 hPa 0,0 l/m 2,6 km/h (1 Bft) NW 306 0 min 0,000 mm 0,0 UV-I 0 W/m 7,9 C 8,7 C 4,8 km/h (1 Bft) 100,00 %
18.04.2016 02:32 8,6 C 95 % 1014,9 hPa 0,0 l/m 3,7 km/h (1 Bft) W 279 0 min 0,000 mm 0,0 UV-I 0 W/m 7,8 C 8,6 C 6,4 km/h (2 Bft) 91,30 %
18.04.2016 02:33 8,6 C 95 % 1014,9 hPa 0,0 l/m 4,0 km/h (1 Bft) W 263 0 min 0,000 mm 0,0 UV-I 0 W/m 7,8 C 8,6 C 6,4 km/h (2 Bft) 100,00 %
18.04.2016 02:34 8,6 C 95 % 1014,9 hPa 0,0 l/m 5,4 km/h (1 Bft) W-SW 246 0 min 0,000 mm 0,0 UV-I 0 W/m 7,8 C 8,6 C 8,0 km/h (2 Bft) 96,15 %
18.04.2016 02:35 8,6 C 95 % 1015,0 hPa 0,0 l/m 4,3 km/h (1 Bft) W-SW 244 0 min 0,000 mm 0,0 UV-I 0 W/m 7,8 C 8,6 C 6,4 km/h (2 Bft) 96,30 %
18.04.2016 02:36 8,6 C 95 % 1015,0 hPa 0,0 l/m 5,9 km/h (2 Bft) W-SW 257 0 min 0,000 mm 0,0 UV-I 0 W/m 7,8 C 8,6 C 9,7 km/h (2 Bft) 100,00 %
18.04.2016 02:37 8,6 C 95 % 1015,1 hPa 0,0 l/m 5,6 km/h (1 Bft) W 273 0 min 0,000 mm 0,0 UV-I 0 W/m 7,8 C 8,6 C 6,4 km/h (2 Bft) 96,15 %
18.04.2016 02:38 8,6 C 95 % 1015,0 hPa 0,0 l/m 5,9 km/h (2 Bft) W-NW 292 0 min 0,000 mm 0,0 UV-I 0 W/m 7,8 C 8,6 C 9,7 km/h (2 Bft) 95,83 %
18.04.2016 02:39 8,6 C 95 % 1015,0 hPa 0,0 l/m 4,2 km/h (1 Bft) W-NW 286 0 min 0,000 mm 0,0 UV-I 0 W/m 7,8 C 8,6 C 6,4 km/h (2 Bft) 96,55 %
18.04.2016 02:40 8,6 C 95 % 1015,0 hPa 0,0 l/m 1,9 km/h (1 Bft) W-NW 286 0 min 0,000 mm 0,0 UV-I 0 W/m 7,8 C 8,6 C 3,2 km/h (1 Bft) 95,65 %
18.04.2016 02:41 8,6 C 95 % 1015,0 hPa 0,0 l/m 1,3 km/h (1 Bft) W-NW 286 0 min 0,000 mm 0,0 UV-I 0 W/m 7,8 C 8,6 C 3,2 km/h (1 Bft) 100,00 %
18.04.2016 02:42 8,6 C 95 % 1015,0 hPa 0,0 l/m 4,6 km/h (1 Bft) W 274 0 min 0,000 mm 0,0 UV-I 0 W/m 7,8 C 8,6 C 6,4 km/h (2 Bft) 95,83 %
18.04.2016 02:43 8,6 C 95 % 1015,0 hPa 0,0 l/m 5,6 km/h (1 Bft) W-SW 244 0 min 0,000 mm 0,0 UV-I 0 W/m 7,8 C 8,6 C 9,7 km/h (2 Bft) 95,65 %
18.04.2016 02:44 8,5 C 95 % 1015,0 hPa 0,0 l/m 4,5 km/h (1 Bft) W-SW 244 0 min 0,000 mm 0,0 UV-I 0 W/m 7,7 C 8,5 C 6,4 km/h (2 Bft) 95,83 %
18.04.2016 02:45 8,5 C 95 % 1015,1 hPa 0,0 l/m 4,1 km/h (1 Bft) W-SW 246 0 min 0,000 mm 0,0 UV-I 0 W/m 7,7 C 8,5 C 4,8 km/h (1 Bft) 100,00 %
18.04.2016 02:46 8,5 C 95 % 1015,1 hPa 0,0 l/m 8,1 km/h (2 Bft) W 267 0 min 0,000 mm 0,0 UV-I 0 W/m 7,7 C 7,2 C 11,3 km/h (2 Bft) 93,33 %
18.04.2016 02:47 8,5 C 95 % 1015,1 hPa 0,0 l/m 4,9 km/h (1 Bft) W 269 0 min 0,000 mm 0,0 UV-I 0 W/m 7,7 C 8,5 C 9,7 km/h (2 Bft) 100,00 %
18.04.2016 02:48 8,5 C 95 % 1015,1 hPa 0,0 l/m 4,4 km/h (1 Bft) W 273 0 min 0,000 mm 0,0 UV-I 0 W/m 7,7 C 8,5 C 6,4 km/h (2 Bft) 96,67 %
18.04.2016 02:49 8,5 C 95 % 1015,1 hPa 0,2 l/m 3,8 km/h (1 Bft) W 273 0 min 0,000 mm 0,0 UV-I 0 W/m 7,7 C 8,5 C 4,8 km/h (1 Bft) 96,15 %
18.04.2016 02:50 8,5 C 96 % 1015,1 hPa 0,0 l/m 4,3 km/h (1 Bft) W-SW 252 0 min 0,000 mm 0,0 UV-I 0 W/m 7,9 C 8,5 C 6,4 km/h (2 Bft) 100,00 %
18.04.2016 02:51 8,5 C 96 % 1015,1 hPa 0,0 l/m 6,0 km/h (2 Bft) SW 229 0 min 0,000 mm 0,0 UV-I 0 W/m 7,9 C 8,5 C 8,0 km/h (2 Bft) 96,15 %
18.04.2016 02:52 8,5 C 96 % 1015,1 hPa 0,0 l/m 5,1 km/h (1 Bft) SW 232 0 min 0,000 mm 0,0 UV-I 0 W/m 7,9 C 8,5 C 6,4 km/h (2 Bft) 96,30 %
18.04.2016 02:53 8,5 C 96 % 1015,1 hPa 0,0 l/m 5,6 km/h (1 Bft) SW 229 0 min 0,000 mm 0,0 UV-I 0 W/m 7,9 C 8,5 C 6,4 km/h (2 Bft) 95,65 %
18.04.2016 02:54 8,5 C 96 % 1015,2 hPa 0,0 l/m 5,4 km/h (1 Bft) SW 218 0 min 0,000 mm 0,0 UV-I 0 W/m 7,9 C 8,5 C 6,4 km/h (2 Bft) 100,00 %
18.04.2016 02:55 8,4 C 96 % 1015,2 hPa 0,0 l/m 3,8 km/h (1 Bft) W-SW 237 0 min 0,000 mm 0,0 UV-I 0 W/m 7,8 C 8,4 C 4,8 km/h (1 Bft) 96,15 %
18.04.2016 02:56 8,4 C 96 % 1015,2 hPa 0,0 l/m 4,6 km/h (1 Bft) W-SW 252 0 min 0,000 mm 0,0 UV-I 0 W/m 7,8 C 8,4 C 6,4 km/h (2 Bft) 100,00 %
18.04.2016 02:57 8,4 C 96 % 1015,0 hPa 0,0 l/m 4,3 km/h (1 Bft) W 273 0 min 0,000 mm 0,0 UV-I 0 W/m 7,8 C 8,4 C 6,4 km/h (2 Bft) 100,00 %
18.04.2016 02:58 8,5 C 96 % 1015,0 hPa 0,0 l/m 5,0 km/h (1 Bft) NW 307 0 min 0,000 mm 0,0 UV-I 0 W/m 7,9 C 8,5 C 9,7 km/h (2 Bft) 100,00 %
18.04.2016 02:59 8,4 C 96 % 1015,0 hPa 0,0 l/m 6,2 km/h (2 Bft) W 276 0 min 0,000 mm 0,0 UV-I 0 W/m 7,8 C 8,4 C 9,7 km/h (2 Bft) 95,83 %
18.04.2016 03:00 8,4 C 96 % 1015,0 hPa 0,0 l/m 4,7 km/h (1 Bft) W-SW 254 0 min 0,000 mm 0,0 UV-I 0 W/m 7,8 C 8,4 C 6,4 km/h (2 Bft) 95,65 %
18.04.2016 03:01 8,4 C 96 % 1014,9 hPa 0,0 l/m 2,1 km/h (1 Bft) W-SW 254 0 min 0,000 mm 0,0 UV-I 0 W/m 7,8 C 8,4 C 4,8 km/h (1 Bft) 100,00 %
18.04.2016 03:02 8,4 C 96 % 1015,0 hPa 0,0 l/m 4,3 km/h (1 Bft) W 269 0 min 0,000 mm 0,0 UV-I 0 W/m 7,8 C 8,4 C 6,4 km/h (2 Bft) 100,00 %
18.04.2016 03:03 8,4 C 96 % 1015,1 hPa 0,0 l/m 3,8 km/h (1 Bft) W 270 0 min 0,000 mm 0,0 UV-I 0 W/m 7,8 C 8,4 C 4,8 km/h (1 Bft) 100,00 %
18.04.2016 03:04 8,4 C 96 % 1015,1 hPa 0,0 l/m 5,6 km/h (1 Bft) W-SW 255 0 min 0,000 mm 0,0 UV-I 0 W/m 7,8 C 8,4 C 9,7 km/h (2 Bft) 100,00 %
18.04.2016 03:05 8,4 C 95 % 1015,1 hPa 0,0 l/m 5,7 km/h (1 Bft) W-SW 243 0 min 0,000 mm 0,0 UV-I 0 W/m 7,6 C 8,4 C 6,4 km/h (2 Bft) 100,00 %
18.04.2016 03:06 8,4 C 95 % 1015,2 hPa 0,0 l/m 3,2 km/h (1 Bft) W-SW 251 0 min 0,000 mm 0,0 UV-I 0 W/m 7,6 C 8,4 C 4,8 km/h (1 Bft) 100,00 %
18.04.2016 03:07 8,4 C 95 % 1015,2 hPa 0,0 l/m 4,9 km/h (1 Bft) W-SW 242 0 min 0,000 mm 0,0 UV-I 0 W/m 7,6 C 8,4 C 6,4 km/h (2 Bft) 100,00 %
18.04.2016 03:08 8,4 C 95 % 1015,2 hPa 0,0 l/m 4,9 km/h (1 Bft) W-SW 248 0 min 0,000 mm 0,0 UV-I 0 W/m 7,6 C 8,4 C 6,4 km/h (2 Bft) 91,30 %
18.04.2016 03:09 8,4 C 95 % 1015,2 hPa 0,0 l/m 5,8 km/h (2 Bft) W 265 0 min 0,000 mm 0,0 UV-I 0 W/m 7,6 C 8,4 C 8,0 km/h (2 Bft) 100,00 %
18.04.2016 03:10 8,4 C 95 % 1015,2 hPa 0,0 l/m 6,1 km/h (2 Bft) W 261 0 min 0,000 mm 0,0 UV-I 0 W/m 7,6 C 8,4 C 11,3 km/h (2 Bft) 100,00 %
18.04.2016 03:11 8,4 C 95 % 1015,3 hPa 0,0 l/m 5,0 km/h (1 Bft) W 261 0 min 0,000 mm 0,0 UV-I 0 W/m 7,6 C 8,4 C 6,4 km/h (2 Bft) 100,00 %
18.04.2016 03:12 8,3 C 95 % 1015,4 hPa 0,0 l/m 4,7 km/h (1 Bft) W-SW 252 0 min 0,000 mm 0,0 UV-I 0 W/m 7,5 C 8,3 C 6,4 km/h (2 Bft) 100,00 %
18.04.2016 03:13 8,3 C 95 % 1015,4 hPa 0,0 l/m 4,4 km/h (1 Bft) W-SW 256 0 min 0,000 mm 0,0 UV-I 0 W/m 7,5 C 8,3 C 6,4 km/h (2 Bft) 100,00 %
18.04.2016 03:14 8,3 C 95 % 1015,4 hPa 0,0 l/m 5,2 km/h (1 Bft) SW 236 0 min 0,000 mm 0,0 UV-I 0 W/m 7,5 C 8,3 C 6,4 km/h (2 Bft) 100,00 %
18.04.2016 03:15 8,3 C 95 % 1015,4 hPa 0,0 l/m 4,6 km/h (1 Bft) SW 232 0 min 0,000 mm 0,0 UV-I 0 W/m 7,5 C 8,3 C 6,4 km/h (2 Bft) 100,00 %
18.04.2016 03:16 8,4 C 95 % 1015,5 hPa 0,0 l/m 4,2 km/h (1 Bft) S-SW 196 0 min 0,000 mm 0,0 UV-I 0 W/m 7,6 C 8,4 C 6,4 km/h (2 Bft) 100,00 %
18.04.2016 03:17 8,3 C 95 % 1015,5 hPa 0,0 l/m 4,1 km/h (1 Bft) W-SW 247 0 min 0,000 mm 0,0 UV-I 0 W/m 7,5 C 8,3 C 4,8 km/h (1 Bft) 100,00 %
18.04.2016 03:18 8,3 C 95 % 1015,4 hPa 0,0 l/m 5,0 km/h (1 Bft) SW 229 0 min 0,000 mm 0,0 UV-I 0 W/m 7,5 C 8,3 C 6,4 km/h (2 Bft) 100,00 %
18.04.2016 03:19 8,3 C 95 % 1015,4 hPa 0,0 l/m 3,0 km/h (1 Bft) W 260 0 min 0,000 mm 0,0 UV-I 0 W/m 7,5 C 8,3 C 3,2 km/h (1 Bft) 100,00 %
18.04.2016 03:20 8,3 C 95 % 1015,2 hPa 0,0 l/m 1,8 km/h (1 Bft) W 263 0 min 0,000 mm 0,0 UV-I 0 W/m 7,5 C 8,3 C 3,2 km/h (1 Bft) 100,00 %
18.04.2016 03:21 8,3 C 95 % 1015,2 hPa 0,0 l/m 1,0 km/h (0 Bft) W 263 0 min 0,000 mm 0,0 UV-I 0 W/m 7,5 C 8,3 C 1,6 km/h (1 Bft) 100,00 %
18.04.2016 03:22 8,3 C 95 % 1015,2 hPa 0,0 l/m 2,6 km/h (1 Bft) W-SW 256 0 min 0,000 mm 0,0 UV-I 0 W/m 7,5 C 8,3 C 6,4 km/h (2 Bft) 100,00 %
18.04.2016 03:23 8,3 C 96 % 1015,3 hPa 0,0 l/m 5,3 km/h (1 Bft) SW 232 0 min 0,000 mm 0,0 UV-I 0 W/m 7,7 C 8,3 C 6,4 km/h (2 Bft) 100,00 %
18.04.2016 03:24 8,3 C 96 % 1015,3 hPa 0,0 l/m 5,5 km/h (1 Bft) SW 229 0 min 0,000 mm 0,0 UV-I 0 W/m 7,7 C 8,3 C 6,4 km/h (2 Bft) 100,00 %
18.04.2016 03:25 8,3 C 96 % 1015,4 hPa 0,0 l/m 3,8 km/h (1 Bft) W-SW 252 0 min 0,000 mm 0,0 UV-I 0 W/m 7,7 C 8,3 C 4,8 km/h (1 Bft) 96,15 %
18.04.2016 03:26 8,3 C 96 % 1015,3 hPa 0,0 l/m 2,1 km/h (1 Bft) W-SW 254 0 min 0,000 mm 0,0 UV-I 0 W/m 7,7 C 8,3 C 3,2 km/h (1 Bft) 100,00 %
18.04.2016 03:27 8,3 C 96 % 1015,3 hPa 0,0 l/m 1,7 km/h (1 Bft) W-SW 256 0 min 0,000 mm 0,0 UV-I 0 W/m 7,7 C 8,3 C 3,2 km/h (1 Bft) 100,00 %
18.04.2016 03:28 8,3 C 96 % 1015,2 hPa 0,0 l/m 1,9 km/h (1 Bft) NW 305 0 min 0,000 mm 0,0 UV-I 0 W/m 7,7 C 8,3 C 4,8 km/h (1 Bft) 100,00 %
18.04.2016 03:29 8,3 C 96 % 1015,2 hPa 0,0 l/m 3,6 km/h (1 Bft) W-SW 254 0 min 0,000 mm 0,0 UV-I 0 W/m 7,7 C 8,3 C 4,8 km/h (1 Bft) 100,00 %
18.04.2016 03:30 8,3 C 96 % 1015,4 hPa 0,0 l/m 5,1 km/h (1 Bft) W-SW 249 0 min 0,000 mm 0,0 UV-I 0 W/m 7,7 C 8,3 C 6,4 km/h (2 Bft) 100,00 %
18.04.2016 03:31 8,3 C 96 % 1015,5 hPa 0,0 l/m 4,5 km/h (1 Bft) SW 232 0 min 0,000 mm 0,0 UV-I 0 W/m 7,7 C 8,3 C 6,4 km/h (2 Bft) 100,00 %
18.04.2016 03:32 8,3 C 96 % 1015,5 hPa 0,0 l/m 4,8 km/h (1 Bft) SW 228 0 min 0,000 mm 0,0 UV-I 0 W/m 7,7 C 8,3 C 6,4 km/h (2 Bft) 100,00 %
18.04.2016 03:33 8,3 C 96 % 1015,5 hPa 0,0 l/m 2,6 km/h (1 Bft) SW 228 0 min 0,000 mm 0,0 UV-I 0 W/m 7,7 C 8,3 C 3,2 km/h (1 Bft) 100,00 %
18.04.2016 03:34 8,3 C 96 % 1015,5 hPa 0,0 l/m 3,2 km/h (1 Bft) SW 228 0 min 0,000 mm 0,0 UV-I 0 W/m 7,7 C 8,3 C 4,8 km/h (1 Bft) 100,00 %
18.04.2016 03:35 8,3 C 96 % 1015,4 hPa 0,0 l/m 3,2 km/h (1 Bft) W 265 0 min 0,000 mm 0,0 UV-I 0 W/m 7,7 C 8,3 C 4,8 km/h (1 Bft) 100,00 %
18.04.2016 03:36 8,3 C 96 % 1015,4 hPa 0,0 l/m 2,3 km/h (1 Bft) W 272 0 min 0,000 mm 0,0 UV-I 0 W/m 7,7 C 8,3 C 3,2 km/h (1 Bft) 100,00 %
18.04.2016 03:37 8,3 C 96 % 1015,4 hPa 0,0 l/m 4,0 km/h (1 Bft) W-SW 239 0 min 0,000 mm 0,0 UV-I 0 W/m 7,7 C 8,3 C 4,8 km/h (1 Bft) 100,00 %
18.04.2016 03:38 8,3 C 96 % 1015,4 hPa 0,0 l/m 6,4 km/h (2 Bft) W-SW 242 0 min 0,000 mm 0,0 UV-I 0 W/m 7,7 C 8,3 C 9,7 km/h (2 Bft) 100,00 %
18.04.2016 03:39 8,3 C 96 % 1015,5 hPa 0,0 l/m 5,6 km/h (1 Bft) SW 232 0 min 0,000 mm 0,0 UV-I 0 W/m 7,7 C 8,3 C 6,4 km/h (2 Bft) 100,00 %
18.04.2016 03:40 8,3 C 96 % 1015,5 hPa 0,0 l/m 6,0 km/h (2 Bft) SW 219 0 min 0,000 mm 0,0 UV-I 0 W/m 7,7 C 8,3 C 8,0 km/h (2 Bft) 100,00 %
18.04.2016 03:41 8,3 C 96 % 1015,5 hPa 0,0 l/m 6,4 km/h (2 Bft) SW 221 0 min 0,000 mm 0,0 UV-I 0 W/m 7,7 C 8,3 C 8,0 km/h (2 Bft) 100,00 %
18.04.2016 03:42 8,3 C 96 % 1015,5 hPa 0,0 l/m 4,5 km/h (1 Bft) S-SW 211 0 min 0,000 mm 0,0 UV-I 0 W/m 7,7 C 8,3 C 6,4 km/h (2 Bft) 95,65 %
18.04.2016 03:43 8,3 C 96 % 1015,5 hPa 0,0 l/m 4,6 km/h (1 Bft) SW 234 0 min 0,000 mm 0,0 UV-I 0 W/m 7,7 C 8,3 C 6,4 km/h (2 Bft) 100,00 %
18.04.2016 03:44 8,3 C 96 % 1015,5 hPa 0,0 l/m 3,5 km/h (1 Bft) W-SW 256 0 min 0,000 mm 0,0 UV-I 0 W/m 7,7 C 8,3 C 4,8 km/h (1 Bft) 96,15 %
18.04.2016 03:45 8,3 C 96 % 1015,4 hPa 0,0 l/m 4,8 km/h (1 Bft) W 271 0 min 0,000 mm 0,0 UV-I 0 W/m 7,7 C 8,3 C 6,4 km/h (2 Bft) 100,00 %
18.04.2016 03:46 8,2 C 96 % 1015,4 hPa 0,0 l/m 4,0 km/h (1 Bft) W 264 0 min 0,000 mm 0,0 UV-I 0 W/m 7,6 C 8,2 C 6,4 km/h (2 Bft) 100,00 %
18.04.2016 03:47 8,2 C 96 % 1015,5 hPa 0,0 l/m 4,0 km/h (1 Bft) W 259 0 min 0,000 mm 0,0 UV-I 0 W/m 7,6 C 8,2 C 4,8 km/h (1 Bft) 100,00 %
18.04.2016 03:48 8,2 C 96 % 1015,5 hPa 0,0 l/m 5,0 km/h (1 Bft) W 277 0 min 0,000 mm 0,0 UV-I 0 W/m 7,6 C 8,2 C 6,4 km/h (2 Bft) 100,00 %
18.04.2016 03:49 8,2 C 96 % 1015,5 hPa 0,0 l/m 4,4 km/h (1 Bft) W 259 0 min 0,000 mm 0,0 UV-I 0 W/m 7,6 C 8,2 C 6,4 km/h (2 Bft) 100,00 %
18.04.2016 03:50 8,2 C 96 % 1015,4 hPa 0,0 l/m 3,1 km/h (1 Bft) W 277 0 min 0,000 mm 0,0 UV-I 0 W/m 7,6 C 8,2 C 4,8 km/h (1 Bft) 90,91 %
18.04.2016 03:51 8,2 C 96 % 1015,5 hPa 0,0 l/m 3,9 km/h (1 Bft) W 277 0 min 0,000 mm 0,0 UV-I 0 W/m 7,6 C 8,2 C 4,8 km/h (1 Bft) 100,00 %
18.04.2016 03:52 8,2 C 96 % 1015,5 hPa 0,0 l/m 3,6 km/h (1 Bft) W-NW 286 0 min 0,000 mm 0,0 UV-I 0 W/m 7,6 C 8,2 C 4,8 km/h (1 Bft) 100,00 %
18.04.2016 03:53 8,2 C 96 % 1015,5 hPa 0,0 l/m 3,1 km/h (1 Bft) W-NW 286 0 min 0,000 mm 0,0 UV-I 0 W/m 7,6 C 8,2 C 4,8 km/h (1 Bft) 91,67 %
18.04.2016 03:54 8,2 C 96 % 1015,5 hPa 0,0 l/m 3,2 km/h (1 Bft) W-NW 286 0 min 0,000 mm 0,0 UV-I 0 W/m 7,6 C 8,2 C 4,8 km/h (1 Bft) 100,00 %
18.04.2016 03:55 8,2 C 96 % 1015,5 hPa 0,0 l/m 4,6 km/h (1 Bft) W-NW 293 0 min 0,000 mm 0,0 UV-I 0 W/m 7,6 C 8,2 C 6,4 km/h (2 Bft) 100,00 %
18.04.2016 03:56 8,2 C 96 % 1015,5 hPa 0,0 l/m 3,9 km/h (1 Bft) W 281 0 min 0,000 mm 0,0 UV-I 0 W/m 7,6 C 8,2 C 4,8 km/h (1 Bft) 96,15 %
18.04.2016 03:57 8,2 C 96 % 1015,5 hPa 0,0 l/m 3,8 km/h (1 Bft) W 281 0 min 0,000 mm 0,0 UV-I 0 W/m 7,6 C 8,2 C 4,8 km/h (1 Bft) 100,00 %
18.04.2016 03:58 8,2 C 96 % 1015,4 hPa 0,0 l/m 3,1 km/h (1 Bft) W 281 0 min 0,000 mm 0,0 UV-I 0 W/m 7,6 C 8,2 C 4,8 km/h (1 Bft) 100,00 %
18.04.2016 03:59 8,2 C 96 % 1015,4 hPa 0,0 l/m 4,7 km/h (1 Bft) W 277 0 min 0,000 mm 0,0 UV-I 0 W/m 7,6 C 8,2 C 6,4 km/h (2 Bft) 93,75 %
18.04.2016 04:00 8,2 C 96 % 1015,4 hPa 0,0 l/m 3,5 km/h (1 Bft) W 277 0 min 0,000 mm 0,0 UV-I 0 W/m 7,6 C 8,2 C 4,8 km/h (1 Bft) 100,00 %
18.04.2016 04:03 8,2 C 96 % 1015,4 hPa 0,0 l/m 3,8 km/h (1 Bft) W 263 0 min 0,000 mm 0,0 UV-I 0 W/m 7,6 C 8,2 C 6,4 km/h (2 Bft) 98,18 %
18.04.2016 04:04 8,2 C 96 % 1015,4 hPa 0,0 l/m 2,7 km/h (1 Bft) W-SW 256 0 min 0,000 mm 0,0 UV-I 0 W/m 7,6 C 8,2 C 4,8 km/h (1 Bft) 93,33 %
18.04.2016 04:05 8,2 C 96 % 1015,4 hPa 0,0 l/m 1,4 km/h (1 Bft) W-SW 256 0 min 0,000 mm 0,0 UV-I 0 W/m 7,6 C 8,2 C 3,2 km/h (1 Bft) 100,00 %
18.04.2016 04:06 8,2 C 96 % 1015,4 hPa 0,0 l/m 3,3 km/h (1 Bft) W-SW 257 0 min 0,000 mm 0,0 UV-I 0 W/m 7,6 C 8,2 C 4,8 km/h (1 Bft) 100,00 %
18.04.2016 04:07 8,2 C 96 % 1015,4 hPa 0,0 l/m 2,8 km/h (1 Bft) W-SW 257 0 min 0,000 mm 0,0 UV-I 0 W/m 7,6 C 8,2 C 4,8 km/h (1 Bft) 100,00 %
18.04.2016 04:08 8,2 C 96 % 1015,4 hPa 0,0 l/m 1,7 km/h (1 Bft) W-SW 257 0 min 0,000 mm 0,0 UV-I 0 W/m 7,6 C 8,2 C 3,2 km/h (1 Bft) 100,00 %
18.04.2016 04:09 8,2 C 96 % 1015,4 hPa 0,0 l/m 3,0 km/h (1 Bft) W-SW 257 0 min 0,000 mm 0,0 UV-I 0 W/m 7,6 C 8,2 C 3,2 km/h (1 Bft) 100,00 %
18.04.2016 04:10 8,2 C 96 % 1015,4 hPa 0,0 l/m 4,0 km/h (1 Bft) W-SW 257 0 min 0,000 mm 0,0 UV-I 0 W/m 7,6 C 8,2 C 9,7 km/h (2 Bft) 98,98 %
18.04.2016 04:11 8,1 C 96 % 1015,4 hPa 0,0 l/m 4,7 km/h (1 Bft) W 272 0 min 0,000 mm 0,0 UV-I 0 W/m 7,5 C 8,1 C 6,4 km/h (2 Bft) 100,00 %
18.04.2016 04:12 8,1 C 96 % 1015,4 hPa 0,0 l/m 1,5 km/h (1 Bft) W 272 0 min 0,000 mm 0,0 UV-I 0 W/m 7,5 C 8,1 C 3,2 km/h (1 Bft) 100,00 %
18.04.2016 04:13 8,1 C 96 % 1015,4 hPa 0,0 l/m 2,1 km/h (1 Bft) W 272 0 min 0,000 mm 0,0 UV-I 0 W/m 7,5 C 8,1 C 3,2 km/h (1 Bft) 100,00 %
18.04.2016 04:14 8,1 C 96 % 1015,4 hPa 0,0 l/m 3,3 km/h (1 Bft) W 272 0 min 0,000 mm 0,0 UV-I 0 W/m 7,5 C 8,1 C 4,8 km/h (1 Bft) 95,83 %
18.04.2016 04:15 8,1 C 96 % 1015,5 hPa 0,0 l/m 4,2 km/h (1 Bft) W 271 0 min 0,000 mm 0,0 UV-I 0 W/m 7,5 C 8,1 C 6,4 km/h (2 Bft) 95,65 %
18.04.2016 04:16 8,1 C 96 % 1015,5 hPa 0,0 l/m 3,4 km/h (1 Bft) W 259 0 min 0,000 mm 0,0 UV-I 0 W/m 7,5 C 8,1 C 4,8 km/h (1 Bft) 95,83 %
18.04.2016 04:17 8,1 C 96 % 1015,5 hPa 0,0 l/m 3,9 km/h (1 Bft) W 259 0 min 0,000 mm 0,0 UV-I 0 W/m 7,5 C 8,1 C 4,8 km/h (1 Bft) 100,00 %
18.04.2016 04:18 8,1 C 96 % 1015,5 hPa 0,0 l/m 4,2 km/h (1 Bft) W 259 0 min 0,000 mm 0,0 UV-I 0 W/m 7,5 C 8,1 C 4,8 km/h (1 Bft) 100,00 %
18.04.2016 04:19 8,1 C 96 % 1015,5 hPa 0,0 l/m 3,9 km/h (1 Bft) W 280 0 min 0,000 mm 0,0 UV-I 0 W/m 7,5 C 8,1 C 4,8 km/h (1 Bft) 96,30 %
18.04.2016 04:20 8,1 C 96 % 1015,6 hPa 0,0 l/m 8,2 km/h (2 Bft) W 260 0 min 0,000 mm 0,0 UV-I 0 W/m 7,5 C 6,7 C 12,9 km/h (3 Bft) 100,00 %
18.04.2016 04:21 8,1 C 96 % 1015,6 hPa 0,0 l/m 4,6 km/h (1 Bft) W 275 0 min 0,000 mm 0,0 UV-I 0 W/m 7,5 C 8,1 C 6,4 km/h (2 Bft) 96,30 %
18.04.2016 04:22 8,1 C 96 % 1015,5 hPa 0,0 l/m 6,3 km/h (2 Bft) W-SW 258 0 min 0,000 mm 0,0 UV-I 0 W/m 7,5 C 8,1 C 9,7 km/h (2 Bft) 100,00 %
18.04.2016 04:23 8,1 C 96 % 1015,6 hPa 0,0 l/m 5,1 km/h (1 Bft) W-NW 288 0 min 0,000 mm 0,0 UV-I 0 W/m 7,5 C 8,1 C 6,4 km/h (2 Bft) 95,83 %
18.04.2016 04:24 8,1 C 96 % 1015,6 hPa 0,0 l/m 3,8 km/h (1 Bft) W 273 0 min 0,000 mm 0,0 UV-I 0 W/m 7,5 C 8,1 C 6,4 km/h (2 Bft) 100,00 %
18.04.2016 04:25 8,1 C 96 % 1015,6 hPa 0,0 l/m 2,1 km/h (1 Bft) W 273 0 min 0,000 mm 0,0 UV-I 0 W/m 7,5 C 8,1 C 3,2 km/h (1 Bft) 95,83 %
18.04.2016 04:26 8,1 C 96 % 1015,5 hPa 0,0 l/m 4,4 km/h (1 Bft) W 269 0 min 0,000 mm 0,0 UV-I 0 W/m 7,5 C 8,1 C 6,4 km/h (2 Bft) 96,15 %
18.04.2016 04:27 8,1 C 96 % 1015,5 hPa 0,0 l/m 5,0 km/h (1 Bft) W 259 0 min 0,000 mm 0,0 UV-I 0 W/m 7,5 C 8,1 C 6,4 km/h (2 Bft) 100,00 %
18.04.2016 04:28 8,1 C 96 % 1015,6 hPa 0,0 l/m 4,0 km/h (1 Bft) W-NW 284 0 min 0,000 mm 0,0 UV-I 0 W/m 7,5 C 8,1 C 6,4 km/h (2 Bft) 95,65 %
18.04.2016 04:29 8,1 C 96 % 1015,6 hPa 0,0 l/m 5,0 km/h (1 Bft) W 273 0 min 0,000 mm 0,0 UV-I 0 W/m 7,5 C 8,1 C 6,4 km/h (2 Bft) 100,00 %
18.04.2016 04:30 8,1 C 96 % 1015,5 hPa 0,0 l/m 2,7 km/h (1 Bft) W 273 0 min 0,000 mm 0,0 UV-I 0 W/m 7,5 C 8,1 C 4,8 km/h (1 Bft) 96,15 %
18.04.2016 04:31 8,1 C 96 % 1015,5 hPa 0,0 l/m 3,1 km/h (1 Bft) W 273 0 min 0,000 mm 0,0 UV-I 0 W/m 7,5 C 8,1 C 4,8 km/h (1 Bft) 100,00 %
18.04.2016 04:32 8,1 C 96 % 1015,5 hPa 0,0 l/m 4,5 km/h (1 Bft) W-NW 288 0 min 0,000 mm 0,0 UV-I 0 W/m 7,5 C 8,1 C 6,4 km/h (2 Bft) 96,15 %
18.04.2016 04:33 8,1 C 96 % 1015,4 hPa 0,0 l/m 4,5 km/h (1 Bft) W 272 0 min 0,000 mm 0,0 UV-I 0 W/m 7,5 C 8,1 C 6,4 km/h (2 Bft) 100,00 %
18.04.2016 04:34 8,0 C 96 % 1015,4 hPa 0,0 l/m 3,8 km/h (1 Bft) W 281 0 min 0,000 mm 0,0 UV-I 0 W/m 7,4 C 8,0 C 6,4 km/h (2 Bft) 91,30 %
18.04.2016 04:35 8,0 C 96 % 1015,4 hPa 0,0 l/m 2,8 km/h (1 Bft) W-NW 285 0 min 0,000 mm 0,0 UV-I 0 W/m 7,4 C 8,0 C 4,8 km/h (1 Bft) 95,83 %
18.04.2016 04:36 8,0 C 96 % 1015,5 hPa 0,0 l/m 3,7 km/h (1 Bft) W 277 0 min 0,000 mm 0,0 UV-I 0 W/m 7,4 C 8,0 C 4,8 km/h (1 Bft) 100,00 %
18.04.2016 04:37 8,0 C 96 % 1015,5 hPa 0,0 l/m 3,0 km/h (1 Bft) W 280 0 min 0,000 mm 0,0 UV-I 0 W/m 7,4 C 8,0 C 4,8 km/h (1 Bft) 96,30 %
18.04.2016 04:38 8,0 C 96 % 1015,4 hPa 0,0 l/m 2,1 km/h (1 Bft) W 280 0 min 0,000 mm 0,0 UV-I 0 W/m 7,4 C 8,0 C 3,2 km/h (1 Bft) 100,00 %
18.04.2016 04:39 7,9 C 96 % 1015,5 hPa 0,0 l/m 4,8 km/h (1 Bft) W-SW 250 0 min 0,000 mm 0,0 UV-I 0 W/m 7,3 C 7,9 C 9,7 km/h (2 Bft) 95,83 %
18.04.2016 04:40 7,9 C 96 % 1015,5 hPa 0,0 l/m 2,8 km/h (1 Bft) W-SW 254 0 min 0,000 mm 0,0 UV-I 0 W/m 7,3 C 7,9 C 4,8 km/h (1 Bft) 100,00 %
18.04.2016 04:41 7,9 C 96 % 1015,5 hPa 0,0 l/m 4,2 km/h (1 Bft) W-NW 299 0 min 0,000 mm 0,0 UV-I 0 W/m 7,3 C 7,9 C 6,4 km/h (2 Bft) 95,65 %
18.04.2016 04:42 7,9 C 96 % 1015,5 hPa 0,0 l/m 4,6 km/h (1 Bft) W 270 0 min 0,000 mm 0,0 UV-I 0 W/m 7,3 C 7,9 C 6,4 km/h (2 Bft) 95,83 %
18.04.2016 04:43 7,9 C 96 % 1015,5 hPa 0,0 l/m 4,5 km/h (1 Bft) W 277 0 min 0,000 mm 0,0 UV-I 0 W/m 7,3 C 7,9 C 9,7 km/h (2 Bft) 100,00 %
18.04.2016 04:44 7,9 C 96 % 1015,5 hPa 0,0 l/m 5,7 km/h (1 Bft) W 267 0 min 0,000 mm 0,0 UV-I 0 W/m 7,3 C 7,9 C 9,7 km/h (2 Bft) 96,30 %
18.04.2016 04:45 7,9 C 96 % 1015,6 hPa 0,0 l/m 4,7 km/h (1 Bft) W-SW 255 0 min 0,000 mm 0,0 UV-I 0 W/m 7,3 C 7,9 C 6,4 km/h (2 Bft) 96,15 %
18.04.2016 04:46 7,9 C 96 % 1015,6 hPa 0,0 l/m 4,8 km/h (1 Bft) W-SW 255 0 min 0,000 mm 0,0 UV-I 0 W/m 7,3 C 7,9 C 6,4 km/h (2 Bft) 95,83 %
18.04.2016 04:47 7,9 C 96 % 1015,6 hPa 0,0 l/m 4,0 km/h (1 Bft) W-NW 286 0 min 0,000 mm 0,0 UV-I 0 W/m 7,3 C 7,9 C 6,4 km/h (2 Bft) 92,31 %
18.04.2016 04:48 7,9 C 96 % 1015,5 hPa 0,0 l/m 4,3 km/h (1 Bft) W 265 0 min 0,000 mm 0,0 UV-I 0 W/m 7,3 C 7,9 C 6,4 km/h (2 Bft) 95,83 %
18.04.2016 04:49 7,9 C 96 % 1015,5 hPa 0,0 l/m 3,4 km/h (1 Bft) W 265 0 min 0,000 mm 0,0 UV-I 0 W/m 7,3 C 7,9 C 6,4 km/h (2 Bft) 100,00 %
18.04.2016 04:50 7,9 C 96 % 1015,5 hPa 0,0 l/m 4,3 km/h (1 Bft) W 265 0 min 0,000 mm 0,0 UV-I 0 W/m 7,3 C 7,9 C 4,8 km/h (1 Bft) 91,67 %
18.04.2016 04:51 7,9 C 96 % 1015,5 hPa 0,2 l/m 5,1 km/h (1 Bft) W-SW 256 0 min 0,000 mm 0,0 UV-I 0 W/m 7,3 C 7,9 C 6,4 km/h (2 Bft) 100,00 %
18.04.2016 04:52 7,9 C 96 % 1015,6 hPa 0,0 l/m 5,2 km/h (1 Bft) W 263 0 min 0,000 mm 0,0 UV-I 0 W/m 7,3 C 7,9 C 6,4 km/h (2 Bft) 95,83 %
18.04.2016 04:53 7,9 C 96 % 1015,6 hPa 0,0 l/m 4,7 km/h (1 Bft) W-NW 298 0 min 0,000 mm 0,0 UV-I 0 W/m 7,3 C 7,9 C 6,4 km/h (2 Bft) 96,15 %
18.04.2016 04:54 7,9 C 96 % 1015,5 hPa 0,0 l/m 4,6 km/h (1 Bft) W 265 0 min 0,000 mm 0,0 UV-I 0 W/m 7,3 C 7,9 C 4,8 km/h (1 Bft) 100,00 %
18.04.2016 04:55 7,9 C 96 % 1015,5 hPa 0,0 l/m 4,7 km/h (1 Bft) W 281 0 min 0,000 mm 0,0 UV-I 0 W/m 7,3 C 7,9 C 6,4 km/h (2 Bft) 91,67 %
18.04.2016 04:56 7,9 C 96 % 1015,6 hPa 0,0 l/m 3,8 km/h (1 Bft) W-SW 252 0 min 0,000 mm 0,0 UV-I 0 W/m 7,3 C 7,9 C 6,4 km/h (2 Bft) 100,00 %
18.04.2016 04:57 7,9 C 96 % 1015,6 hPa 0,0 l/m 5,6 km/h (1 Bft) W-SW 248 0 min 0,000 mm 0,0 UV-I 0 W/m 7,3 C 7,9 C 6,4 km/h (2 Bft) 100,00 %
18.04.2016 04:58 7,9 C 96 % 1015,7 hPa 0,0 l/m 5,9 km/h (2 Bft) SW 236 0 min 0,000 mm 0,0 UV-I 0 W/m 7,3 C 7,9 C 8,0 km/h (2 Bft) 97,62 %
18.04.2016 04:59 7,9 C 96 % 1015,7 hPa 0,0 l/m 5,9 km/h (2 Bft) W-SW 244 0 min 0,000 mm 0,0 UV-I 0 W/m 7,3 C 7,9 C 8,0 km/h (2 Bft) 96,43 %
18.04.2016 05:00 7,9 C 96 % 1015,8 hPa 0,0 l/m 6,1 km/h (2 Bft) W-SW 246 0 min 0,000 mm 0,0 UV-I 0 W/m 7,3 C 7,9 C 8,0 km/h (2 Bft) 96,55 %
18.04.2016 05:01 7,8 C 96 % 1015,9 hPa 0,0 l/m 4,0 km/h (1 Bft) W-SW 246 0 min 0,000 mm 0,0 UV-I 0 W/m 7,2 C 7,8 C 4,8 km/h (1 Bft) 100,00 %
18.04.2016 05:02 7,8 C 96 % 1015,9 hPa 0,0 l/m 6,0 km/h (2 Bft) W-SW 254 0 min 0,000 mm 0,0 UV-I 0 W/m 7,2 C 7,8 C 8,0 km/h (2 Bft) 100,00 %
18.04.2016 05:03 7,8 C 96 % 1015,9 hPa 0,0 l/m 4,7 km/h (1 Bft) W 265 0 min 0,000 mm 0,0 UV-I 0 W/m 7,2 C 7,8 C 6,4 km/h (2 Bft) 100,00 %
18.04.2016 05:04 7,8 C 96 % 1015,9 hPa 0,0 l/m 5,0 km/h (1 Bft) W 265 0 min 0,000 mm 0,0 UV-I 0 W/m 7,2 C 7,8 C 6,4 km/h (2 Bft) 96,15 %
18.04.2016 05:05 7,8 C 96 % 1015,9 hPa 0,0 l/m 5,4 km/h (1 Bft) W-SW 243 0 min 0,000 mm 0,0 UV-I 0 W/m 7,2 C 7,8 C 6,4 km/h (2 Bft) 100,00 %
18.04.2016 05:06 7,9 C 96 % 1015,9 hPa 0,0 l/m 4,7 km/h (1 Bft) W-SW 246 0 min 0,000 mm 0,0 UV-I 0 W/m 7,3 C 7,9 C 6,4 km/h (2 Bft) 100,00 %
18.04.2016 05:07 7,9 C 96 % 1015,9 hPa 0,0 l/m 5,7 km/h (1 Bft) W-SW 253 0 min 0,000 mm 0,0 UV-I 0 W/m 7,3 C 7,9 C 9,7 km/h (2 Bft) 100,00 %
18.04.2016 05:08 7,9 C 96 % 1015,8 hPa 0,0 l/m 5,9 km/h (2 Bft) W 259 0 min 0,000 mm 0,0 UV-I 0 W/m 7,3 C 7,9 C 6,4 km/h (2 Bft) 100,00 %
18.04.2016 05:09 7,8 C 96 % 1015,8 hPa 0,0 l/m 5,0 km/h (1 Bft) W-SW 256 0 min 0,000 mm 0,0 UV-I 0 W/m 7,2 C 7,8 C 6,4 km/h (2 Bft) 100,00 %
18.04.2016 05:10 7,8 C 96 % 1015,8 hPa 0,0 l/m 3,6 km/h (1 Bft) W-SW 256 0 min 0,000 mm 0,0 UV-I 0 W/m 7,2 C 7,8 C 4,8 km/h (1 Bft) 100,00 %
18.04.2016 05:11 7,8 C 96 % 1015,6 hPa 0,0 l/m 5,5 km/h (1 Bft) W 262 0 min 0,000 mm 0,0 UV-I 0 W/m 7,2 C 7,8 C 8,0 km/h (2 Bft) 100,00 %
18.04.2016 05:12 7,8 C 96 % 1015,5 hPa 0,0 l/m 4,1 km/h (1 Bft) W 261 0 min 0,000 mm 0,0 UV-I 0 W/m 7,2 C 7,8 C 6,4 km/h (2 Bft) 97,87 %
18.04.2016 05:13 7,8 C 96 % 1015,5 hPa 0,0 l/m 3,0 km/h (1 Bft) W-NW 291 0 min 0,000 mm 0,0 UV-I 0 W/m 7,2 C 7,8 C 4,8 km/h (1 Bft) 97,56 %
18.04.2016 05:14 7,8 C 96 % 1015,4 hPa 0,0 l/m 2,1 km/h (1 Bft) W-NW 291 0 min 0,000 mm 0,0 UV-I 0 W/m 7,2 C 7,8 C 3,2 km/h (1 Bft) 100,00 %
18.04.2016 05:15 7,8 C 96 % 1015,3 hPa 0,0 l/m 3,5 km/h (1 Bft) W-NW 292 0 min 0,000 mm 0,0 UV-I 0 W/m 7,2 C 7,8 C 6,4 km/h (2 Bft) 95,83 %
18.04.2016 05:16 7,8 C 96 % 1015,2 hPa 0,0 l/m 4,7 km/h (1 Bft) W-NW 294 0 min 0,000 mm 0,0 UV-I 0 W/m 7,2 C 7,8 C 6,4 km/h (2 Bft) 100,00 %
18.04.2016 05:17 7,8 C 96 % 1015,2 hPa 0,0 l/m 2,2 km/h (1 Bft) NW 306 0 min 0,000 mm 0,0 UV-I 0 W/m 7,2 C 7,8 C 3,2 km/h (1 Bft) 100,00 %
18.04.2016 05:18 7,8 C 96 % 1015,1 hPa 0,0 l/m 2,8 km/h (1 Bft) NW 304 0 min 0,000 mm 0,0 UV-I 0 W/m 7,2 C 7,8 C 4,8 km/h (1 Bft) 100,00 %
18.04.2016 05:19 7,8 C 96 % 1015,0 hPa 0,0 l/m 0,8 km/h (0 Bft) NW 304 0 min 0,000 mm 0,0 UV-I 0 W/m 7,2 C 7,8 C 1,6 km/h (1 Bft) 100,00 %
18.04.2016 05:20 7,8 C 96 % 1015,0 hPa 0,0 l/m 1,8 km/h (1 Bft) NW 304 0 min 0,000 mm 0,0 UV-I 0 W/m 7,2 C 7,8 C 3,2 km/h (1 Bft) 100,00 %
18.04.2016 05:21 7,8 C 96 % 1015,1 hPa 0,0 l/m 1,5 km/h (1 Bft) NW 304 0 min 0,000 mm 0,0 UV-I 0 W/m 7,2 C 7,8 C 3,2 km/h (1 Bft) 100,00 %
18.04.2016 05:22 7,8 C 96 % 1015,1 hPa 0,0 l/m 3,4 km/h (1 Bft) W 275 0 min 0,000 mm 0,0 UV-I 0 W/m 7,2 C 7,8 C 4,8 km/h (1 Bft) 100,00 %
18.04.2016 05:23 7,8 C 96 % 1015,2 hPa 0,0 l/m 4,7 km/h (1 Bft) W-NW 289 0 min 0,000 mm 0,0 UV-I 0 W/m 7,2 C 7,8 C 6,4 km/h (2 Bft) 100,00 %
18.04.2016 05:24 7,8 C 96 % 1015,2 hPa 0,0 l/m 4,6 km/h (1 Bft) W 270 0 min 0,000 mm 0,0 UV-I 0 W/m 7,2 C 7,8 C 6,4 km/h (2 Bft) 100,00 %
18.04.2016 05:25 7,8 C 96 % 1015,3 hPa 0,0 l/m 4,6 km/h (1 Bft) W 269 0 min 0,000 mm 0,0 UV-I 0 W/m 7,2 C 7,8 C 6,4 km/h (2 Bft) 92,31 %
18.04.2016 05:26 7,8 C 96 % 1015,3 hPa 0,0 l/m 5,0 km/h (1 Bft) W-NW 290 0 min 0,000 mm 0,0 UV-I 0 W/m 7,2 C 7,8 C 9,7 km/h (2 Bft) 100,00 %
18.04.2016 05:27 7,8 C 96 % 1015,2 hPa 0,0 l/m 4,8 km/h (1 Bft) NW 307 0 min 0,000 mm 0,0 UV-I 0 W/m 7,2 C 7,8 C 11,3 km/h (2 Bft) 100,00 %
18.04.2016 05:28 7,8 C 96 % 1015,3 hPa 0,0 l/m 3,9 km/h (1 Bft) W 275 0 min 0,000 mm 0,0 UV-I 0 W/m 7,2 C 7,8 C 4,8 km/h (1 Bft) 100,00 %
18.04.2016 05:29 7,8 C 96 % 1015,3 hPa 0,0 l/m 4,4 km/h (1 Bft) W 268 0 min 0,000 mm 0,0 UV-I 0 W/m 7,2 C 7,8 C 6,4 km/h (2 Bft) 100,00 %
18.04.2016 05:30 7,8 C 96 % 1015,3 hPa 0,0 l/m 4,8 km/h (1 Bft) W 266 0 min 0,000 mm 0,0 UV-I 0 W/m 7,2 C 7,8 C 6,4 km/h (2 Bft) 100,00 %
18.04.2016 05:31 7,7 C 96 % 1015,3 hPa 0,2 l/m 5,0 km/h (1 Bft) SW 233 0 min 0,000 mm 0,0 UV-I 0 W/m 7,1 C 7,7 C 6,4 km/h (2 Bft) 95,65 %
18.04.2016 05:32 7,7 C 96 % 1015,3 hPa 0,0 l/m 4,8 km/h (1 Bft) W-SW 257 0 min 0,000 mm 0,0 UV-I 0 W/m 7,1 C 7,7 C 6,4 km/h (2 Bft) 96,30 %
18.04.2016 05:33 7,7 C 96 % 1015,3 hPa 0,0 l/m 5,8 km/h (2 Bft) W 264 0 min 0,000 mm 0,0 UV-I 0 W/m 7,1 C 7,7 C 6,4 km/h (2 Bft) 94,12 %
18.04.2016 05:34 7,8 C 96 % 1015,2 hPa 0,0 l/m 6,0 km/h (2 Bft) W 265 0 min 0,000 mm 0,0 UV-I 0 W/m 7,2 C 7,8 C 8,0 km/h (2 Bft) 96,30 %
18.04.2016 05:35 7,8 C 96 % 1015,2 hPa 0,0 l/m 5,8 km/h (2 Bft) W 263 0 min 0,000 mm 0,0 UV-I 0 W/m 7,2 C 7,8 C 11,3 km/h (2 Bft) 100,00 %
18.04.2016 05:36 7,7 C 96 % 1015,2 hPa 0,0 l/m 4,8 km/h (1 Bft) W 259 0 min 0,000 mm 0,0 UV-I 0 W/m 7,1 C 7,7 C 6,4 km/h (2 Bft) 100,00 %
18.04.2016 05:37 7,7 C 96 % 1015,2 hPa 0,0 l/m 4,6 km/h (1 Bft) W-SW 258 0 min 0,000 mm 0,0 UV-I 0 W/m 7,1 C 7,7 C 6,4 km/h (2 Bft) 100,00 %
18.04.2016 05:38 7,7 C 96 % 1015,2 hPa 0,0 l/m 4,6 km/h (1 Bft) W 269 0 min 0,000 mm 0,0 UV-I 0 W/m 7,1 C 7,7 C 6,4 km/h (2 Bft) 100,00 %
18.04.2016 05:39 7,7 C 96 % 1015,2 hPa 0,0 l/m 6,8 km/h (2 Bft) W 265 0 min 0,000 mm 0,0 UV-I 0 W/m 7,1 C 7,4 C 9,7 km/h (2 Bft) 100,00 %
18.04.2016 05:40 7,7 C 96 % 1015,2 hPa 0,0 l/m 6,6 km/h (2 Bft) W 270 0 min 0,000 mm 0,0 UV-I 0 W/m 7,1 C 7,6 C 11,3 km/h (2 Bft) 100,00 %
18.04.2016 05:41 7,7 C 96 % 1015,2 hPa 0,0 l/m 6,5 km/h (2 Bft) W 259 0 min 0,000 mm 0,0 UV-I 0 W/m 7,1 C 7,6 C 9,7 km/h (2 Bft) 100,00 %
18.04.2016 05:42 7,7 C 96 % 1015,2 hPa 0,0 l/m 5,0 km/h (1 Bft) W 276 0 min 0,000 mm 0,0 UV-I 0 W/m 7,1 C 7,7 C 9,7 km/h (2 Bft) 95,65 %
18.04.2016 05:43 7,7 C 96 % 1015,2 hPa 0,0 l/m 3,1 km/h (1 Bft) W 276 0 min 0,000 mm 0,0 UV-I 0 W/m 7,1 C 7,7 C 4,8 km/h (1 Bft) 100,00 %
18.04.2016 05:44 7,7 C 96 % 1015,2 hPa 0,0 l/m 4,2 km/h (1 Bft) W-NW 288 0 min 0,000 mm 0,0 UV-I 0 W/m 7,1 C 7,7 C 6,4 km/h (2 Bft) 100,00 %
18.04.2016 05:45 7,7 C 96 % 1015,2 hPa 0,0 l/m 2,9 km/h (1 Bft) W-NW 298 0 min 0,000 mm 0,0 UV-I 0 W/m 7,1 C 7,7 C 4,8 km/h (1 Bft) 100,00 %
18.04.2016 05:46 7,7 C 96 % 1015,2 hPa 0,0 l/m 3,7 km/h (1 Bft) W 275 0 min 0,000 mm 0,0 UV-I 0 W/m 7,1 C 7,7 C 4,8 km/h (1 Bft) 100,00 %
18.04.2016 05:47 7,7 C 96 % 1015,1 hPa 0,0 l/m 3,4 km/h (1 Bft) W 261 0 min 0,000 mm 0,0 UV-I 0 W/m 7,1 C 7,7 C 4,8 km/h (1 Bft) 100,00 %
18.04.2016 05:48 7,7 C 96 % 1015,2 hPa 0,0 l/m 5,6 km/h (1 Bft) W 269 0 min 0,000 mm 0,0 UV-I 0 W/m 7,1 C 7,7 C 11,3 km/h (2 Bft) 100,00 %
18.04.2016 05:49 7,7 C 96 % 1015,2 hPa 0,0 l/m 4,2 km/h (1 Bft) W-NW 286 0 min 0,000 mm 0,0 UV-I 0 W/m 7,1 C 7,7 C 9,7 km/h (2 Bft) 100,00 %
18.04.2016 05:50 7,7 C 96 % 1015,2 hPa 0,0 l/m 3,8 km/h (1 Bft) W-SW 256 0 min 0,000 mm 0,0 UV-I 0 W/m 7,1 C 7,7 C 4,8 km/h (1 Bft) 96,15 %
18.04.2016 05:51 7,7 C 96 % 1015,2 hPa 0,0 l/m 3,8 km/h (1 Bft) W-SW 256 0 min 0,000 mm 0,0 UV-I 0 W/m 7,1 C 7,7 C 4,8 km/h (1 Bft) 100,00 %
18.04.2016 05:52 7,7 C 96 % 1015,3 hPa 0,0 l/m 4,5 km/h (1 Bft) W 259 0 min 0,000 mm 0,0 UV-I 0 W/m 7,1 C 7,7 C 6,4 km/h (2 Bft) 100,00 %
18.04.2016 05:53 7,7 C 96 % 1015,3 hPa 0,0 l/m 5,1 km/h (1 Bft) W-SW 242 0 min 0,000 mm 0,0 UV-I 0 W/m 7,1 C 7,7 C 8,0 km/h (2 Bft) 100,00 %
18.04.2016 05:54 7,7 C 96 % 1015,4 hPa 0,0 l/m 5,2 km/h (1 Bft) W-SW 256 0 min 0,000 mm 0,0 UV-I 0 W/m 7,1 C 7,7 C 6,4 km/h (2 Bft) 100,00 %
18.04.2016 05:55 7,7 C 96 % 1015,3 hPa 0,0 l/m 5,0 km/h (1 Bft) W-NW 288 0 min 0,000 mm 0,0 UV-I 0 W/m 7,1 C 7,7 C 6,4 km/h (2 Bft) 100,00 %
18.04.2016 05:56 7,7 C 96 % 1015,4 hPa 0,0 l/m 5,0 km/h (1 Bft) W 261 0 min 0,000 mm 0,0 UV-I 0 W/m 7,1 C 7,7 C 6,4 km/h (2 Bft) 100,00 %
18.04.2016 05:57 7,7 C 96 % 1015,3 hPa 0,0 l/m 6,0 km/h (2 Bft) W 262 0 min 0,000 mm 0,0 UV-I 0 W/m 7,1 C 7,7 C 9,7 km/h (2 Bft) 100,00 %
18.04.2016 05:58 7,7 C 96 % 1015,3 hPa 0,0 l/m 5,3 km/h (1 Bft) W-SW 252 0 min 0,000 mm 0,0 UV-I 0 W/m 7,1 C 7,7 C 6,4 km/h (2 Bft) 100,00 %
18.04.2016 05:59 7,7 C 96 % 1015,4 hPa 0,0 l/m 5,5 km/h (1 Bft) W-SW 251 0 min 0,000 mm 0,0 UV-I 0 W/m 7,1 C 7,7 C 6,4 km/h (2 Bft) 100,00 %
18.04.2016 06:00 7,7 C 96 % 1015,4 hPa 0,0 l/m 4,8 km/h (1 Bft) W-SW 255 0 min 0,000 mm 0,0 UV-I 0 W/m 7,1 C 7,7 C 6,4 km/h (2 Bft) 100,00 %
18.04.2016 06:01 7,7 C 96 % 1015,4 hPa 0,0 l/m 4,3 km/h (1 Bft) W-SW 245 0 min 0,000 mm 0,0 UV-I 0 W/m 7,1 C 7,7 C 4,8 km/h (1 Bft) 100,00 %
18.04.2016 06:02 7,7 C 96 % 1015,4 hPa 0,0 l/m 5,4 km/h (1 Bft) W-SW 250 0 min 0,000 mm 0,0 UV-I 0 W/m 7,1 C 7,7 C 6,4 km/h (2 Bft) 100,00 %
18.04.2016 06:03 7,7 C 96 % 1015,3 hPa 0,0 l/m 4,3 km/h (1 Bft) W-SW 242 0 min 0,000 mm 0,0 UV-I 0 W/m 7,1 C 7,7 C 8,0 km/h (2 Bft) 100,00 %
18.04.2016 06:04 7,7 C 96 % 1015,4 hPa 0,0 l/m 4,3 km/h (1 Bft) W-SW 240 0 min 0,000 mm 0,0 UV-I 0 W/m 7,1 C 7,7 C 6,4 km/h (2 Bft) 100,00 %
18.04.2016 06:05 7,7 C 96 % 1015,4 hPa 0,0 l/m 3,7 km/h (1 Bft) W-SW 242 0 min 0,000 mm 0,0 UV-I 0 W/m 7,1 C 7,7 C 4,8 km/h (1 Bft) 100,00 %
18.04.2016 06:06 7,7 C 96 % 1015,4 hPa 0,0 l/m 4,6 km/h (1 Bft) W-SW 238 0 min 0,000 mm 0,0 UV-I 0 W/m 7,1 C 7,7 C 6,4 km/h (2 Bft) 95,83 %
18.04.2016 06:07 7,7 C 95 % 1015,4 hPa 0,0 l/m 6,1 km/h (2 Bft) W-SW 239 0 min 0,000 mm 0,0 UV-I 0 W/m 7,0 C 7,7 C 9,7 km/h (2 Bft) 100,00 %
18.04.2016 06:08 7,7 C 95 % 1015,4 hPa 0,0 l/m 4,1 km/h (1 Bft) W-SW 246 0 min 0,000 mm 0,0 UV-I 0 W/m 7,0 C 7,7 C 4,8 km/h (1 Bft) 100,00 %
18.04.2016 06:09 7,7 C 95 % 1015,4 hPa 0,0 l/m 3,2 km/h (1 Bft) W-SW 246 0 min 0,000 mm 0,0 UV-I 0 W/m 7,0 C 7,7 C 4,8 km/h (1 Bft) 100,00 %
18.04.2016 06:10 7,7 C 95 % 1015,4 hPa 0,0 l/m 4,1 km/h (1 Bft) W-SW 246 0 min 0,000 mm 0,0 UV-I 0 W/m 7,0 C 7,7 C 4,8 km/h (1 Bft) 100,00 %
18.04.2016 06:11 7,7 C 96 % 1015,5 hPa 0,0 l/m 4,2 km/h (1 Bft) W-SW 242 0 min 0,000 mm 0,0 UV-I 0 W/m 7,1 C 7,7 C 4,8 km/h (1 Bft) 100,00 %
18.04.2016 06:12 7,7 C 96 % 1015,5 hPa 0,0 l/m 5,6 km/h (1 Bft) W-SW 254 0 min 0,000 mm 0,0 UV-I 0 W/m 7,1 C 7,7 C 8,0 km/h (2 Bft) 100,00 %
18.04.2016 06:13 7,7 C 95 % 1015,5 hPa 0,0 l/m 5,1 km/h (1 Bft) W-SW 251 0 min 0,000 mm 0,0 UV-I 0 W/m 7,0 C 7,7 C 6,4 km/h (2 Bft) 92,31 %
18.04.2016 06:14 7,7 C 96 % 1015,5 hPa 0,0 l/m 4,8 km/h (1 Bft) W 271 0 min 0,000 mm 0,0 UV-I 0 W/m 7,1 C 7,7 C 6,4 km/h (2 Bft) 100,00 %
18.04.2016 06:15 7,7 C 95 % 1015,5 hPa 0,0 l/m 5,3 km/h (1 Bft) W-SW 244 0 min 0,000 mm 0,0 UV-I 0 W/m 7,0 C 7,7 C 8,0 km/h (2 Bft) 100,00 %
18.04.2016 06:16 7,7 C 96 % 1015,6 hPa 0,0 l/m 4,8 km/h (1 Bft) W-SW 247 0 min 0,000 mm 0,0 UV-I 0 W/m 7,1 C 7,7 C 6,4 km/h (2 Bft) 91,30 %
18.04.2016 06:17 7,7 C 96 % 1015,6 hPa 0,0 l/m 5,3 km/h (1 Bft) SW 235 0 min 0,000 mm 0,0 UV-I 0 W/m 7,1 C 7,7 C 9,7 km/h (2 Bft) 100,00 %
18.04.2016 06:18 7,7 C 95 % 1015,6 hPa 0,0 l/m 5,9 km/h (2 Bft) W 273 0 min 0,000 mm 0,0 UV-I 0 W/m 7,0 C 7,7 C 9,7 km/h (2 Bft) 100,00 %
18.04.2016 06:19 7,7 C 95 % 1015,6 hPa 0,0 l/m 6,0 km/h (2 Bft) W-SW 238 0 min 0,000 mm 0,0 UV-I 0 W/m 7,0 C 7,7 C 8,0 km/h (2 Bft) 100,00 %
18.04.2016 06:20 7,7 C 95 % 1015,6 hPa 0,0 l/m 5,8 km/h (2 Bft) W 262 0 min 0,000 mm 0,0 UV-I 0 W/m 7,0 C 7,7 C 9,7 km/h (2 Bft) 100,00 %
18.04.2016 06:21 7,7 C 95 % 1015,6 hPa 0,0 l/m 7,6 km/h (2 Bft) W 259 0 min 0,000 mm 0,0 UV-I 0 W/m 7,0 C 6,7 C 11,3 km/h (2 Bft) 100,00 %
18.04.2016 06:22 7,7 C 96 % 1015,6 hPa 0,2 l/m 6,9 km/h (2 Bft) W-SW 247 0 min 0,000 mm 0,0 UV-I 0 W/m 7,1 C 7,3 C 8,0 km/h (2 Bft) 95,65 %
18.04.2016 06:23 7,7 C 95 % 1015,6 hPa 0,0 l/m 6,4 km/h (2 Bft) W-SW 257 0 min 0,000 mm 0,0 UV-I 0 W/m 7,0 C 7,7 C 8,0 km/h (2 Bft) 100,00 %
18.04.2016 06:24 7,7 C 95 % 1015,6 hPa 0,0 l/m 6,8 km/h (2 Bft) W 259 0 min 0,000 mm 0,0 UV-I 0 W/m 7,0 C 7,4 C 11,3 km/h (2 Bft) 100,00 %
18.04.2016 06:25 7,7 C 95 % 1015,5 hPa 0,0 l/m 8,9 km/h (2 Bft) W-SW 256 0 min 0,000 mm 0,0 UV-I 0 W/m 7,0 C 5,8 C 12,9 km/h (3 Bft) 95,83 %
18.04.2016 06:26 7,7 C 95 % 1015,5 hPa 0,0 l/m 6,8 km/h (2 Bft) W-SW 247 0 min 0,000 mm 0,0 UV-I 5 W/m 7,0 C 7,4 C 11,3 km/h (2 Bft) 100,00 %
18.04.2016 06:27 7,7 C 95 % 1015,4 hPa 0,0 l/m 8,0 km/h (2 Bft) W-SW 251 0 min 0,000 mm 0,0 UV-I 5 W/m 7,0 C 6,4 C 11,3 km/h (2 Bft) 96,30 %
18.04.2016 06:28 7,7 C 95 % 1015,4 hPa 0,0 l/m 8,6 km/h (2 Bft) W-SW 252 0 min 0,000 mm 0,0 UV-I 6 W/m 7,0 C 6,0 C 11,3 km/h (2 Bft) 95,65 %
18.04.2016 06:29 7,7 C 95 % 1015,3 hPa 0,0 l/m 3,1 km/h (1 Bft) W-SW 252 0 min 0,000 mm 0,0 UV-I 7 W/m 7,0 C 7,7 C 8,0 km/h (2 Bft) 100,00 %
18.04.2016 06:30 7,7 C 95 % 1015,3 hPa 0,0 l/m 4,2 km/h (1 Bft) W 263 0 min 0,000 mm 0,0 UV-I 7 W/m 7,0 C 7,7 C 6,4 km/h (2 Bft) 92,31 %
18.04.2016 06:31 7,7 C 95 % 1015,3 hPa 0,0 l/m 5,3 km/h (1 Bft) W-SW 250 0 min 0,000 mm 0,0 UV-I 9 W/m 7,0 C 7,7 C 8,0 km/h (2 Bft) 100,00 %
18.04.2016 06:32 7,7 C 95 % 1015,4 hPa 0,0 l/m 5,5 km/h (1 Bft) W-SW 258 0 min 0,000 mm 0,0 UV-I 9 W/m 7,0 C 7,7 C 8,0 km/h (2 Bft) 93,33 %
18.04.2016 06:33 7,7 C 95 % 1015,4 hPa 0,0 l/m 5,4 km/h (1 Bft) W 279 0 min 0,000 mm 0,0 UV-I 9 W/m 7,0 C 7,7 C 6,4 km/h (2 Bft) 100,00 %
18.04.2016 06:34 7,7 C 95 % 1015,4 hPa 0,0 l/m 4,5 km/h (1 Bft) W 262 0 min 0,000 mm 0,0 UV-I 11 W/m 7,0 C 7,7 C 4,8 km/h (1 Bft) 88,89 %
18.04.2016 06:35 7,7 C 95 % 1015,4 hPa 0,0 l/m 5,2 km/h (1 Bft) W-SW 254 0 min 0,000 mm 0,0 UV-I 13 W/m 7,0 C 7,7 C 6,4 km/h (2 Bft) 96,15 %
18.04.2016 06:36 7,7 C 95 % 1015,4 hPa 0,0 l/m 4,8 km/h (1 Bft) W-SW 246 0 min 0,000 mm 0,0 UV-I 16 W/m 7,0 C 7,7 C 6,4 km/h (2 Bft) 100,00 %
18.04.2016 06:37 7,7 C 95 % 1015,4 hPa 0,0 l/m 5,6 km/h (1 Bft) W 259 0 min 0,000 mm 0,0 UV-I 18 W/m 7,0 C 7,7 C 9,7 km/h (2 Bft) 96,15 %
18.04.2016 06:38 7,7 C 95 % 1015,4 hPa 0,0 l/m 4,7 km/h (1 Bft) W 279 0 min 0,000 mm 0,0 UV-I 19 W/m 7,0 C 7,7 C 6,4 km/h (2 Bft) 95,83 %
18.04.2016 06:39 7,7 C 95 % 1015,4 hPa 0,0 l/m 3,3 km/h (1 Bft) W-SW 251 0 min 0,000 mm 0,0 UV-I 19 W/m 7,0 C 7,7 C 4,8 km/h (1 Bft) 96,15 %
18.04.2016 06:40 7,7 C 96 % 1015,5 hPa 0,0 l/m 3,5 km/h (1 Bft) W-SW 250 0 min 0,000 mm 0,0 UV-I 19 W/m 7,1 C 7,7 C 4,8 km/h (1 Bft) 100,00 %
18.04.2016 06:41 7,7 C 96 % 1015,5 hPa 0,0 l/m 5,0 km/h (1 Bft) W-SW 241 0 min 0,000 mm 0,0 UV-I 18 W/m 7,1 C 7,7 C 9,7 km/h (2 Bft) 95,65 %
18.04.2016 06:42 7,7 C 96 % 1015,6 hPa 0,0 l/m 6,4 km/h (2 Bft) SW 233 0 min 0,000 mm 0,0 UV-I 15 W/m 7,1 C 7,7 C 8,0 km/h (2 Bft) 100,00 %
18.04.2016 06:43 7,7 C 96 % 1015,7 hPa 0,0 l/m 5,6 km/h (1 Bft) SW 232 0 min 0,000 mm 0,0 UV-I 12 W/m 7,1 C 7,7 C 6,4 km/h (2 Bft) 96,15 %
18.04.2016 06:44 7,7 C 96 % 1015,7 hPa 0,0 l/m 5,5 km/h (1 Bft) SW 223 0 min 0,000 mm 0,0 UV-I 11 W/m 7,1 C 7,7 C 8,0 km/h (2 Bft) 93,33 %
18.04.2016 06:45 7,7 C 96 % 1015,7 hPa 0,0 l/m 6,7 km/h (2 Bft) SW 235 0 min 0,000 mm 0,0 UV-I 9 W/m 7,1 C 7,5 C 11,3 km/h (2 Bft) 96,55 %
18.04.2016 06:46 7,7 C 96 % 1015,7 hPa 0,0 l/m 4,1 km/h (1 Bft) SW 235 0 min 0,000 mm 0,0 UV-I 7 W/m 7,1 C 7,7 C 6,4 km/h (2 Bft) 100,00 %
18.04.2016 06:47 7,7 C 96 % 1015,7 hPa 0,0 l/m 5,8 km/h (2 Bft) W-SW 238 0 min 0,000 mm 0,0 UV-I 8 W/m 7,1 C 7,7 C 8,0 km/h (2 Bft) 96,15 %
18.04.2016 06:48 7,7 C 96 % 1015,7 hPa 0,0 l/m 4,2 km/h (1 Bft) SW 232 0 min 0,000 mm 0,0 UV-I 9 W/m 7,1 C 7,7 C 6,4 km/h (2 Bft) 96,30 %
18.04.2016 06:49 7,7 C 96 % 1015,7 hPa 0,0 l/m 3,6 km/h (1 Bft) SW 232 0 min 0,000 mm 0,0 UV-I 11 W/m 7,1 C 7,7 C 4,8 km/h (1 Bft) 100,00 %
18.04.2016 06:50 7,7 C 96 % 1015,7 hPa 0,0 l/m 7,6 km/h (2 Bft) W-SW 242 0 min 0,000 mm 0,0 UV-I 9 W/m 7,1 C 6,7 C 11,3 km/h (2 Bft) 93,33 %
18.04.2016 06:51 7,7 C 96 % 1015,7 hPa 0,0 l/m 6,2 km/h (2 Bft) W-SW 250 0 min 0,000 mm 0,0 UV-I 9 W/m 7,1 C 7,7 C 8,0 km/h (2 Bft) 100,00 %
18.04.2016 06:52 7,7 C 96 % 1015,7 hPa 0,0 l/m 4,8 km/h (1 Bft) W 261 0 min 0,000 mm 0,0 UV-I 9 W/m 7,1 C 7,7 C 6,4 km/h (2 Bft) 97,37 %
18.04.2016 06:53 7,7 C 96 % 1015,7 hPa 0,0 l/m 3,7 km/h (1 Bft) W 261 0 min 0,000 mm 0,0 UV-I 10 W/m 7,1 C 7,7 C 4,8 km/h (1 Bft) 100,00 %
18.04.2016 06:54 7,7 C 96 % 1015,6 hPa 0,0 l/m 3,8 km/h (1 Bft) W-SW 250 0 min 0,000 mm 0,0 UV-I 12 W/m 7,1 C 7,7 C 6,4 km/h (2 Bft) 95,83 %
18.04.2016 06:55 7,7 C 96 % 1015,6 hPa 0,0 l/m 3,4 km/h (1 Bft) W-SW 252 0 min 0,000 mm 0,0 UV-I 14 W/m 7,1 C 7,7 C 4,8 km/h (1 Bft) 95,83 %
18.04.2016 06:56 7,7 C 96 % 1015,6 hPa 0,0 l/m 3,3 km/h (1 Bft) W-SW 252 0 min 0,000 mm 0,0 UV-I 17 W/m 7,1 C 7,7 C 4,8 km/h (1 Bft) 100,00 %
18.04.2016 06:57 7,6 C 96 % 1015,6 hPa 0,0 l/m 3,1 km/h (1 Bft) W-SW 257 0 min 0,000 mm 0,0 UV-I 18 W/m 7,0 C 7,6 C 4,8 km/h (1 Bft) 96,30 %
18.04.2016 06:58 7,6 C 96 % 1015,7 hPa 0,0 l/m 4,1 km/h (1 Bft) SW 215 0 min 0,000 mm 0,0 UV-I 18 W/m 7,0 C 7,6 C 6,4 km/h (2 Bft) 92,86 %
18.04.2016 06:59 7,7 C 96 % 1015,8 hPa 0,0 l/m 3,3 km/h (1 Bft) SW 232 0 min 0,000 mm 0,0 UV-I 17 W/m 7,1 C 7,7 C 4,8 km/h (1 Bft) 100,00 %
18.04.2016 07:00 7,7 C 96 % 1015,8 hPa 0,0 l/m 5,3 km/h (1 Bft) SW 218 0 min 0,000 mm 0,0 UV-I 14 W/m 7,1 C 7,7 C 8,0 km/h (2 Bft) 100,00 %
18.04.2016 07:01 7,7 C 96 % 1015,8 hPa 0,0 l/m 3,8 km/h (1 Bft) S-SW 213 0 min 0,000 mm 0,0 UV-I 14 W/m 7,1 C 7,7 C 4,8 km/h (1 Bft) 95,83 %
18.04.2016 07:02 7,7 C 96 % 1015,8 hPa 0,0 l/m 4,1 km/h (1 Bft) S-SW 202 0 min 0,000 mm 0,0 UV-I 15 W/m 7,1 C 7,7 C 6,4 km/h (2 Bft) 96,15 %
18.04.2016 07:03 7,7 C 96 % 1015,9 hPa 0,0 l/m 5,1 km/h (1 Bft) S-SW 205 0 min 0,000 mm 0,0 UV-I 16 W/m 7,1 C 7,7 C 6,4 km/h (2 Bft) 100,00 %
18.04.2016 07:04 7,7 C 96 % 1015,9 hPa 0,0 l/m 5,3 km/h (1 Bft) S-SW 202 0 min 0,000 mm 0,0 UV-I 18 W/m 7,1 C 7,7 C 6,4 km/h (2 Bft) 100,00 %
18.04.2016 07:05 7,7 C 96 % 1015,9 hPa 0,2 l/m 3,8 km/h (1 Bft) S-SW 203 0 min 0,000 mm 0,0 UV-I 18 W/m 7,1 C 7,7 C 6,4 km/h (2 Bft) 100,00 %
18.04.2016 07:06 7,7 C 96 % 1015,9 hPa 0,0 l/m 5,6 km/h (1 Bft) S-SO 156 0 min 0,000 mm 0,0 UV-I 18 W/m 7,1 C 7,7 C 9,7 km/h (2 Bft) 100,00 %
18.04.2016 07:07 7,7 C 96 % 1015,9 hPa 0,0 l/m 5,6 km/h (1 Bft) S 190 0 min 0,000 mm 0,0 UV-I 18 W/m 7,1 C 7,7 C 9,7 km/h (2 Bft) 100,00 %
18.04.2016 07:08 7,7 C 96 % 1015,9 hPa 0,0 l/m 7,7 km/h (2 Bft) S-SW 208 0 min 0,000 mm 0,0 UV-I 18 W/m 7,1 C 6,7 C 9,7 km/h (2 Bft) 100,00 %
18.04.2016 07:09 7,7 C 96 % 1015,9 hPa 0,0 l/m 6,0 km/h (2 Bft) S-SW 209 0 min 0,000 mm 0,0 UV-I 17 W/m 7,1 C 7,7 C 8,0 km/h (2 Bft) 100,00 %
18.04.2016 07:10 7,7 C 96 % 1016,0 hPa 0,0 l/m 6,3 km/h (2 Bft) SW 215 0 min 0,000 mm 0,0 UV-I 16 W/m 7,1 C 7,7 C 8,0 km/h (2 Bft) 95,65 %
18.04.2016 07:11 7,7 C 96 % 1016,0 hPa 0,0 l/m 6,5 km/h (2 Bft) S-SW 205 0 min 0,000 mm 0,0 UV-I 14 W/m 7,1 C 7,6 C 8,0 km/h (2 Bft) 100,00 %
18.04.2016 07:12 7,7 C 96 % 1016,1 hPa 0,0 l/m 5,8 km/h (2 Bft) S-SW 202 0 min 0,000 mm 0,0 UV-I 14 W/m 7,1 C 7,7 C 6,4 km/h (2 Bft) 100,00 %
18.04.2016 07:13 7,7 C 96 % 1016,1 hPa 0,0 l/m 5,6 km/h (1 Bft) S 189 0 min 0,000 mm 0,0 UV-I 14 W/m 7,1 C 7,7 C 9,7 km/h (2 Bft) 100,00 %
18.04.2016 07:14 7,7 C 96 % 1016,1 hPa 0,0 l/m 5,6 km/h (1 Bft) S-SW 199 0 min 0,000 mm 0,0 UV-I 14 W/m 7,1 C 7,7 C 8,0 km/h (2 Bft) 100,00 %
18.04.2016 07:15 7,7 C 96 % 1016,1 hPa 0,0 l/m 7,2 km/h (2 Bft) SW 219 0 min 0,000 mm 0,0 UV-I 14 W/m 7,1 C 7,1 C 9,7 km/h (2 Bft) 100,00 %
18.04.2016 07:16 7,7 C 96 % 1016,1 hPa 0,0 l/m 5,4 km/h (1 Bft) S 186 0 min 0,000 mm 0,0 UV-I 15 W/m 7,1 C 7,7 C 6,4 km/h (2 Bft) 100,00 %
18.04.2016 07:17 7,7 C 96 % 1016,1 hPa 0,0 l/m 6,1 km/h (2 Bft) S 183 0 min 0,000 mm 0,0 UV-I 16 W/m 7,1 C 7,7 C 8,0 km/h (2 Bft) 96,15 %
18.04.2016 07:18 7,7 C 96 % 1016,1 hPa 0,0 l/m 4,1 km/h (1 Bft) S-SW 196 0 min 0,000 mm 0,0 UV-I 16 W/m 7,1 C 7,7 C 6,4 km/h (2 Bft) 100,00 %
18.04.2016 07:19 7,7 C 96 % 1016,2 hPa 0,0 l/m 6,5 km/h (2 Bft) S 188 0 min 0,000 mm 0,0 UV-I 18 W/m 7,1 C 7,6 C 9,7 km/h (2 Bft) 100,00 %
18.04.2016 07:20 7,7 C 96 % 1016,2 hPa 0,0 l/m 5,0 km/h (1 Bft) S-SW 198 0 min 0,000 mm 0,0 UV-I 19 W/m 7,1 C 7,7 C 6,4 km/h (2 Bft) 100,00 %
18.04.2016 07:21 7,7 C 96 % 1016,2 hPa 0,0 l/m 5,0 km/h (1 Bft) S-SW 205 0 min 0,000 mm 0,0 UV-I 22 W/m 7,1 C 7,7 C 6,4 km/h (2 Bft) 100,00 %
18.04.2016 07:22 7,7 C 96 % 1016,2 hPa 0,2 l/m 4,5 km/h (1 Bft) S-SW 198 0 min 0,000 mm 0,0 UV-I 24 W/m 7,1 C 7,7 C 8,0 km/h (2 Bft) 100,00 %
18.04.2016 07:23 7,7 C 96 % 1016,2 hPa 0,0 l/m 4,7 km/h (1 Bft) S-SW 195 0 min 0,000 mm 0,0 UV-I 25 W/m 7,1 C 7,7 C 6,4 km/h (2 Bft) 100,00 %
18.04.2016 07:24 7,7 C 96 % 1016,3 hPa 0,0 l/m 4,8 km/h (1 Bft) SW 219 0 min 0,000 mm 0,0 UV-I 25 W/m 7,1 C 7,7 C 6,4 km/h (2 Bft) 96,30 %
18.04.2016 07:25 7,7 C 96 % 1016,3 hPa 0,0 l/m 4,7 km/h (1 Bft) S-SW 199 0 min 0,000 mm 0,0 UV-I 23 W/m 7,1 C 7,7 C 8,0 km/h (2 Bft) 100,00 %
18.04.2016 07:26 7,7 C 96 % 1016,3 hPa 0,0 l/m 7,7 km/h (2 Bft) S 177 0 min 0,000 mm 0,0 UV-I 21 W/m 7,1 C 6,7 C 11,3 km/h (2 Bft) 100,00 %
18.04.2016 07:27 7,7 C 96 % 1016,3 hPa 0,0 l/m 4,4 km/h (1 Bft) S 186 0 min 0,000 mm 0,0 UV-I 21 W/m 7,1 C 7,7 C 6,4 km/h (2 Bft) 96,15 %
18.04.2016 07:28 7,7 C 96 % 1016,2 hPa 0,0 l/m 5,7 km/h (1 Bft) S 177 0 min 0,000 mm 0,0 UV-I 21 W/m 7,1 C 7,7 C 8,0 km/h (2 Bft) 100,00 %
18.04.2016 07:29 7,7 C 96 % 1016,2 hPa 0,0 l/m 6,6 km/h (2 Bft) SW 225 0 min 0,000 mm 0,0 UV-I 23 W/m 7,1 C 7,6 C 8,0 km/h (2 Bft) 100,00 %
18.04.2016 07:30 7,7 C 96 % 1016,2 hPa 0,0 l/m 5,6 km/h (1 Bft) S-SW 197 0 min 0,000 mm 0,0 UV-I 25 W/m 7,1 C 7,7 C 8,0 km/h (2 Bft) 100,00 %
18.04.2016 07:31 7,7 C 96 % 1016,3 hPa 0,0 l/m 4,7 km/h (1 Bft) S-SW 211 0 min 0,000 mm 0,0 UV-I 26 W/m 7,1 C 7,7 C 8,0 km/h (2 Bft) 100,00 %
18.04.2016 07:32 7,7 C 96 % 1016,3 hPa 0,0 l/m 4,7 km/h (1 Bft) S 182 0 min 0,000 mm 0,0 UV-I 26 W/m 7,1 C 7,7 C 6,4 km/h (2 Bft) 100,00 %
18.04.2016 07:33 7,7 C 96 % 1016,4 hPa 0,2 l/m 3,7 km/h (1 Bft) S-SW 213 0 min 0,000 mm 0,0 UV-I 26 W/m 7,1 C 7,7 C 4,8 km/h (1 Bft) 100,00 %
18.04.2016 07:34 7,7 C 96 % 1016,4 hPa 0,0 l/m 4,3 km/h (1 Bft) S-SW 200 0 min 0,000 mm 0,0 UV-I 26 W/m 7,1 C 7,7 C 6,4 km/h (2 Bft) 100,00 %
18.04.2016 07:35 7,7 C 96 % 1016,5 hPa 0,0 l/m 3,8 km/h (1 Bft) S-SW 198 0 min 0,000 mm 0,0 UV-I 26 W/m 7,1 C 7,7 C 6,4 km/h (2 Bft) 100,00 %
18.04.2016 07:36 7,7 C 96 % 1016,5 hPa 0,0 l/m 4,2 km/h (1 Bft) W-SW 240 0 min 0,000 mm 0,0 UV-I 26 W/m 7,1 C 7,7 C 4,8 km/h (1 Bft) 96,55 %
18.04.2016 07:37 7,7 C 96 % 1016,6 hPa 0,0 l/m 2,7 km/h (1 Bft) S-SW 199 0 min 0,000 mm 0,0 UV-I 28 W/m 7,1 C 7,7 C 4,8 km/h (1 Bft) 100,00 %
18.04.2016 07:38 7,7 C 96 % 1016,5 hPa 0,0 l/m 6,8 km/h (2 Bft) S-SW 212 0 min 0,000 mm 0,0 UV-I 28 W/m 7,1 C 7,4 C 9,7 km/h (2 Bft) 100,00 %
18.04.2016 07:39 7,7 C 96 % 1016,5 hPa 0,0 l/m 6,5 km/h (2 Bft) SW 219 0 min 0,000 mm 0,0 UV-I 29 W/m 7,1 C 7,6 C 9,7 km/h (2 Bft) 100,00 %
18.04.2016 07:40 7,7 C 96 % 1016,5 hPa 0,0 l/m 5,5 km/h (1 Bft) W-SW 244 0 min 0,000 mm 0,0 UV-I 30 W/m 7,1 C 7,7 C 8,0 km/h (2 Bft) 100,00 %
18.04.2016 07:41 7,7 C 96 % 1016,5 hPa 0,0 l/m 4,9 km/h (1 Bft) S 178 0 min 0,000 mm 0,0 UV-I 30 W/m 7,1 C 7,7 C 8,0 km/h (2 Bft) 100,00 %
18.04.2016 07:42 7,7 C 96 % 1016,5 hPa 0,0 l/m 7,3 km/h (2 Bft) SW 227 0 min 0,000 mm 0,0 UV-I 30 W/m 7,1 C 7,0 C 9,7 km/h (2 Bft) 100,00 %
18.04.2016 07:43 7,7 C 96 % 1016,5 hPa 0,0 l/m 7,6 km/h (2 Bft) S 182 0 min 0,000 mm 0,0 UV-I 30 W/m 7,1 C 6,7 C 9,7 km/h (2 Bft) 96,30 %
18.04.2016 07:44 7,7 C 96 % 1016,6 hPa 0,0 l/m 5,3 km/h (1 Bft) S 187 0 min 0,000 mm 0,0 UV-I 30 W/m 7,1 C 7,7 C 8,0 km/h (2 Bft) 100,00 %
18.04.2016 07:45 7,7 C 96 % 1016,6 hPa 0,2 l/m 4,3 km/h (1 Bft) S-SW 206 0 min 0,000 mm 0,0 UV-I 31 W/m 7,1 C 7,7 C 8,0 km/h (2 Bft) 100,00 %
18.04.2016 07:46 7,7 C 96 % 1016,6 hPa 0,0 l/m 5,6 km/h (1 Bft) S-SW 210 0 min 0,000 mm 0,0 UV-I 33 W/m 7,1 C 7,7 C 8,0 km/h (2 Bft) 92,31 %
18.04.2016 07:47 7,7 C 96 % 1016,6 hPa 0,0 l/m 4,7 km/h (1 Bft) W-SW 237 0 min 0,000 mm 0,0 UV-I 35 W/m 7,1 C 7,7 C 6,4 km/h (2 Bft) 100,00 %
18.04.2016 07:48 7,7 C 96 % 1016,6 hPa 0,0 l/m 3,5 km/h (1 Bft) SW 223 0 min 0,000 mm 0,0 UV-I 37 W/m 7,1 C 7,7 C 4,8 km/h (1 Bft) 100,00 %
18.04.2016 07:49 7,7 C 96 % 1016,6 hPa 0,0 l/m 5,2 km/h (1 Bft) S-SW 208 0 min 0,000 mm 0,0 UV-I 39 W/m 7,1 C 7,7 C 8,0 km/h (2 Bft) 100,00 %
18.04.2016 07:50 7,8 C 96 % 1016,6 hPa 0,0 l/m 4,3 km/h (1 Bft) S-SW 202 0 min 0,000 mm 0,0 UV-I 40 W/m 7,2 C 7,8 C 6,4 km/h (2 Bft) 100,00 %
18.04.2016 07:51 7,8 C 96 % 1016,6 hPa 0,0 l/m 5,4 km/h (1 Bft) SW 232 0 min 0,000 mm 0,0 UV-I 40 W/m 7,2 C 7,8 C 8,0 km/h (2 Bft) 100,00 %
18.04.2016 07:52 7,8 C 96 % 1016,6 hPa 0,2 l/m 6,6 km/h (2 Bft) S 187 0 min 0,000 mm 0,0 UV-I 40 W/m 7,2 C 7,7 C 9,7 km/h (2 Bft) 95,65 %
18.04.2016 07:53 7,8 C 96 % 1016,7 hPa 0,0 l/m 6,5 km/h (2 Bft) S-SW 207 0 min 0,000 mm 0,0 UV-I 42 W/m 7,2 C 7,7 C 8,0 km/h (2 Bft) 95,83 %
18.04.2016 07:54 7,8 C 96 % 1016,7 hPa 0,0 l/m 5,6 km/h (1 Bft) S-SW 199 0 min 0,000 mm 0,0 UV-I 47 W/m 7,2 C 7,8 C 8,0 km/h (2 Bft) 100,00 %
18.04.2016 07:55 7,8 C 96 % 1016,7 hPa 0,0 l/m 5,2 km/h (1 Bft) SW 229 0 min 0,000 mm 0,0 UV-I 50 W/m 7,2 C 7,8 C 6,4 km/h (2 Bft) 100,00 %
18.04.2016 07:56 7,8 C 96 % 1016,8 hPa 0,0 l/m 5,1 km/h (1 Bft) S-SW 197 0 min 0,000 mm 0,0 UV-I 51 W/m 7,2 C 7,8 C 8,0 km/h (2 Bft) 100,00 %
18.04.2016 07:57 7,8 C 96 % 1016,8 hPa 0,0 l/m 7,0 km/h (2 Bft) S-SW 207 0 min 0,000 mm 0,0 UV-I 49 W/m 7,2 C 7,3 C 9,7 km/h (2 Bft) 100,00 %
18.04.2016 07:58 7,8 C 96 % 1016,8 hPa 0,0 l/m 8,0 km/h (2 Bft) SW 221 0 min 0,000 mm 0,0 UV-I 45 W/m 7,2 C 6,5 C 12,9 km/h (3 Bft) 100,00 %
18.04.2016 07:59 7,8 C 96 % 1016,8 hPa 0,0 l/m 8,8 km/h (2 Bft) S-SW 202 0 min 0,000 mm 0,0 UV-I 42 W/m 7,2 C 6,0 C 11,3 km/h (2 Bft) 100,00 %
18.04.2016 08:00 7,8 C 96 % 1016,9 hPa 0,0 l/m 6,0 km/h (2 Bft) SW 219 0 min 0,025 mm 0,0 UV-I 38 W/m 7,2 C 7,8 C 8,0 km/h (2 Bft) 100,00 %
18.04.2016 08:02 7,8 C 96 % 1016,9 hPa 0,2 l/m 5,9 km/h (2 Bft) S-SW 211 0 min 0,000 mm 0,0 UV-I 37 W/m 7,2 C 7,8 C 9,7 km/h (2 Bft) 100,00 %
18.04.2016 08:03 7,8 C 96 % 1016,9 hPa 0,0 l/m 4,4 km/h (1 Bft) S 184 0 min 0,000 mm 0,0 UV-I 38 W/m 7,2 C 7,8 C 8,0 km/h (2 Bft) 100,00 %
18.04.2016 08:04 7,8 C 96 % 1016,9 hPa 0,0 l/m 6,3 km/h (2 Bft) S-SW 198 0 min 0,000 mm 0,0 UV-I 40 W/m 7,2 C 7,8 C 9,7 km/h (2 Bft) 100,00 %
18.04.2016 08:05 7,8 C 96 % 1016,9 hPa 0,0 l/m 6,2 km/h (2 Bft) SW 216 0 min 0,000 mm 0,0 UV-I 40 W/m 7,2 C 7,8 C 9,7 km/h (2 Bft) 100,00 %
18.04.2016 08:06 7,8 C 96 % 1016,9 hPa 0,0 l/m 4,4 km/h (1 Bft) SW 222 0 min 0,000 mm 0,0 UV-I 39 W/m 7,2 C 7,8 C 8,0 km/h (2 Bft) 100,00 %
18.04.2016 08:07 7,8 C 96 % 1016,9 hPa 0,0 l/m 8,3 km/h (2 Bft) S 175 0 min 0,000 mm 0,0 UV-I 38 W/m 7,2 C 6,3 C 11,3 km/h (2 Bft) 100,00 %
18.04.2016 08:08 7,8 C 96 % 1017,0 hPa 0,0 l/m 5,7 km/h (1 Bft) S-SW 194 0 min 0,000 mm 0,0 UV-I 37 W/m 7,2 C 7,8 C 9,7 km/h (2 Bft) 100,00 %
18.04.2016 08:09 7,8 C 96 % 1017,0 hPa 0,0 l/m 5,2 km/h (1 Bft) S 187 0 min 0,000 mm 0,0 UV-I 37 W/m 7,2 C 7,8 C 6,4 km/h (2 Bft) 100,00 %
18.04.2016 08:10 7,8 C 96 % 1017,0 hPa 0,0 l/m 6,0 km/h (2 Bft) S-SW 204 0 min 0,000 mm 0,0 UV-I 39 W/m 7,2 C 7,8 C 8,0 km/h (2 Bft) 100,00 %
18.04.2016 08:11 7,8 C 96 % 1017,0 hPa 0,2 l/m 6,8 km/h (2 Bft) S 178 0 min 0,000 mm 0,0 UV-I 40 W/m 7,2 C 7,5 C 9,7 km/h (2 Bft) 100,00 %
18.04.2016 08:12 7,8 C 96 % 1017,0 hPa 0,0 l/m 5,8 km/h (2 Bft) S 182 0 min 0,000 mm 0,0 UV-I 40 W/m 7,2 C 7,8 C 8,0 km/h (2 Bft) 100,00 %
18.04.2016 08:13 7,8 C 96 % 1017,0 hPa 0,0 l/m 4,8 km/h (1 Bft) S 188 0 min 0,000 mm 0,0 UV-I 40 W/m 7,2 C 7,8 C 6,4 km/h (2 Bft) 100,00 %
18.04.2016 08:14 7,9 C 96 % 1017,0 hPa 0,0 l/m 6,0 km/h (2 Bft) SW 234 0 min 0,000 mm 0,0 UV-I 40 W/m 7,3 C 7,9 C 8,0 km/h (2 Bft) 100,00 %
18.04.2016 08:15 7,8 C 96 % 1017,1 hPa 0,0 l/m 7,4 km/h (2 Bft) SW 214 0 min 0,000 mm 0,0 UV-I 40 W/m 7,2 C 7,0 C 9,7 km/h (2 Bft) 100,00 %
18.04.2016 08:16 7,9 C 96 % 1017,1 hPa 0,0 l/m 5,5 km/h (1 Bft) S-SW 192 0 min 0,000 mm 0,0 UV-I 40 W/m 7,3 C 7,9 C 8,0 km/h (2 Bft) 100,00 %
18.04.2016 08:17 7,8 C 96 % 1017,1 hPa 0,0 l/m 5,0 km/h (1 Bft) S-SW 195 0 min 0,000 mm 0,0 UV-I 42 W/m 7,2 C 7,8 C 8,0 km/h (2 Bft) 100,00 %
18.04.2016 08:18 7,8 C 96 % 1017,1 hPa 0,0 l/m 6,7 km/h (2 Bft) S 191 0 min 0,000 mm 0,0 UV-I 43 W/m 7,2 C 7,6 C 8,0 km/h (2 Bft) 100,00 %
18.04.2016 08:19 7,8 C 96 % 1017,1 hPa 0,2 l/m 5,7 km/h (1 Bft) S-SW 202 0 min 0,000 mm 0,0 UV-I 44 W/m 7,2 C 7,8 C 8,0 km/h (2 Bft) 100,00 %
18.04.2016 08:20 7,8 C 96 % 1017,2 hPa 0,0 l/m 6,8 km/h (2 Bft) S-SW 204 0 min 0,000 mm 0,0 UV-I 44 W/m 7,2 C 7,5 C 8,0 km/h (2 Bft) 96,15 %
18.04.2016 08:21 7,8 C 96 % 1017,2 hPa 0,0 l/m 4,2 km/h (1 Bft) SW 225 0 min 0,000 mm 0,0 UV-I 44 W/m 7,2 C 7,8 C 6,4 km/h (2 Bft) 100,00 %
18.04.2016 08:22 7,9 C 96 % 1017,2 hPa 0,0 l/m 3,5 km/h (1 Bft) SW 227 0 min 0,000 mm 0,0 UV-I 44 W/m 7,3 C 7,9 C 6,4 km/h (2 Bft) 100,00 %
18.04.2016 08:23 7,9 C 96 % 1017,2 hPa 0,0 l/m 4,8 km/h (1 Bft) SW 228 0 min 0,000 mm 0,0 UV-I 44 W/m 7,3 C 7,9 C 8,0 km/h (2 Bft) 100,00 %
18.04.2016 08:24 7,9 C 96 % 1017,2 hPa 0,0 l/m 6,8 km/h (2 Bft) S-SW 199 0 min 0,000 mm 0,0 UV-I 44 W/m 7,3 C 7,6 C 8,0 km/h (2 Bft) 100,00 %
18.04.2016 08:25 7,9 C 96 % 1017,2 hPa 0,0 l/m 4,1 km/h (1 Bft) SW 236 0 min 0,000 mm 0,0 UV-I 44 W/m 7,3 C 7,9 C 6,4 km/h (2 Bft) 96,30 %
18.04.2016 08:26 7,9 C 96 % 1017,2 hPa 0,2 l/m 5,2 km/h (1 Bft) SW 236 0 min 0,000 mm 0,0 UV-I 44 W/m 7,3 C 7,9 C 8,0 km/h (2 Bft) 100,00 %
18.04.2016 08:27 7,9 C 96 % 1017,2 hPa 0,0 l/m 4,2 km/h (1 Bft) SW 228 0 min 0,000 mm 0,0 UV-I 46 W/m 7,3 C 7,9 C 4,8 km/h (1 Bft) 95,83 %
18.04.2016 08:28 7,9 C 96 % 1017,3 hPa 0,0 l/m 7,1 km/h (2 Bft) W-SW 248 0 min 0,000 mm 0,0 UV-I 44 W/m 7,3 C 7,3 C 11,3 km/h (2 Bft) 95,65 %
18.04.2016 08:29 7,9 C 96 % 1017,3 hPa 0,0 l/m 5,3 km/h (1 Bft) SW 221 0 min 0,000 mm 0,0 UV-I 44 W/m 7,3 C 7,9 C 6,4 km/h (2 Bft) 100,00 %
18.04.2016 08:30 7,9 C 96 % 1017,4 hPa 0,0 l/m 4,7 km/h (1 Bft) W-SW 256 0 min 0,000 mm 0,0 UV-I 44 W/m 7,3 C 7,9 C 6,4 km/h (2 Bft) 98,54 %
18.04.2016 08:31 7,9 C 96 % 1017,4 hPa 0,0 l/m 5,1 km/h (1 Bft) W-SW 246 0 min 0,000 mm 0,0 UV-I 45 W/m 7,3 C 7,9 C 6,4 km/h (2 Bft) 97,73 %
18.04.2016 08:32 7,9 C 96 % 1017,3 hPa 0,0 l/m 7,1 km/h (2 Bft) S-SW 212 0 min 0,000 mm 0,0 UV-I 47 W/m 7,3 C 7,3 C 9,7 km/h (2 Bft) 92,31 %
18.04.2016 08:33 7,9 C 96 % 1017,4 hPa 0,0 l/m 6,8 km/h (2 Bft) SW 234 0 min 0,000 mm 0,0 UV-I 48 W/m 7,3 C 7,6 C 11,3 km/h (2 Bft) 100,00 %
18.04.2016 08:34 7,9 C 96 % 1017,4 hPa 0,2 l/m 8,0 km/h (2 Bft) W-SW 238 0 min 0,000 mm 0,0 UV-I 54 W/m 7,3 C 6,6 C 11,3 km/h (2 Bft) 91,67 %
18.04.2016 08:35 7,9 C 96 % 1017,3 hPa 0,0 l/m 5,8 km/h (2 Bft) S-SW 212 0 min 0,000 mm 0,0 UV-I 58 W/m 7,3 C 7,9 C 8,0 km/h (2 Bft) 100,00 %
18.04.2016 08:36 7,9 C 96 % 1017,3 hPa 0,0 l/m 5,2 km/h (1 Bft) W-SW 246 0 min 0,000 mm 0,0 UV-I 60 W/m 7,3 C 7,9 C 8,0 km/h (2 Bft) 95,83 %
18.04.2016 08:37 7,9 C 96 % 1017,4 hPa 0,0 l/m 4,8 km/h (1 Bft) W 261 0 min 0,000 mm 0,0 UV-I 60 W/m 7,3 C 7,9 C 6,4 km/h (2 Bft) 92,31 %
18.04.2016 08:38 7,9 C 96 % 1017,3 hPa 0,0 l/m 5,5 km/h (1 Bft) W-SW 248 0 min 0,000 mm 0,0 UV-I 60 W/m 7,3 C 7,9 C 8,0 km/h (2 Bft) 100,00 %
18.04.2016 08:39 7,9 C 96 % 1017,3 hPa 0,0 l/m 5,2 km/h (1 Bft) W-SW 246 0 min 0,000 mm 0,0 UV-I 60 W/m 7,3 C 7,9 C 8,0 km/h (2 Bft) 95,65 %
18.04.2016 08:40 7,9 C 96 % 1017,4 hPa 0,0 l/m 5,3 km/h (1 Bft) W-SW 248 0 min 0,000 mm 0,0 UV-I 62 W/m 7,3 C 7,9 C 9,7 km/h (2 Bft) 100,00 %
18.04.2016 08:41 7,9 C 96 % 1017,4 hPa 0,0 l/m 6,4 km/h (2 Bft) SW 226 0 min 0,000 mm 0,0 UV-I 66 W/m 7,3 C 7,9 C 8,0 km/h (2 Bft) 95,65 %
18.04.2016 08:42 7,9 C 96 % 1017,5 hPa 0,2 l/m 5,6 km/h (1 Bft) SW 229 0 min 0,000 mm 0,0 UV-I 70 W/m 7,3 C 7,9 C 8,0 km/h (2 Bft) 100,00 %
18.04.2016 08:43 7,9 C 96 % 1017,5 hPa 0,0 l/m 6,5 km/h (2 Bft) W 263 0 min 0,000 mm 0,0 UV-I 73 W/m 7,3 C 7,8 C 8,0 km/h (2 Bft) 91,30 %
18.04.2016 08:44 8,0 C 96 % 1017,5 hPa 0,0 l/m 7,0 km/h (2 Bft) W-SW 256 0 min 0,000 mm 0,0 UV-I 76 W/m 7,4 C 7,5 C 11,3 km/h (2 Bft) 96,30 %
18.04.2016 08:45 8,0 C 96 % 1017,4 hPa 0,0 l/m 5,1 km/h (1 Bft) W-SW 242 0 min 0,000 mm 0,0 UV-I 76 W/m 7,4 C 8,0 C 6,4 km/h (2 Bft) 96,15 %
18.04.2016 08:46 8,0 C 96 % 1017,5 hPa 0,0 l/m 6,5 km/h (2 Bft) W-SW 240 0 min 0,000 mm 0,0 UV-I 76 W/m 7,4 C 7,9 C 8,0 km/h (2 Bft) 96,30 %
18.04.2016 08:47 8,0 C 96 % 1017,5 hPa 0,0 l/m 6,2 km/h (2 Bft) SW 226 0 min 0,000 mm 0,0 UV-I 77 W/m 7,4 C 8,0 C 8,0 km/h (2 Bft) 100,00 %
18.04.2016 08:48 8,0 C 96 % 1017,5 hPa 0,0 l/m 6,8 km/h (2 Bft) SW 228 0 min 0,000 mm 0,0 UV-I 77 W/m 7,4 C 7,7 C 9,7 km/h (2 Bft) 96,30 %
18.04.2016 08:49 8,1 C 96 % 1017,5 hPa 0,0 l/m 6,2 km/h (2 Bft) S-SW 211 0 min 0,000 mm 0,0 UV-I 77 W/m 7,5 C 8,1 C 8,0 km/h (2 Bft) 100,00 %
18.04.2016 08:50 8,1 C 96 % 1017,5 hPa 0,0 l/m 7,0 km/h (2 Bft) W 263 0 min 0,000 mm 0,0 UV-I 77 W/m 7,5 C 7,6 C 9,7 km/h (2 Bft) 95,83 %
18.04.2016 08:51 8,0 C 96 % 1017,5 hPa 0,0 l/m 9,2 km/h (2 Bft) SW 235 0 min 0,000 mm 0,0 UV-I 77 W/m 7,4 C 5,9 C 12,9 km/h (3 Bft) 100,00 %
18.04.2016 08:52 8,1 C 96 % 1017,5 hPa 0,0 l/m 9,1 km/h (2 Bft) SW 225 0 min 0,000 mm 0,0 UV-I 77 W/m 7,5 C 6,1 C 14,5 km/h (3 Bft) 93,33 %
18.04.2016 08:53 8,0 C 96 % 1017,5 hPa 0,0 l/m 7,4 km/h (2 Bft) W 268 0 min 0,000 mm 0,0 UV-I 77 W/m 7,4 C 7,2 C 9,7 km/h (2 Bft) 100,00 %
18.04.2016 08:54 8,1 C 96 % 1017,5 hPa 0,0 l/m 5,8 km/h (2 Bft) W-SW 250 0 min 0,000 mm 0,0 UV-I 77 W/m 7,5 C 8,1 C 9,7 km/h (2 Bft) 95,65 %
18.04.2016 08:55 8,1 C 96 % 1017,5 hPa 0,2 l/m 4,9 km/h (1 Bft) W-SW 250 0 min 0,000 mm 0,0 UV-I 78 W/m 7,5 C 8,1 C 6,4 km/h (2 Bft) 100,00 %
18.04.2016 08:56 8,1 C 96 % 1017,5 hPa 0,0 l/m 5,6 km/h (1 Bft) SW 219 0 min 0,000 mm 0,0 UV-I 79 W/m 7,5 C 8,1 C 8,0 km/h (2 Bft) 97,56 %
18.04.2016 08:57 8,1 C 96 % 1017,5 hPa 0,0 l/m 5,1 km/h (1 Bft) W 260 0 min 0,000 mm 0,0 UV-I 81 W/m 7,5 C 8,1 C 6,4 km/h (2 Bft) 91,67 %
18.04.2016 08:58 8,1 C 96 % 1017,5 hPa 0,0 l/m 6,1 km/h (2 Bft) W-SW 250 0 min 0,000 mm 0,0 UV-I 84 W/m 7,5 C 8,1 C 8,0 km/h (2 Bft) 100,00 %
18.04.2016 08:59 8,1 C 96 % 1017,5 hPa 0,0 l/m 5,7 km/h (1 Bft) W 263 0 min 0,000 mm 0,0 UV-I 87 W/m 7,5 C 8,1 C 9,7 km/h (2 Bft) 100,00 %
18.04.2016 09:00 8,1 C 96 % 1017,5 hPa 0,0 l/m 6,0 km/h (2 Bft) W-SW 248 0 min 0,000 mm 0,0 UV-I 91 W/m 7,5 C 8,1 C 8,0 km/h (2 Bft) 100,00 %
18.04.2016 09:02 8,1 C 96 % 1017,5 hPa 0,0 l/m 5,3 km/h (1 Bft) SW 235 0 min 0,026 mm 0,0 UV-I 97 W/m 7,5 C 8,1 C 9,7 km/h (2 Bft) 100,00 %
18.04.2016 09:03 8,1 C 96 % 1017,5 hPa 0,2 l/m 3,5 km/h (1 Bft) W 260 0 min 0,000 mm 0,0 UV-I 104 W/m 7,5 C 8,1 C 4,8 km/h (1 Bft) 100,00 %
18.04.2016 09:04 8,1 C 96 % 1017,5 hPa 0,0 l/m 4,6 km/h (1 Bft) SW 236 0 min 0,000 mm 0,0 UV-I 112 W/m 7,5 C 8,1 C 6,4 km/h (2 Bft) 100,00 %
18.04.2016 09:05 8,2 C 96 % 1017,5 hPa 0,0 l/m 4,1 km/h (1 Bft) W 259 0 min 0,000 mm 0,0 UV-I 120 W/m 7,6 C 8,2 C 4,8 km/h (1 Bft) 100,00 %
18.04.2016 09:06 8,2 C 96 % 1017,5 hPa 0,0 l/m 4,9 km/h (1 Bft) W-SW 254 0 min 0,000 mm 0,0 UV-I 125 W/m 7,6 C 8,2 C 6,4 km/h (2 Bft) 96,15 %
18.04.2016 09:07 8,2 C 96 % 1017,5 hPa 0,0 l/m 7,1 km/h (2 Bft) W 280 0 min 0,000 mm 0,3 UV-I 132 W/m 7,6 C 7,7 C 9,7 km/h (2 Bft) 96,67 %
18.04.2016 09:08 8,2 C 96 % 1017,5 hPa 0,0 l/m 6,4 km/h (2 Bft) W-SW 244 0 min 0,000 mm 0,5 UV-I 136 W/m 7,6 C 8,2 C 9,7 km/h (2 Bft) 100,00 %
18.04.2016 09:09 8,2 C 96 % 1017,5 hPa 0,0 l/m 5,2 km/h (1 Bft) W 265 0 min 0,000 mm 0,5 UV-I 144 W/m 7,6 C 8,2 C 6,4 km/h (2 Bft) 100,00 %
18.04.2016 09:10 8,2 C 96 % 1017,5 hPa 0,0 l/m 4,0 km/h (1 Bft) W 273 0 min 0,000 mm 0,5 UV-I 154 W/m 7,6 C 8,2 C 9,7 km/h (2 Bft) 100,00 %
18.04.2016 09:11 8,2 C 96 % 1017,5 hPa 0,2 l/m 8,1 km/h (2 Bft) W-SW 255 0 min 0,000 mm 0,5 UV-I 163 W/m 7,6 C 6,9 C 11,3 km/h (2 Bft) 100,00 %
18.04.2016 09:12 8,2 C 96 % 1017,5 hPa 0,0 l/m 4,7 km/h (1 Bft) W-SW 255 0 min 0,000 mm 0,6 UV-I 172 W/m 7,6 C 8,2 C 6,4 km/h (2 Bft) 100,00 %
18.04.2016 09:13 8,3 C 96 % 1017,5 hPa 0,0 l/m 2,3 km/h (1 Bft) W-SW 257 0 min 0,000 mm 0,6 UV-I 175 W/m 7,7 C 8,3 C 4,8 km/h (1 Bft) 100,00 %
18.04.2016 09:14 8,3 C 96 % 1017,5 hPa 0,0 l/m 5,6 km/h (1 Bft) W 281 0 min 0,000 mm 0,6 UV-I 174 W/m 7,7 C 8,3 C 8,0 km/h (2 Bft) 91,30 %
18.04.2016 09:15 8,3 C 96 % 1017,5 hPa 0,0 l/m 5,6 km/h (1 Bft) W-SW 258 0 min 0,000 mm 0,6 UV-I 172 W/m 7,7 C 8,3 C 6,4 km/h (2 Bft) 100,00 %
18.04.2016 09:16 8,3 C 96 % 1017,5 hPa 0,0 l/m 5,5 km/h (1 Bft) W 264 0 min 0,000 mm 0,6 UV-I 169 W/m 7,7 C 8,3 C 9,7 km/h (2 Bft) 100,00 %
18.04.2016 09:17 8,3 C 95 % 1017,6 hPa 0,0 l/m 5,8 km/h (2 Bft) W 265 0 min 0,000 mm 0,6 UV-I 171 W/m 7,5 C 8,3 C 6,4 km/h (2 Bft) 100,00 %
18.04.2016 09:18 8,3 C 95 % 1017,6 hPa 0,0 l/m 5,0 km/h (1 Bft) W 261 0 min 0,000 mm 0,7 UV-I 178 W/m 7,5 C 8,3 C 8,0 km/h (2 Bft) 100,00 %
18.04.2016 09:19 8,3 C 95 % 1017,6 hPa 0,0 l/m 3,0 km/h (1 Bft) W 267 0 min 0,000 mm 0,7 UV-I 185 W/m 7,5 C 8,3 C 4,8 km/h (1 Bft) 100,00 %
18.04.2016 09:20 8,4 C 95 % 1017,6 hPa 0,0 l/m 3,4 km/h (1 Bft) W-SW 257 0 min 0,000 mm 0,7 UV-I 195 W/m 7,6 C 8,4 C 6,4 km/h (2 Bft) 100,00 %
18.04.2016 09:21 8,4 C 95 % 1017,6 hPa 0,0 l/m 4,2 km/h (1 Bft) W-SW 237 0 min 0,000 mm 0,7 UV-I 207 W/m 7,6 C 8,4 C 6,4 km/h (2 Bft) 95,65 %
18.04.2016 09:22 8,4 C 95 % 1017,5 hPa 0,0 l/m 5,6 km/h (1 Bft) W-SW 257 0 min 0,000 mm 0,8 UV-I 218 W/m 7,6 C 8,4 C 8,0 km/h (2 Bft) 100,00 %
18.04.2016 09:23 8,5 C 95 % 1017,6 hPa 0,0 l/m 5,2 km/h (1 Bft) W-SW 237 0 min 0,000 mm 0,8 UV-I 224 W/m 7,7 C 8,5 C 9,7 km/h (2 Bft) 100,00 %
18.04.2016 09:24 8,5 C 95 % 1017,5 hPa 0,0 l/m 4,0 km/h (1 Bft) W 281 0 min 0,000 mm 0,8 UV-I 227 W/m 7,7 C 8,5 C 4,8 km/h (1 Bft) 95,83 %
18.04.2016 09:25 8,6 C 95 % 1017,5 hPa 0,0 l/m 5,0 km/h (1 Bft) W-SW 258 0 min 0,000 mm 0,8 UV-I 228 W/m 7,8 C 8,6 C 6,4 km/h (2 Bft) 100,00 %
18.04.2016 09:26 8,6 C 95 % 1017,5 hPa 0,0 l/m 4,4 km/h (1 Bft) W 260 0 min 0,000 mm 0,8 UV-I 227 W/m 7,8 C 8,6 C 4,8 km/h (1 Bft) 100,00 %
18.04.2016 09:27 8,6 C 95 % 1017,5 hPa 0,2 l/m 3,4 km/h (1 Bft) S 178 0 min 0,000 mm 0,8 UV-I 230 W/m 7,8 C 8,6 C 4,8 km/h (1 Bft) 100,00 %
18.04.2016 09:28 8,6 C 94 % 1017,5 hPa 0,0 l/m 2,6 km/h (1 Bft) S 183 0 min 0,000 mm 0,8 UV-I 229 W/m 7,7 C 8,6 C 4,8 km/h (1 Bft) 100,00 %
18.04.2016 09:29 8,6 C 93 % 1017,5 hPa 0,0 l/m 4,4 km/h (1 Bft) SW 234 0 min 0,000 mm 0,8 UV-I 224 W/m 7,5 C 8,6 C 6,4 km/h (2 Bft) 100,00 %
18.04.2016 09:30 8,6 C 94 % 1017,5 hPa 0,0 l/m 5,7 km/h (1 Bft) W-SW 242 0 min 0,000 mm 0,8 UV-I 218 W/m 7,7 C 8,6 C 8,0 km/h (2 Bft) 100,00 %
18.04.2016 09:31 8,6 C 94 % 1017,5 hPa 0,0 l/m 8,0 km/h (2 Bft) W-SW 244 0 min 0,000 mm 0,8 UV-I 216 W/m 7,7 C 7,4 C 11,3 km/h (2 Bft) 100,00 %
18.04.2016 09:32 8,6 C 93 % 1017,6 hPa 0,0 l/m 4,2 km/h (1 Bft) W 259 0 min 0,000 mm 0,8 UV-I 219 W/m 7,5 C 8,6 C 6,4 km/h (2 Bft) 100,00 %
18.04.2016 09:33 8,7 C 94 % 1017,5 hPa 0,0 l/m 4,2 km/h (1 Bft) W-SW 249 0 min 0,000 mm 0,9 UV-I 224 W/m 7,8 C 8,7 C 4,8 km/h (1 Bft) 100,00 %
18.04.2016 09:34 8,7 C 94 % 1017,6 hPa 0,0 l/m 5,9 km/h (2 Bft) S-SW 209 0 min 0,000 mm 0,9 UV-I 230 W/m 7,8 C 8,7 C 9,7 km/h (2 Bft) 91,30 %
18.04.2016 09:35 8,7 C 94 % 1017,6 hPa 0,0 l/m 4,6 km/h (1 Bft) SW 217 0 min 0,000 mm 0,9 UV-I 231 W/m 7,8 C 8,7 C 8,0 km/h (2 Bft) 96,30 %
18.04.2016 09:36 8,7 C 94 % 1017,6 hPa 0,0 l/m 4,1 km/h (1 Bft) SW 220 0 min 0,000 mm 0,9 UV-I 228 W/m 7,8 C 8,7 C 8,0 km/h (2 Bft) 100,00 %
18.04.2016 09:37 8,7 C 93 % 1017,6 hPa 0,0 l/m 5,6 km/h (1 Bft) SW 234 0 min 0,000 mm 0,9 UV-I 232 W/m 7,6 C 8,7 C 8,0 km/h (2 Bft) 100,00 %
18.04.2016 09:38 8,7 C 93 % 1017,6 hPa 0,0 l/m 7,6 km/h (2 Bft) SW 236 0 min 0,000 mm 0,9 UV-I 240 W/m 7,6 C 7,8 C 9,7 km/h (2 Bft) 100,00 %
18.04.2016 09:40 8,7 C 92 % 1017,6 hPa 0,0 l/m 3,6 km/h (1 Bft) SW 220 0 min 0,000 mm 1,0 UV-I 258 W/m 7,5 C 8,7 C 4,8 km/h (1 Bft) 100,00 %
18.04.2016 09:41 8,8 C 93 % 1017,6 hPa 0,0 l/m 2,7 km/h (1 Bft) SW 229 0 min 0,000 mm 1,0 UV-I 276 W/m 7,7 C 8,8 C 4,8 km/h (1 Bft) 100,00 %
18.04.2016 09:42 8,8 C 93 % 1017,6 hPa 0,0 l/m 3,7 km/h (1 Bft) SW 235 0 min 0,000 mm 1,0 UV-I 258 W/m 7,7 C 8,8 C 4,8 km/h (1 Bft) 100,00 %
18.04.2016 09:43 8,8 C 93 % 1017,6 hPa 0,0 l/m 3,5 km/h (1 Bft) S-SW 202 0 min 0,000 mm 1,0 UV-I 243 W/m 7,7 C 8,8 C 6,4 km/h (2 Bft) 100,00 %
18.04.2016 09:44 8,8 C 93 % 1017,6 hPa 0,0 l/m 5,3 km/h (1 Bft) S 188 0 min 0,000 mm 1,0 UV-I 243 W/m 7,7 C 8,8 C 8,0 km/h (2 Bft) 100,00 %
18.04.2016 09:45 8,8 C 93 % 1017,6 hPa 0,0 l/m 5,8 km/h (2 Bft) S-SW 202 0 min 0,000 mm 1,0 UV-I 244 W/m 7,7 C 8,8 C 9,7 km/h (2 Bft) 100,00 %
18.04.2016 09:46 8,8 C 93 % 1017,7 hPa 0,0 l/m 6,8 km/h (2 Bft) S-SW 200 0 min 0,000 mm 1,0 UV-I 246 W/m 7,7 C 8,5 C 8,0 km/h (2 Bft) 100,00 %
18.04.2016 09:47 8,8 C 92 % 1017,7 hPa 0,0 l/m 3,2 km/h (1 Bft) S-SW 211 0 min 0,000 mm 1,0 UV-I 252 W/m 7,6 C 8,8 C 4,8 km/h (1 Bft) 100,00 %
18.04.2016 09:48 8,8 C 93 % 1017,6 hPa 0,0 l/m 4,7 km/h (1 Bft) W-SW 238 0 min 0,000 mm 1,0 UV-I 260 W/m 7,7 C 8,8 C 6,4 km/h (2 Bft) 100,00 %
18.04.2016 09:49 8,9 C 93 % 1017,6 hPa 0,0 l/m 4,6 km/h (1 Bft) SW 219 0 min 0,000 mm 1,0 UV-I 252 W/m 7,8 C 8,9 C 6,4 km/h (2 Bft) 100,00 %
18.04.2016 09:50 8,8 C 93 % 1017,6 hPa 0,0 l/m 2,8 km/h (1 Bft) SW 227 0 min 0,000 mm 1,0 UV-I 242 W/m 7,7 C 8,8 C 3,2 km/h (1 Bft) 100,00 %
18.04.2016 09:51 8,9 C 93 % 1017,6 hPa 0,0 l/m 7,6 km/h (2 Bft) SW 232 0 min 0,000 mm 1,0 UV-I 244 W/m 7,8 C 8,0 C 9,7 km/h (2 Bft) 100,00 %
18.04.2016 09:52 8,9 C 93 % 1017,6 hPa 0,0 l/m 5,7 km/h (1 Bft) SW 219 0 min 0,000 mm 1,0 UV-I 257 W/m 7,8 C 8,9 C 8,0 km/h (2 Bft) 100,00 %
18.04.2016 09:53 8,9 C 93 % 1017,6 hPa 0,0 l/m 4,3 km/h (1 Bft) SW 219 0 min 0,000 mm 1,1 UV-I 271 W/m 7,8 C 8,9 C 6,4 km/h (2 Bft) 100,00 %
18.04.2016 09:54 8,9 C 92 % 1017,6 hPa 0,0 l/m 3,6 km/h (1 Bft) S-SW 209 0 min 0,000 mm 1,2 UV-I 297 W/m 7,7 C 8,9 C 4,8 km/h (1 Bft) 100,00 %
18.04.2016 09:55 8,9 C 92 % 1017,5 hPa 0,0 l/m 5,2 km/h (1 Bft) SW 221 0 min 0,000 mm 1,2 UV-I 307 W/m 7,7 C 8,9 C 8,0 km/h (2 Bft) 100,00 %
18.04.2016 09:56 8,9 C 92 % 1017,5 hPa 0,0 l/m 4,5 km/h (1 Bft) W-SW 240 0 min 0,000 mm 1,2 UV-I 319 W/m 7,7 C 8,9 C 6,4 km/h (2 Bft) 100,00 %
18.04.2016 09:57 9,0 C 93 % 1017,5 hPa 0,0 l/m 2,7 km/h (1 Bft) SW 214 1 min 0,000 mm 1,3 UV-I 332 W/m 7,9 C 9,0 C 6,4 km/h (2 Bft) 92,86 %
18.04.2016 09:58 9,0 C 93 % 1017,5 hPa 0,0 l/m 4,6 km/h (1 Bft) S-SW 213 1 min 0,000 mm 1,3 UV-I 339 W/m 7,9 C 9,0 C 8,0 km/h (2 Bft) 100,00 %
18.04.2016 09:59 9,1 C 92 % 1017,5 hPa 0,0 l/m 5,1 km/h (1 Bft) W-SW 247 1 min 0,000 mm 1,3 UV-I 347 W/m 7,9 C 9,1 C 8,0 km/h (2 Bft) 100,00 %
18.04.2016 10:00 9,1 C 92 % 1017,6 hPa 0,0 l/m 4,7 km/h (1 Bft) W-SW 258 1 min 0,101 mm 1,3 UV-I 352 W/m 7,9 C 9,1 C 6,4 km/h (2 Bft) 100,00 %
18.04.2016 10:01 9,1 C 92 % 1017,6 hPa 0,0 l/m 5,1 km/h (1 Bft) S 180 1 min 0,000 mm 1,3 UV-I 341 W/m 7,9 C 9,1 C 8,0 km/h (2 Bft) 100,00 %
18.04.2016 10:02 9,2 C 91 % 1017,6 hPa 0,0 l/m 3,2 km/h (1 Bft) W-SW 242 1 min 0,000 mm 1,4 UV-I 359 W/m 7,8 C 9,2 C 4,8 km/h (1 Bft) 95,83 %
18.04.2016 10:03 9,2 C 91 % 1017,6 hPa 0,0 l/m 3,9 km/h (1 Bft) S-SW 209 1 min 0,000 mm 1,4 UV-I 386 W/m 7,8 C 9,2 C 6,4 km/h (2 Bft) 100,00 %
18.04.2016 10:04 9,1 C 91 % 1017,6 hPa 0,0 l/m 5,5 km/h (1 Bft) SW 230 1 min 0,000 mm 1,4 UV-I 397 W/m 7,7 C 9,1 C 8,0 km/h (2 Bft) 100,00 %
18.04.2016 10:05 9,2 C 91 % 1017,5 hPa 0,0 l/m 6,1 km/h (2 Bft) SW 228 1 min 0,000 mm 1,4 UV-I 389 W/m 7,8 C 9,2 C 8,0 km/h (2 Bft) 100,00 %
18.04.2016 10:06 9,2 C 91 % 1017,5 hPa 0,0 l/m 5,5 km/h (1 Bft) SW 228 1 min 0,000 mm 1,4 UV-I 379 W/m 7,8 C 9,2 C 8,0 km/h (2 Bft) 100,00 %
18.04.2016 10:07 9,3 C 91 % 1017,5 hPa 0,0 l/m 6,7 km/h (2 Bft) SW 230 1 min 0,000 mm 1,4 UV-I 384 W/m 7,9 C 9,1 C 8,0 km/h (2 Bft) 100,00 %
18.04.2016 10:08 9,3 C 92 % 1017,5 hPa 0,0 l/m 4,5 km/h (1 Bft) S-SW 203 1 min 0,000 mm 1,4 UV-I 377 W/m 8,1 C 9,3 C 6,4 km/h (2 Bft) 100,00 %
18.04.2016 10:09 9,3 C 91 % 1017,5 hPa 0,0 l/m 4,5 km/h (1 Bft) S 177 1 min 0,000 mm 1,5 UV-I 397 W/m 7,9 C 9,3 C 9,7 km/h (2 Bft) 100,00 %
18.04.2016 10:10 9,3 C 91 % 1017,6 hPa 0,0 l/m 5,7 km/h (1 Bft) W-SW 247 1 min 0,000 mm 1,6 UV-I 431 W/m 7,9 C 9,3 C 8,0 km/h (2 Bft) 100,00 %
18.04.2016 10:11 9,3 C 90 % 1017,6 hPa 0,0 l/m 5,2 km/h (1 Bft) W-SW 237 1 min 0,000 mm 1,6 UV-I 440 W/m 7,7 C 9,3 C 6,4 km/h (2 Bft) 100,00 %
18.04.2016 10:12 9,4 C 91 % 1017,6 hPa 0,0 l/m 2,4 km/h (1 Bft) SW 232 1 min 0,000 mm 1,5 UV-I 418 W/m 8,0 C 9,4 C 6,4 km/h (2 Bft) 100,00 %
18.04.2016 10:13 9,4 C 91 % 1017,6 hPa 0,0 l/m 2,4 km/h (1 Bft) S-SW 209 0 min 0,000 mm 1,4 UV-I 338 W/m 8,0 C 9,4 C 6,4 km/h (2 Bft) 100,00 %
18.04.2016 10:14 9,4 C 92 % 1017,6 hPa 0,0 l/m 0,2 km/h (0 Bft) S-SW 209 0 min 0,000 mm 1,3 UV-I 302 W/m 8,2 C 9,4 C 1,6 km/h (1 Bft) 100,00 %
18.04.2016 10:15 9,5 C 91 % 1017,6 hPa 0,0 l/m 3,4 km/h (1 Bft) W-SW 248 0 min 0,000 mm 1,3 UV-I 312 W/m 8,1 C 9,5 C 8,0 km/h (2 Bft) 100,00 %
18.04.2016 10:16 9,5 C 91 % 1017,5 hPa 0,0 l/m 5,7 km/h (1 Bft) W-SW 238 0 min 0,000 mm 1,3 UV-I 320 W/m 8,1 C 9,5 C 9,7 km/h (2 Bft) 95,65 %
18.04.2016 10:17 9,6 C 92 % 1017,5 hPa 0,0 l/m 3,2 km/h (1 Bft) W-SW 238 0 min 0,000 mm 1,3 UV-I 299 W/m 8,4 C 9,6 C 6,4 km/h (2 Bft) 100,00 %
18.04.2016 10:18 9,7 C 93 % 1017,5 hPa 0,0 l/m 3,0 km/h (1 Bft) W-SW 238 0 min 0,000 mm 1,3 UV-I 283 W/m 8,6 C 9,7 C 6,4 km/h (2 Bft) 100,00 %
18.04.2016 10:19 9,6 C 90 % 1017,6 hPa 0,0 l/m 4,4 km/h (1 Bft) W-SW 253 0 min 0,000 mm 1,2 UV-I 269 W/m 8,0 C 9,6 C 6,4 km/h (2 Bft) 100,00 %
18.04.2016 10:20 9,6 C 90 % 1017,6 hPa 0,0 l/m 3,4 km/h (1 Bft) W 263 0 min 0,000 mm 1,2 UV-I 264 W/m 8,0 C 9,6 C 4,8 km/h (1 Bft) 100,00 %
18.04.2016 10:21 9,6 C 89 % 1017,5 hPa 0,0 l/m 2,4 km/h (1 Bft) W 266 0 min 0,000 mm 1,3 UV-I 271 W/m 7,9 C 9,6 C 4,8 km/h (1 Bft) 100,00 %
18.04.2016 10:22 9,5 C 90 % 1017,6 hPa 0,0 l/m 2,6 km/h (1 Bft) W 271 0 min 0,000 mm 1,3 UV-I 280 W/m 7,9 C 9,5 C 3,2 km/h (1 Bft) 96,15 %
18.04.2016 10:23 9,5 C 87 % 1017,6 hPa 0,0 l/m 1,0 km/h (0 Bft) W 271 0 min 0,000 mm 1,3 UV-I 272 W/m 7,4 C 9,5 C 3,2 km/h (1 Bft) 100,00 %
18.04.2016 10:24 9,4 C 87 % 1017,5 hPa 0,0 l/m 0,7 km/h (0 Bft) W 271 0 min 0,000 mm 1,2 UV-I 258 W/m 7,3 C 9,4 C 1,6 km/h (1 Bft) 100,00 %
18.04.2016 10:25 9,4 C 87 % 1017,5 hPa 0,0 l/m 0,9 km/h (0 Bft) W 271 0 min 0,000 mm 1,2 UV-I 248 W/m 7,3 C 9,4 C 1,6 km/h (1 Bft) 100,00 %
18.04.2016 10:26 9,4 C 86 % 1017,6 hPa 0,0 l/m 0,0 km/h (0 Bft) W 271 0 min 0,000 mm 1,1 UV-I 243 W/m 7,2 C 9,4 C 0,0 km/h (0 Bft) 96,30 %
18.04.2016 10:27 9,4 C 86 % 1017,6 hPa 0,0 l/m 0,0 km/h (0 Bft) W 271 0 min 0,000 mm 1,1 UV-I 227 W/m 7,2 C 9,4 C 0,0 km/h (0 Bft) 95,65 %
18.04.2016 10:28 9,4 C 86 % 1017,6 hPa 0,0 l/m 1,1 km/h (1 Bft) W 271 0 min 0,000 mm 1,1 UV-I 253 W/m 7,2 C 9,4 C 3,2 km/h (1 Bft) 100,00 %
18.04.2016 10:29 9,4 C 87 % 1017,6 hPa 0,0 l/m 2,5 km/h (1 Bft) W-SW 248 0 min 0,000 mm 1,2 UV-I 248 W/m 7,3 C 9,4 C 3,2 km/h (1 Bft) 91,30 %
18.04.2016 10:30 9,4 C 89 % 1017,5 hPa 0,0 l/m 2,9 km/h (1 Bft) W-SW 244 0 min 0,000 mm 1,1 UV-I 220 W/m 7,7 C 9,4 C 4,8 km/h (1 Bft) 95,83 %
18.04.2016 10:31 9,5 C 90 % 1017,6 hPa 0,0 l/m 2,3 km/h (1 Bft) W-SW 250 0 min 0,000 mm 1,1 UV-I 225 W/m 7,9 C 9,5 C 3,2 km/h (1 Bft) 100,00 %
18.04.2016 10:32 9,6 C 91 % 1017,6 hPa 0,0 l/m 2,9 km/h (1 Bft) W-SW 250 0 min 0,000 mm 1,2 UV-I 231 W/m 8,2 C 9,6 C 4,8 km/h (1 Bft) 95,83 %
18.04.2016 10:33 9,6 C 91 % 1017,6 hPa 0,0 l/m 4,3 km/h (1 Bft) W-SW 250 0 min 0,000 mm 1,2 UV-I 241 W/m 8,2 C 9,6 C 6,4 km/h (2 Bft) 100,00 %
18.04.2016 10:34 9,5 C 89 % 1017,6 hPa 0,0 l/m 4,2 km/h (1 Bft) W-SW 252 0 min 0,000 mm 1,3 UV-I 250 W/m 7,8 C 9,5 C 8,0 km/h (2 Bft) 95,83 %
18.04.2016 10:35 9,5 C 88 % 1017,6 hPa 0,0 l/m 4,4 km/h (1 Bft) W-SW 252 0 min 0,000 mm 1,3 UV-I 258 W/m 7,6 C 9,5 C 6,4 km/h (2 Bft) 95,65 %
18.04.2016 10:36 9,4 C 88 % 1017,6 hPa 0,0 l/m 3,4 km/h (1 Bft) W-SW 252 0 min 0,000 mm 1,4 UV-I 270 W/m 7,5 C 9,4 C 4,8 km/h (1 Bft) 95,83 %
18.04.2016 10:37 9,5 C 89 % 1017,6 hPa 0,0 l/m 2,7 km/h (1 Bft) W-SW 254 0 min 0,000 mm 1,4 UV-I 284 W/m 7,8 C 9,5 C 3,2 km/h (1 Bft) 95,65 %
18.04.2016 10:38 9,5 C 89 % 1017,7 hPa 0,0 l/m 1,6 km/h (1 Bft) W-SW 254 0 min 0,000 mm 1,5 UV-I 306 W/m 7,8 C 9,5 C 3,2 km/h (1 Bft) 100,00 %
18.04.2016 10:39 9,6 C 89 % 1017,7 hPa 0,0 l/m 2,0 km/h (1 Bft) W-SW 254 0 min 0,000 mm 1,6 UV-I 325 W/m 7,9 C 9,6 C 3,2 km/h (1 Bft) 96,55 %
18.04.2016 10:40 9,6 C 90 % 1017,7 hPa 0,0 l/m 4,3 km/h (1 Bft) W-SW 246 0 min 0,000 mm 1,5 UV-I 316 W/m 8,0 C 9,6 C 6,4 km/h (2 Bft) 100,00 %
18.04.2016 10:41 9,6 C 89 % 1017,7 hPa 0,0 l/m 3,6 km/h (1 Bft) W-SW 246 0 min 0,000 mm 1,3 UV-I 271 W/m 7,9 C 9,6 C 4,8 km/h (1 Bft) 91,30 %
18.04.2016 10:42 9,6 C 89 % 1017,8 hPa 0,0 l/m 5,5 km/h (1 Bft) W-SW 252 0 min 0,000 mm 1,1 UV-I 234 W/m 7,9 C 9,6 C 6,4 km/h (2 Bft) 100,00 %
18.04.2016 10:43 9,6 C 88 % 1017,8 hPa 0,0 l/m 4,9 km/h (1 Bft) W 259 0 min 0,000 mm 1,1 UV-I 226 W/m 7,7 C 9,6 C 9,7 km/h (2 Bft) 96,30 %
18.04.2016 10:44 9,6 C 86 % 1017,8 hPa 0,0 l/m 3,2 km/h (1 Bft) W 266 0 min 0,000 mm 1,1 UV-I 242 W/m 7,4 C 9,6 C 4,8 km/h (1 Bft) 100,00 %
18.04.2016 10:45 9,5 C 86 % 1017,8 hPa 0,0 l/m 2,5 km/h (1 Bft) W-NW 296 0 min 0,000 mm 1,3 UV-I 270 W/m 7,3 C 9,5 C 3,2 km/h (1 Bft) 91,67 %
18.04.2016 10:46 9,6 C 89 % 1017,7 hPa 0,0 l/m 4,4 km/h (1 Bft) NW 304 0 min 0,000 mm 1,4 UV-I 308 W/m 7,9 C 9,6 C 6,4 km/h (2 Bft) 97,56 %
18.04.2016 10:47 9,6 C 88 % 1017,7 hPa 0,0 l/m 5,0 km/h (1 Bft) N-NW 336 0 min 0,000 mm 1,5 UV-I 309 W/m 7,7 C 9,6 C 6,4 km/h (2 Bft) 100,00 %
18.04.2016 10:48 9,6 C 88 % 1017,7 hPa 0,0 l/m 2,3 km/h (1 Bft) N-NW 332 0 min 0,000 mm 1,5 UV-I 300 W/m 7,7 C 9,6 C 3,2 km/h (1 Bft) 100,00 %
18.04.2016 10:49 9,6 C 88 % 1017,7 hPa 0,0 l/m 2,4 km/h (1 Bft) N-NW 327 0 min 0,000 mm 1,6 UV-I 297 W/m 7,7 C 9,6 C 3,2 km/h (1 Bft) 96,30 %
18.04.2016 10:50 9,6 C 87 % 1017,6 hPa 0,0 l/m 3,2 km/h (1 Bft) N-NW 337 0 min 0,000 mm 1,5 UV-I 301 W/m 7,5 C 9,6 C 6,4 km/h (2 Bft) 100,00 %
18.04.2016 10:55 9,5 C 87 % 1017,8 hPa 0,0 l/m 3,2 km/h (1 Bft) W 270 0 min 0,000 mm 1,2 UV-I 218 W/m 7,4 C 9,5 C 4,8 km/h (1 Bft) 99,12 %
18.04.2016 11:00 9,6 C 89 % 1017,9 hPa 0,0 l/m 3,2 km/h (1 Bft) W 270 0 min 0,127 mm 1,0 UV-I 182 W/m 7,9 C 9,6 C 4,8 km/h (1 Bft) 100,00 %
18.04.2016 11:07 9,4 C 89 % 1017,8 hPa 0,0 l/m 1,4 km/h (1 Bft) W-NW 286 0 min 0,000 mm 0,8 UV-I 146 W/m 7,7 C 9,4 C 3,2 km/h (1 Bft) 100,00 %
18.04.2016 11:08 9,4 C 89 % 1017,8 hPa 0,0 l/m 1,7 km/h (1 Bft) W-NW 286 0 min 0,000 mm 0,8 UV-I 152 W/m 7,7 C 9,4 C 3,2 km/h (1 Bft) 100,00 %
18.04.2016 11:09 9,4 C 90 % 1017,8 hPa 0,0 l/m 2,7 km/h (1 Bft) W-NW 287 0 min 0,000 mm 0,9 UV-I 152 W/m 7,8 C 9,4 C 6,4 km/h (2 Bft) 91,30 %
18.04.2016 11:10 9,4 C 89 % 1017,8 hPa 0,0 l/m 3,1 km/h (1 Bft) W 273 0 min 0,000 mm 0,9 UV-I 149 W/m 7,7 C 9,4 C 4,8 km/h (1 Bft) 100,00 %
18.04.2016 11:11 9,4 C 89 % 1017,8 hPa 0,0 l/m 3,8 km/h (1 Bft) W 271 0 min 0,000 mm 0,8 UV-I 146 W/m 7,7 C 9,4 C 4,8 km/h (1 Bft) 100,00 %
18.04.2016 11:12 9,4 C 89 % 1017,8 hPa 0,0 l/m 2,4 km/h (1 Bft) W 271 0 min 0,000 mm 0,8 UV-I 144 W/m 7,7 C 9,4 C 4,8 km/h (1 Bft) 95,83 %
18.04.2016 11:13 9,3 C 88 % 1017,9 hPa 0,0 l/m 3,9 km/h (1 Bft) W-NW 297 0 min 0,000 mm 0,8 UV-I 147 W/m 7,4 C 9,3 C 4,8 km/h (1 Bft) 100,00 %
18.04.2016 11:14 9,3 C 87 % 1017,9 hPa 0,0 l/m 1,1 km/h (1 Bft) W-NW 297 0 min 0,000 mm 0,9 UV-I 150 W/m 7,2 C 9,3 C 3,2 km/h (1 Bft) 100,00 %
18.04.2016 11:15 9,3 C 87 % 1017,8 hPa 0,0 l/m 2,2 km/h (1 Bft) W 280 0 min 0,000 mm 0,9 UV-I 155 W/m 7,2 C 9,3 C 3,2 km/h (1 Bft) 100,00 %
18.04.2016 11:16 9,3 C 88 % 1017,9 hPa 0,0 l/m 3,5 km/h (1 Bft) W 280 0 min 0,000 mm 0,9 UV-I 159 W/m 7,4 C 9,3 C 4,8 km/h (1 Bft) 100,00 %
18.04.2016 11:17 9,3 C 87 % 1017,9 hPa 0,0 l/m 2,2 km/h (1 Bft) W 280 0 min 0,000 mm 1,0 UV-I 164 W/m 7,2 C 9,3 C 4,8 km/h (1 Bft) 100,00 %
18.04.2016 11:18 9,3 C 87 % 1017,9 hPa 0,0 l/m 0,9 km/h (0 Bft) W 280 0 min 0,000 mm 0,2 UV-I 165 W/m 7,2 C 9,3 C 3,2 km/h (1 Bft) 100,00 %
18.04.2016 11:19 9,3 C 87 % 1017,9 hPa 0,0 l/m 0,0 km/h (0 Bft) W 280 0 min 0,000 mm 1,0 UV-I 170 W/m 7,2 C 9,3 C 0,0 km/h (0 Bft) 100,00 %
18.04.2016 11:20 9,3 C 88 % 1017,9 hPa 0,0 l/m 1,0 km/h (0 Bft) W 280 0 min 0,000 mm 1,1 UV-I 179 W/m 7,4 C 9,3 C 3,2 km/h (1 Bft) 100,00 %
18.04.2016 11:21 9,3 C 88 % 1017,8 hPa 0,0 l/m 1,4 km/h (1 Bft) W 280 0 min 0,000 mm 1,1 UV-I 182 W/m 7,4 C 9,3 C 3,2 km/h (1 Bft) 100,00 %
18.04.2016 11:22 9,3 C 88 % 1017,8 hPa 0,0 l/m 1,0 km/h (0 Bft) W 280 0 min 0,000 mm 1,1 UV-I 185 W/m 7,4 C 9,3 C 1,6 km/h (1 Bft) 90,91 %
18.04.2016 11:23 9,4 C 88 % 1017,8 hPa 0,0 l/m 0,6 km/h (0 Bft) W 280 0 min 0,000 mm 1,1 UV-I 192 W/m 7,5 C 9,4 C 3,2 km/h (1 Bft) 100,00 %
18.04.2016 11:24 9,4 C 88 % 1017,7 hPa 0,0 l/m 1,9 km/h (1 Bft) W 280 0 min 0,000 mm 1,2 UV-I 205 W/m 7,5 C 9,4 C 3,2 km/h (1 Bft) 95,65 %
18.04.2016 11:25 9,4 C 88 % 1017,7 hPa 0,0 l/m 2,3 km/h (1 Bft) W 280 0 min 0,000 mm 1,3 UV-I 220 W/m 7,5 C 9,4 C 3,2 km/h (1 Bft) 100,00 %
18.04.2016 11:26 9,4 C 90 % 1017,7 hPa 0,0 l/m 2,1 km/h (1 Bft) W 280 0 min 0,000 mm 1,4 UV-I 235 W/m 7,8 C 9,4 C 3,2 km/h (1 Bft) 100,00 %
18.04.2016 11:27 9,4 C 89 % 1017,6 hPa 0,0 l/m 2,5 km/h (1 Bft) W 280 0 min 0,000 mm 1,4 UV-I 247 W/m 7,7 C 9,4 C 4,8 km/h (1 Bft) 100,00 %
18.04.2016 11:28 9,4 C 89 % 1017,6 hPa 0,0 l/m 1,3 km/h (1 Bft) W-NW 285 0 min 0,000 mm 1,5 UV-I 252 W/m 7,7 C 9,4 C 3,2 km/h (1 Bft) 100,00 %
18.04.2016 11:29 9,5 C 90 % 1017,7 hPa 0,0 l/m 2,6 km/h (1 Bft) W-NW 288 0 min 0,000 mm 1,5 UV-I 251 W/m 7,9 C 9,5 C 4,8 km/h (1 Bft) 100,00 %
18.04.2016 11:30 9,6 C 90 % 1017,6 hPa 0,0 l/m 1,8 km/h (1 Bft) W-NW 288 0 min 0,000 mm 1,4 UV-I 244 W/m 8,0 C 9,6 C 3,2 km/h (1 Bft) 100,00 %
18.04.2016 11:31 9,6 C 90 % 1017,6 hPa 0,0 l/m 0,9 km/h (0 Bft) W-NW 288 0 min 0,000 mm 1,4 UV-I 234 W/m 8,0 C 9,6 C 1,6 km/h (1 Bft) 100,00 %
18.04.2016 11:32 9,6 C 91 % 1017,6 hPa 0,0 l/m 0,6 km/h (0 Bft) W-NW 288 0 min 0,000 mm 1,3 UV-I 228 W/m 8,2 C 9,6 C 1,6 km/h (1 Bft) 100,00 %
18.04.2016 11:33 9,6 C 89 % 1017,6 hPa 0,0 l/m 2,4 km/h (1 Bft) W-NW 293 0 min 0,000 mm 1,3 UV-I 228 W/m 7,9 C 9,6 C 3,2 km/h (1 Bft) 100,00 %
18.04.2016 11:34 9,6 C 89 % 1017,6 hPa 0,0 l/m 1,3 km/h (1 Bft) W-NW 297 0 min 0,000 mm 1,4 UV-I 230 W/m 7,9 C 9,6 C 3,2 km/h (1 Bft) 100,00 %
18.04.2016 11:35 9,6 C 89 % 1017,6 hPa 0,0 l/m 1,0 km/h (0 Bft) W-NW 297 0 min 0,000 mm 1,4 UV-I 230 W/m 7,9 C 9,6 C 1,6 km/h (1 Bft) 100,00 %
18.04.2016 11:36 9,6 C 87 % 1017,6 hPa 0,0 l/m 3,4 km/h (1 Bft) W-NW 298 0 min 0,000 mm 1,4 UV-I 233 W/m 7,5 C 9,6 C 4,8 km/h (1 Bft) 100,00 %
18.04.2016 11:37 9,6 C 88 % 1017,6 hPa 0,0 l/m 1,2 km/h (1 Bft) W-NW 298 0 min 0,000 mm 1,4 UV-I 236 W/m 7,7 C 9,6 C 1,6 km/h (1 Bft) 100,00 %
18.04.2016 11:38 9,6 C 87 % 1017,6 hPa 0,0 l/m 1,3 km/h (1 Bft) W-NW 297 0 min 0,000 mm 1,4 UV-I 237 W/m 7,5 C 9,6 C 3,2 km/h (1 Bft) 100,00 %
18.04.2016 11:39 9,6 C 86 % 1017,6 hPa 0,0 l/m 3,0 km/h (1 Bft) W-SW 244 0 min 0,000 mm 1,4 UV-I 234 W/m 7,4 C 9,6 C 4,8 km/h (1 Bft) 100,00 %
18.04.2016 11:40 9,6 C 86 % 1017,6 hPa 0,0 l/m 3,3 km/h (1 Bft) W-SW 247 0 min 0,000 mm 1,4 UV-I 230 W/m 7,4 C 9,6 C 4,8 km/h (1 Bft) 100,00 %
18.04.2016 11:41 9,6 C 87 % 1017,6 hPa 0,0 l/m 1,9 km/h (1 Bft) W-SW 247 0 min 0,000 mm 1,3 UV-I 224 W/m 7,5 C 9,6 C 3,2 km/h (1 Bft) 100,00 %
18.04.2016 11:42 9,6 C 87 % 1017,7 hPa 0,0 l/m 1,5 km/h (1 Bft) W-SW 247 0 min 0,000 mm 1,3 UV-I 220 W/m 7,5 C 9,6 C 3,2 km/h (1 Bft) 100,00 %
18.04.2016 11:43 9,6 C 86 % 1017,7 hPa 0,0 l/m 2,1 km/h (1 Bft) W-SW 248 0 min 0,000 mm 1,3 UV-I 217 W/m 7,4 C 9,6 C 3,2 km/h (1 Bft) 100,00 %
18.04.2016 11:44 9,6 C 87 % 1017,6 hPa 0,0 l/m 2,4 km/h (1 Bft) W-SW 255 0 min 0,000 mm 1,3 UV-I 216 W/m 7,5 C 9,6 C 4,8 km/h (1 Bft) 100,00 %
18.04.2016 11:45 9,6 C 86 % 1017,7 hPa 0,0 l/m 2,2 km/h (1 Bft) W-SW 255 0 min 0,000 mm 1,3 UV-I 217 W/m 7,4 C 9,6 C 3,2 km/h (1 Bft) 100,00 %
18.04.2016 11:46 9,6 C 86 % 1017,7 hPa 0,0 l/m 0,3 km/h (0 Bft) W-SW 255 0 min 0,000 mm 1,3 UV-I 220 W/m 7,4 C 9,6 C 1,6 km/h (1 Bft) 91,67 %
18.04.2016 11:47 9,6 C 86 % 1017,6 hPa 0,2 l/m 0,0 km/h (0 Bft) W-SW 255 0 min 0,000 mm 1,4 UV-I 226 W/m 7,4 C 9,6 C 0,0 km/h (0 Bft) 100,00 %
18.04.2016 11:48 9,7 C 86 % 1017,6 hPa 0,0 l/m 0,9 km/h (0 Bft) W-SW 255 0 min 0,000 mm 1,4 UV-I 231 W/m 7,5 C 9,7 C 1,6 km/h (1 Bft) 100,00 %
18.04.2016 11:49 9,7 C 87 % 1017,6 hPa 0,0 l/m 1,5 km/h (1 Bft) W 261 0 min 0,000 mm 1,4 UV-I 235 W/m 7,6 C 9,7 C 4,8 km/h (1 Bft) 100,00 %
18.04.2016 11:50 9,7 C 88 % 1017,6 hPa 0,0 l/m 3,5 km/h (1 Bft) W 281 0 min 0,000 mm 1,4 UV-I 237 W/m 7,8 C 9,7 C 4,8 km/h (1 Bft) 100,00 %
18.04.2016 11:51 9,7 C 86 % 1017,6 hPa 0,0 l/m 2,3 km/h (1 Bft) W 281 0 min 0,000 mm 1,5 UV-I 242 W/m 7,5 C 9,7 C 3,2 km/h (1 Bft) 100,00 %
18.04.2016 11:52 9,7 C 86 % 1017,6 hPa 0,0 l/m 1,4 km/h (1 Bft) W 281 0 min 0,000 mm 1,5 UV-I 245 W/m 7,5 C 9,7 C 3,2 km/h (1 Bft) 100,00 %
18.04.2016 11:53 9,7 C 86 % 1017,6 hPa 0,0 l/m 2,2 km/h (1 Bft) W 281 0 min 0,000 mm 1,5 UV-I 243 W/m 7,5 C 9,7 C 3,2 km/h (1 Bft) 100,00 %
18.04.2016 11:54 9,7 C 86 % 1017,6 hPa 0,0 l/m 1,5 km/h (1 Bft) W 281 0 min 0,000 mm 1,4 UV-I 232 W/m 7,5 C 9,7 C 3,2 km/h (1 Bft) 100,00 %
18.04.2016 11:55 9,7 C 86 % 1017,6 hPa 0,0 l/m 1,7 km/h (1 Bft) W 281 0 min 0,000 mm 1,3 UV-I 218 W/m 7,5 C 9,7 C 4,8 km/h (1 Bft) 100,00 %
18.04.2016 11:56 9,7 C 88 % 1017,6 hPa 0,0 l/m 2,1 km/h (1 Bft) W 281 0 min 0,000 mm 1,3 UV-I 205 W/m 7,8 C 9,7 C 3,2 km/h (1 Bft) 100,00 %
18.04.2016 11:57 9,7 C 87 % 1017,6 hPa 0,0 l/m 3,6 km/h (1 Bft) W 277 0 min 0,000 mm 1,2 UV-I 192 W/m 7,6 C 9,7 C 4,8 km/h (1 Bft) 100,00 %
18.04.2016 11:58 9,7 C 85 % 1017,7 hPa 0,0 l/m 4,8 km/h (1 Bft) W 277 0 min 0,000 mm 1,1 UV-I 181 W/m 7,3 C 9,7 C 6,4 km/h (2 Bft) 100,00 %
18.04.2016 11:59 9,7 C 84 % 1017,7 hPa 0,0 l/m 3,3 km/h (1 Bft) W 277 0 min 0,000 mm 1,1 UV-I 173 W/m 7,1 C 9,7 C 4,8 km/h (1 Bft) 96,30 %
18.04.2016 12:00 9,6 C 84 % 1017,7 hPa 0,0 l/m 2,9 km/h (1 Bft) W 277 0 min 0,000 mm 1,0 UV-I 171 W/m 7,0 C 9,6 C 4,8 km/h (1 Bft) 100,00 %
18.04.2016 12:01 9,6 C 85 % 1017,7 hPa 0,0 l/m 1,3 km/h (1 Bft) W 277 0 min 0,102 mm 1,0 UV-I 172 W/m 7,2 C 9,6 C 3,2 km/h (1 Bft) 100,00 %
18.04.2016 12:02 9,6 C 84 % 1017,7 hPa 0,0 l/m 0,4 km/h (0 Bft) W 277 0 min 0,000 mm 1,1 UV-I 176 W/m 7,0 C 9,6 C 1,6 km/h (1 Bft) 100,00 %
18.04.2016 12:03 9,6 C 85 % 1017,6 hPa 0,0 l/m 0,8 km/h (0 Bft) W 277 0 min 0,000 mm 1,1 UV-I 180 W/m 7,2 C 9,6 C 1,6 km/h (1 Bft) 100,00 %
18.04.2016 12:04 9,5 C 84 % 1017,7 hPa 0,0 l/m 0,9 km/h (0 Bft) W 277 0 min 0,000 mm 1,1 UV-I 184 W/m 6,9 C 9,5 C 1,6 km/h (1 Bft) 96,15 %
18.04.2016 12:05 9,5 C 84 % 1017,6 hPa 0,0 l/m 0,2 km/h (0 Bft) W 277 0 min 0,000 mm 1,2 UV-I 188 W/m 6,9 C 9,5 C 1,6 km/h (1 Bft) 100,00 %
18.04.2016 12:06 9,6 C 80 % 1017,6 hPa 0,0 l/m 0,0 km/h (0 Bft) W 277 0 min 0,000 mm 1,2 UV-I 193 W/m 6,3 C 9,6 C 0,0 km/h (0 Bft) 95,83 %
18.04.2016 12:07 9,6 C 80 % 1017,6 hPa 0,0 l/m 0,3 km/h (0 Bft) W 277 0 min 0,000 mm 1,2 UV-I 199 W/m 6,3 C 9,6 C 1,6 km/h (1 Bft) 100,00 %
18.04.2016 12:08 9,6 C 80 % 1017,6 hPa 0,0 l/m 0,1 km/h (0 Bft) W 277 0 min 0,000 mm 1,2 UV-I 205 W/m 6,3 C 9,6 C 1,6 km/h (1 Bft) 98,59 %
18.04.2016 12:09 9,6 C 81 % 1017,6 hPa 0,0 l/m 0,0 km/h (0 Bft) W 277 0 min 0,000 mm 1,3 UV-I 211 W/m 6,5 C 9,6 C 0,0 km/h (0 Bft) 96,23 %
18.04.2016 12:10 9,7 C 84 % 1017,5 hPa 0,0 l/m 1,0 km/h (0 Bft) W 277 0 min 0,000 mm 1,3 UV-I 214 W/m 7,1 C 9,7 C 3,2 km/h (1 Bft) 100,00 %
18.04.2016 12:11 9,7 C 85 % 1017,6 hPa 0,0 l/m 1,1 km/h (1 Bft) W 277 0 min 0,000 mm 1,3 UV-I 216 W/m 7,3 C 9,7 C 1,6 km/h (1 Bft) 100,00 %
18.04.2016 12:12 9,7 C 84 % 1017,5 hPa 0,0 l/m 0,3 km/h (0 Bft) W 277 0 min 0,000 mm 1,3 UV-I 217 W/m 7,1 C 9,7 C 1,6 km/h (1 Bft) 100,00 %
18.04.2016 12:13 9,7 C 86 % 1017,5 hPa 0,0 l/m 2,1 km/h (1 Bft) W 277 0 min 0,000 mm 1,3 UV-I 218 W/m 7,5 C 9,7 C 3,2 km/h (1 Bft) 100,00 %
18.04.2016 12:14 9,7 C 85 % 1017,5 hPa 0,0 l/m 0,2 km/h (0 Bft) W 277 0 min 0,000 mm 1,4 UV-I 219 W/m 7,3 C 9,7 C 1,6 km/h (1 Bft) 100,00 %
18.04.2016 12:15 9,7 C 84 % 1017,4 hPa 0,0 l/m 1,7 km/h (1 Bft) W 278 0 min 0,000 mm 1,4 UV-I 221 W/m 7,1 C 9,7 C 3,2 km/h (1 Bft) 100,00 %
18.04.2016 12:16 9,7 C 86 % 1017,4 hPa 0,0 l/m 0,4 km/h (0 Bft) W 278 0 min 0,000 mm 1,4 UV-I 223 W/m 7,5 C 9,7 C 1,6 km/h (1 Bft) 100,00 %
18.04.2016 12:17 9,8 C 86 % 1017,4 hPa 0,0 l/m 0,3 km/h (0 Bft) W 278 0 min 0,000 mm 1,4 UV-I 223 W/m 7,6 C 9,8 C 1,6 km/h (1 Bft) 100,00 %
18.04.2016 12:18 9,8 C 86 % 1017,4 hPa 0,0 l/m 1,0 km/h (0 Bft) W 278 0 min 0,000 mm 1,4 UV-I 220 W/m 7,6 C 9,8 C 3,2 km/h (1 Bft) 100,00 %
18.04.2016 12:19 9,9 C 86 % 1017,4 hPa 0,0 l/m 0,4 km/h (0 Bft) W 278 0 min 0,000 mm 1,4 UV-I 216 W/m 7,7 C 9,9 C 1,6 km/h (1 Bft) 100,00 %
18.04.2016 12:20 9,9 C 83 % 1017,5 hPa 0,0 l/m 1,0 km/h (0 Bft) W 278 0 min 0,000 mm 1,3 UV-I 210 W/m 7,2 C 9,9 C 1,6 km/h (1 Bft) 100,00 %
18.04.2016 12:21 9,8 C 82 % 1017,6 hPa 0,0 l/m 1,3 km/h (1 Bft) W 278 0 min 0,000 mm 1,3 UV-I 202 W/m 6,9 C 9,8 C 3,2 km/h (1 Bft) 100,00 %
18.04.2016 12:22 9,8 C 81 % 1017,6 hPa 0,0 l/m 0,1 km/h (0 Bft) W 278 0 min 0,000 mm 1,2 UV-I 196 W/m 6,7 C 9,8 C 1,6 km/h (1 Bft) 100,00 %
18.04.2016 12:23 9,8 C 83 % 1017,6 hPa 0,0 l/m 0,1 km/h (0 Bft) W 278 0 min 0,000 mm 1,2 UV-I 192 W/m 7,1 C 9,8 C 1,6 km/h (1 Bft) 100,00 %
18.04.2016 12:24 9,8 C 81 % 1017,6 hPa 0,0 l/m 0,0 km/h (0 Bft) W 278 0 min 0,000 mm 1,2 UV-I 190 W/m 6,7 C 9,8 C 0,0 km/h (0 Bft) 100,00 %
18.04.2016 12:25 9,8 C 82 % 1017,6 hPa 0,0 l/m 0,0 km/h (0 Bft) W 278 0 min 0,000 mm 1,2 UV-I 193 W/m 6,9 C 9,8 C 0,0 km/h (0 Bft) 100,00 %
18.04.2016 12:26 9,7 C 82 % 1017,6 hPa 0,0 l/m 0,0 km/h (0 Bft) W 278 0 min 0,000 mm 1,3 UV-I 202 W/m 6,8 C 9,7 C 0,0 km/h (0 Bft) 100,00 %
18.04.2016 12:27 9,7 C 84 % 1017,6 hPa 0,0 l/m 0,1 km/h (0 Bft) W 278 0 min 0,000 mm 1,3 UV-I 210 W/m 7,1 C 9,7 C 1,6 km/h (1 Bft) 100,00 %
18.04.2016 12:28 9,7 C 82 % 1017,6 hPa 0,0 l/m 0,0 km/h (0 Bft) W 278 0 min 0,000 mm 1,3 UV-I 211 W/m 6,8 C 9,7 C 0,0 km/h (0 Bft) 100,00 %
18.04.2016 12:29 9,7 C 82 % 1017,6 hPa 0,0 l/m 0,0 km/h (0 Bft) W 278 0 min 0,000 mm 1,3 UV-I 204 W/m 6,8 C 9,7 C 0,0 km/h (0 Bft) 100,00 %
18.04.2016 12:30 9,7 C 82 % 1017,6 hPa 0,0 l/m 0,4 km/h (0 Bft) W 278 0 min 0,000 mm 1,2 UV-I 191 W/m 6,8 C 9,7 C 1,6 km/h (1 Bft) 100,00 %
18.04.2016 12:31 9,7 C 82 % 1017,6 hPa 0,0 l/m 0,5 km/h (0 Bft) W 278 0 min 0,000 mm 1,1 UV-I 178 W/m 6,8 C 9,7 C 1,6 km/h (1 Bft) 100,00 %
18.04.2016 12:32 9,7 C 83 % 1017,6 hPa 0,0 l/m 0,4 km/h (0 Bft) W 278 0 min 0,000 mm 1,1 UV-I 172 W/m 7,0 C 9,7 C 1,6 km/h (1 Bft) 96,15 %
18.04.2016 12:33 9,7 C 81 % 1017,6 hPa 0,0 l/m 0,0 km/h (0 Bft) W 278 0 min 0,000 mm 1,1 UV-I 172 W/m 6,6 C 9,7 C 0,0 km/h (0 Bft) 100,00 %
18.04.2016 12:34 9,7 C 81 % 1017,6 hPa 0,0 l/m 0,0 km/h (0 Bft) W 278 0 min 0,000 mm 1,1 UV-I 176 W/m 6,6 C 9,7 C 0,0 km/h (0 Bft) 95,65 %
18.04.2016 12:35 9,7 C 80 % 1017,6 hPa 0,0 l/m 0,0 km/h (0 Bft) W 278 0 min 0,000 mm 1,2 UV-I 184 W/m 6,4 C 9,7 C 0,0 km/h (0 Bft) 100,00 %
18.04.2016 12:36 9,8 C 82 % 1017,5 hPa 0,0 l/m 0,3 km/h (0 Bft) W 278 0 min 0,000 mm 1,2 UV-I 192 W/m 6,9 C 9,8 C 1,6 km/h (1 Bft) 92,31 %
18.04.2016 12:37 9,8 C 80 % 1017,5 hPa 0,0 l/m 0,5 km/h (0 Bft) W 278 0 min 0,000 mm 1,2 UV-I 196 W/m 6,5 C 9,8 C 1,6 km/h (1 Bft) 100,00 %
18.04.2016 12:38 9,7 C 80 % 1017,5 hPa 0,0 l/m 0,6 km/h (0 Bft) W 278 0 min 0,000 mm 1,2 UV-I 198 W/m 6,4 C 9,7 C 1,6 km/h (1 Bft) 93,10 %
18.04.2016 12:39 9,7 C 80 % 1017,5 hPa 0,0 l/m 0,1 km/h (0 Bft) W 278 0 min 0,000 mm 1,2 UV-I 197 W/m 6,4 C 9,7 C 1,6 km/h (1 Bft) 100,00 %
18.04.2016 12:40 9,7 C 81 % 1017,5 hPa 0,0 l/m 0,7 km/h (0 Bft) W 278 0 min 0,000 mm 1,2 UV-I 195 W/m 6,6 C 9,7 C 3,2 km/h (1 Bft) 95,65 %
18.04.2016 12:41 9,7 C 84 % 1017,5 hPa 0,0 l/m 1,1 km/h (1 Bft) W 278 0 min 0,000 mm 1,2 UV-I 193 W/m 7,1 C 9,7 C 3,2 km/h (1 Bft) 95,83 %
18.04.2016 12:42 9,8 C 86 % 1017,5 hPa 0,0 l/m 0,0 km/h (0 Bft) W 278 0 min 0,000 mm 1,2 UV-I 191 W/m 7,6 C 9,8 C 0,0 km/h (0 Bft) 100,00 %
18.04.2016 12:43 9,9 C 85 % 1017,6 hPa 0,0 l/m 0,1 km/h (0 Bft) W 278 0 min 0,000 mm 1,2 UV-I 188 W/m 7,5 C 9,9 C 1,6 km/h (1 Bft) 95,83 %
18.04.2016 12:44 9,9 C 82 % 1017,6 hPa 0,0 l/m 0,0 km/h (0 Bft) W 278 0 min 0,000 mm 1,2 UV-I 181 W/m 7,0 C 9,9 C 0,0 km/h (0 Bft) 100,00 %
18.04.2016 12:45 9,9 C 81 % 1017,7 hPa 0,0 l/m 0,2 km/h (0 Bft) W 278 0 min 0,000 mm 1,1 UV-I 176 W/m 6,8 C 9,9 C 1,6 km/h (1 Bft) 96,30 %
18.04.2016 12:46 9,9 C 82 % 1017,6 hPa 0,0 l/m 1,3 km/h (1 Bft) W 278 0 min 0,000 mm 1,1 UV-I 174 W/m 7,0 C 9,9 C 1,6 km/h (1 Bft) 100,00 %
18.04.2016 12:47 9,9 C 82 % 1017,6 hPa 0,0 l/m 0,5 km/h (0 Bft) W 278 0 min 0,000 mm 1,1 UV-I 173 W/m 7,0 C 9,9 C 1,6 km/h (1 Bft) 96,55 %
18.04.2016 12:48 9,9 C 83 % 1017,6 hPa 0,0 l/m 0,0 km/h (0 Bft) W 278 0 min 0,000 mm 1,1 UV-I 169 W/m 7,2 C 9,9 C 0,0 km/h (0 Bft) 96,15 %
18.04.2016 12:49 9,9 C 84 % 1017,7 hPa 0,0 l/m 0,1 km/h (0 Bft) W 278 0 min 0,000 mm 1,0 UV-I 160 W/m 7,3 C 9,9 C 1,6 km/h (1 Bft) 100,00 %
18.04.2016 12:50 9,9 C 81 % 1017,7 hPa 0,0 l/m 0,3 km/h (0 Bft) W 278 0 min 0,000 mm 1,0 UV-I 158 W/m 6,8 C 9,9 C 1,6 km/h (1 Bft) 95,65 %
18.04.2016 12:51 9,9 C 81 % 1017,7 hPa 0,0 l/m 0,2 km/h (0 Bft) W 278 0 min 0,000 mm 1,0 UV-I 161 W/m 6,8 C 9,9 C 1,6 km/h (1 Bft) 100,00 %
18.04.2016 12:52 9,9 C 81 % 1017,7 hPa 0,0 l/m 0,5 km/h (0 Bft) W 278 0 min 0,000 mm 1,0 UV-I 165 W/m 6,8 C 9,9 C 1,6 km/h (1 Bft) 91,67 %
18.04.2016 12:53 9,9 C 83 % 1017,7 hPa 0,0 l/m 0,2 km/h (0 Bft) W 278 0 min 0,000 mm 1,1 UV-I 170 W/m 7,2 C 9,9 C 1,6 km/h (1 Bft) 100,00 %
18.04.2016 12:54 9,8 C 82 % 1017,6 hPa 0,0 l/m 0,1 km/h (0 Bft) W 278 0 min 0,000 mm 1,1 UV-I 174 W/m 6,9 C 9,8 C 1,6 km/h (1 Bft) 95,83 %
18.04.2016 12:55 9,8 C 80 % 1017,7 hPa 0,0 l/m 1,2 km/h (1 Bft) W 278 0 min 0,000 mm 1,1 UV-I 180 W/m 6,5 C 9,8 C 1,6 km/h (1 Bft) 100,00 %
18.04.2016 12:56 9,8 C 80 % 1017,7 hPa 0,0 l/m 0,5 km/h (0 Bft) W 278 0 min 0,000 mm 1,1 UV-I 181 W/m 6,5 C 9,8 C 1,6 km/h (1 Bft) 95,83 %
18.04.2016 12:57 9,8 C 81 % 1017,7 hPa 0,0 l/m 1,3 km/h (1 Bft) W 278 0 min 0,000 mm 1,1 UV-I 179 W/m 6,7 C 9,8 C 1,6 km/h (1 Bft) 100,00 %
18.04.2016 12:58 9,8 C 82 % 1017,8 hPa 0,0 l/m 0,1 km/h (0 Bft) W 278 0 min 0,000 mm 1,1 UV-I 179 W/m 6,9 C 9,8 C 1,6 km/h (1 Bft) 95,83 %
18.04.2016 12:59 9,8 C 81 % 1017,7 hPa 0,0 l/m 1,3 km/h (1 Bft) W 278 0 min 0,000 mm 1,1 UV-I 179 W/m 6,7 C 9,8 C 3,2 km/h (1 Bft) 96,15 %
18.04.2016 13:00 9,8 C 80 % 1017,8 hPa 0,0 l/m 2,6 km/h (1 Bft) W 278 0 min 0,000 mm 1,1 UV-I 179 W/m 6,5 C 9,8 C 3,2 km/h (1 Bft) 100,00 %
18.04.2016 13:01 9,8 C 81 % 1017,8 hPa 0,0 l/m 1,0 km/h (0 Bft) W 278 0 min 0,102 mm 1,1 UV-I 180 W/m 6,7 C 9,8 C 1,6 km/h (1 Bft) 91,30 %
18.04.2016 13:02 9,7 C 82 % 1017,8 hPa 0,0 l/m 0,1 km/h (0 Bft) W 278 0 min 0,000 mm 1,1 UV-I 177 W/m 6,8 C 9,7 C 1,6 km/h (1 Bft) 100,00 %
18.04.2016 13:03 9,7 C 81 % 1017,8 hPa 0,0 l/m 0,0 km/h (0 Bft) W 278 0 min 0,000 mm 1,2 UV-I 188 W/m 6,6 C 9,7 C 0,0 km/h (0 Bft) 96,15 %
18.04.2016 13:04 9,7 C 83 % 1017,7 hPa 0,0 l/m 0,0 km/h (0 Bft) W 278 0 min 0,000 mm 1,3 UV-I 208 W/m 7,0 C 9,7 C 0,0 km/h (0 Bft) 100,00 %
18.04.2016 13:05 9,8 C 84 % 1017,7 hPa 0,0 l/m 0,0 km/h (0 Bft) W 278 0 min 0,000 mm 1,3 UV-I 198 W/m 7,2 C 9,8 C 0,0 km/h (0 Bft) 96,15 %
18.04.2016 13:06 9,8 C 84 % 1017,7 hPa 0,0 l/m 0,2 km/h (0 Bft) W 278 0 min 0,000 mm 1,2 UV-I 196 W/m 7,2 C 9,8 C 1,6 km/h (1 Bft) 100,00 %
18.04.2016 13:07 9,8 C 82 % 1017,7 hPa 0,0 l/m 0,0 km/h (0 Bft) W 278 0 min 0,000 mm 1,3 UV-I 201 W/m 6,9 C 9,8 C 0,0 km/h (0 Bft) 95,83 %
18.04.2016 13:08 9,8 C 82 % 1017,7 hPa 0,0 l/m 0,3 km/h (0 Bft) W 278 0 min 0,000 mm 1,2 UV-I 198 W/m 6,9 C 9,8 C 1,6 km/h (1 Bft) 96,15 %
18.04.2016 13:09 9,8 C 82 % 1017,7 hPa 0,0 l/m 0,0 km/h (0 Bft) W 278 0 min 0,000 mm 1,2 UV-I 197 W/m 6,9 C 9,8 C 0,0 km/h (0 Bft) 100,00 %
18.04.2016 13:10 9,9 C 83 % 1017,8 hPa 0,0 l/m 0,1 km/h (0 Bft) W 278 0 min 0,000 mm 1,2 UV-I 201 W/m 7,2 C 9,9 C 1,6 km/h (1 Bft) 92,31 %
18.04.2016 13:11 9,9 C 82 % 1017,8 hPa 0,0 l/m 0,5 km/h (0 Bft) W 278 0 min 0,000 mm 1,2 UV-I 205 W/m 7,0 C 9,9 C 1,6 km/h (1 Bft) 100,00 %
18.04.2016 13:12 9,8 C 82 % 1017,7 hPa 0,0 l/m 0,3 km/h (0 Bft) W 278 0 min 0,000 mm 1,2 UV-I 208 W/m 6,9 C 9,8 C 1,6 km/h (1 Bft) 95,65 %
18.04.2016 13:13 9,8 C 82 % 1017,7 hPa 0,0 l/m 0,0 km/h (0 Bft) W 278 0 min 0,000 mm 1,3 UV-I 208 W/m 6,9 C 9,8 C 0,0 km/h (0 Bft) 100,00 %
18.04.2016 13:14 9,9 C 84 % 1017,6 hPa 0,0 l/m 0,1 km/h (0 Bft) W 278 0 min 0,000 mm 1,3 UV-I 210 W/m 7,3 C 9,9 C 1,6 km/h (1 Bft) 100,00 %
18.04.2016 13:15 9,9 C 82 % 1017,6 hPa 0,0 l/m 0,0 km/h (0 Bft) W 278 0 min 0,000 mm 1,3 UV-I 216 W/m 7,0 C 9,9 C 0,0 km/h (0 Bft) 100,00 %
18.04.2016 13:16 9,8 C 82 % 1017,6 hPa 0,0 l/m 0,5 km/h (0 Bft) W-NW 282 0 min 0,000 mm 1,2 UV-I 211 W/m 6,9 C 9,8 C 3,2 km/h (1 Bft) 100,00 %
18.04.2016 13:17 9,9 C 83 % 1017,5 hPa 0,0 l/m 2,0 km/h (1 Bft) N-NW 329 0 min 0,000 mm 1,2 UV-I 206 W/m 7,2 C 9,9 C 3,2 km/h (1 Bft) 96,30 %
18.04.2016 13:18 9,9 C 84 % 1017,6 hPa 0,0 l/m 1,2 km/h (1 Bft) W-NW 300 0 min 0,000 mm 1,2 UV-I 203 W/m 7,3 C 9,9 C 6,4 km/h (2 Bft) 92,31 %
18.04.2016 13:19 9,9 C 85 % 1017,6 hPa 0,0 l/m 1,8 km/h (1 Bft) NW 313 0 min 0,000 mm 1,2 UV-I 200 W/m 7,5 C 9,9 C 4,8 km/h (1 Bft) 96,67 %
18.04.2016 13:20 10,0 C 86 % 1017,6 hPa 0,0 l/m 0,6 km/h (0 Bft) N-NW 327 0 min 0,000 mm 1,1 UV-I 194 W/m 7,8 C 10,0 C 1,6 km/h (1 Bft) 100,00 %
18.04.2016 13:21 10,0 C 87 % 1017,6 hPa 0,0 l/m 0,9 km/h (0 Bft) NW 315 0 min 0,000 mm 1,1 UV-I 195 W/m 7,9 C 10,0 C 3,2 km/h (1 Bft) 100,00 %
18.04.2016 13:22 10,1 C 87 % 1017,6 hPa 0,0 l/m 2,1 km/h (1 Bft) NW 305 0 min 0,000 mm 1,1 UV-I 199 W/m 8,0 C 10,1 C 3,2 km/h (1 Bft) 95,65 %
18.04.2016 13:23 10,1 C 86 % 1017,6 hPa 0,0 l/m 1,9 km/h (1 Bft) NW 307 0 min 0,000 mm 1,2 UV-I 201 W/m 7,9 C 10,1 C 3,2 km/h (1 Bft) 100,00 %
18.04.2016 13:24 10,0 C 86 % 1017,6 hPa 0,0 l/m 0,7 km/h (0 Bft) NW 307 0 min 0,000 mm 1,2 UV-I 207 W/m 7,8 C 10,0 C 3,2 km/h (1 Bft) 95,65 %
18.04.2016 13:25 10,0 C 85 % 1017,6 hPa 0,0 l/m 1,1 km/h (1 Bft) N 350 0 min 0,000 mm 1,2 UV-I 209 W/m 7,6 C 10,0 C 3,2 km/h (1 Bft) 100,00 %
18.04.2016 13:26 10,0 C 86 % 1017,4 hPa 0,0 l/m 1,3 km/h (1 Bft) N 355 0 min 0,000 mm 1,2 UV-I 209 W/m 7,8 C 10,0 C 3,2 km/h (1 Bft) 100,00 %
18.04.2016 13:27 10,1 C 87 % 1017,5 hPa 0,0 l/m 0,9 km/h (0 Bft) N 355 0 min 0,000 mm 1,2 UV-I 209 W/m 8,0 C 10,1 C 3,2 km/h (1 Bft) 100,00 %
18.04.2016 13:28 10,0 C 86 % 1017,5 hPa 0,0 l/m 1,0 km/h (0 Bft) N 350 0 min 0,000 mm 1,2 UV-I 212 W/m 7,8 C 10,0 C 1,6 km/h (1 Bft) 100,00 %
18.04.2016 13:29 10,1 C 86 % 1017,5 hPa 0,0 l/m 1,5 km/h (1 Bft) N 5 0 min 0,000 mm 1,2 UV-I 214 W/m 7,9 C 10,1 C 4,8 km/h (1 Bft) 98,53 %
18.04.2016 13:30 10,1 C 86 % 1017,5 hPa 0,0 l/m 4,8 km/h (1 Bft) N-NO 13 0 min 0,000 mm 1,3 UV-I 220 W/m 7,9 C 10,1 C 6,4 km/h (2 Bft) 100,00 %
18.04.2016 13:31 10,1 C 87 % 1017,5 hPa 0,0 l/m 4,8 km/h (1 Bft) N-NO 26 0 min 0,000 mm 1,3 UV-I 228 W/m 8,0 C 10,1 C 6,4 km/h (2 Bft) 100,00 %
18.04.2016 13:32 10,1 C 87 % 1017,5 hPa 0,0 l/m 1,5 km/h (1 Bft) N-NW 336 0 min 0,000 mm 1,4 UV-I 236 W/m 8,0 C 10,1 C 3,2 km/h (1 Bft) 100,00 %
18.04.2016 13:33 10,1 C 86 % 1017,4 hPa 0,0 l/m 0,6 km/h (0 Bft) N-NW 338 0 min 0,000 mm 1,4 UV-I 248 W/m 7,9 C 10,1 C 1,6 km/h (1 Bft) 100,00 %
18.04.2016 13:34 10,1 C 86 % 1017,5 hPa 0,0 l/m 0,6 km/h (0 Bft) N-NW 338 0 min 0,000 mm 1,5 UV-I 256 W/m 7,9 C 10,1 C 1,6 km/h (1 Bft) 100,00 %
18.04.2016 13:35 10,1 C 86 % 1017,5 hPa 0,0 l/m 1,4 km/h (1 Bft) N-NW 328 0 min 0,000 mm 1,5 UV-I 254 W/m 7,9 C 10,1 C 4,8 km/h (1 Bft) 100,00 %
18.04.2016 13:36 10,1 C 86 % 1017,5 hPa 0,0 l/m 1,9 km/h (1 Bft) NW 311 0 min 0,000 mm 1,5 UV-I 255 W/m 7,9 C 10,1 C 4,8 km/h (1 Bft) 100,00 %
18.04.2016 13:37 10,0 C 87 % 1017,5 hPa 0,0 l/m 1,4 km/h (1 Bft) N 5 0 min 0,000 mm 1,5 UV-I 261 W/m 7,9 C 10,0 C 3,2 km/h (1 Bft) 100,00 %
18.04.2016 13:38 10,1 C 87 % 1017,5 hPa 0,0 l/m 1,2 km/h (1 Bft) N-NW 336 0 min 0,000 mm 1,6 UV-I 265 W/m 8,0 C 10,1 C 3,2 km/h (1 Bft) 97,62 %
18.04.2016 13:39 10,1 C 86 % 1017,5 hPa 0,0 l/m 1,2 km/h (1 Bft) N-NW 336 0 min 0,000 mm 1,6 UV-I 264 W/m 7,9 C 10,1 C 3,2 km/h (1 Bft) 100,00 %
18.04.2016 13:40 10,1 C 86 % 1017,5 hPa 0,0 l/m 1,2 km/h (1 Bft) N 9 0 min 0,000 mm 1,6 UV-I 262 W/m 7,9 C 10,1 C 4,8 km/h (1 Bft) 100,00 %
18.04.2016 13:41 10,1 C 87 % 1017,5 hPa 0,0 l/m 3,5 km/h (1 Bft) N-NO 31 0 min 0,000 mm 1,6 UV-I 262 W/m 8,0 C 10,1 C 6,4 km/h (2 Bft) 100,00 %
18.04.2016 13:42 10,1 C 88 % 1017,5 hPa 0,0 l/m 1,3 km/h (1 Bft) N-NW 341 0 min 0,000 mm 1,6 UV-I 261 W/m 8,2 C 10,1 C 3,2 km/h (1 Bft) 100,00 %
18.04.2016 13:43 10,1 C 88 % 1017,5 hPa 0,0 l/m 1,5 km/h (1 Bft) N-NW 348 0 min 0,000 mm 1,6 UV-I 255 W/m 8,2 C 10,1 C 3,2 km/h (1 Bft) 98,56 %
18.04.2016 13:44 10,1 C 88 % 1017,6 hPa 0,0 l/m 3,0 km/h (1 Bft) N-NW 344 0 min 0,000 mm 1,5 UV-I 246 W/m 8,2 C 10,1 C 6,4 km/h (2 Bft) 97,56 %
18.04.2016 13:45 10,1 C 87 % 1017,6 hPa 0,0 l/m 1,3 km/h (1 Bft) N-NW 344 0 min 0,000 mm 1,4 UV-I 241 W/m 8,0 C 10,1 C 3,2 km/h (1 Bft) 100,00 %
18.04.2016 13:46 10,1 C 87 % 1017,6 hPa 0,0 l/m 0,6 km/h (0 Bft) N-NW 340 0 min 0,000 mm 1,4 UV-I 235 W/m 8,0 C 10,1 C 1,6 km/h (1 Bft) 100,00 %
18.04.2016 13:47 10,1 C 88 % 1017,7 hPa 0,0 l/m 1,6 km/h (1 Bft) N-NW 333 0 min 0,000 mm 1,4 UV-I 230 W/m 8,2 C 10,1 C 3,2 km/h (1 Bft) 100,00 %
18.04.2016 13:48 10,1 C 87 % 1017,6 hPa 0,0 l/m 1,5 km/h (1 Bft) N-NW 332 0 min 0,000 mm 1,3 UV-I 228 W/m 8,0 C 10,1 C 3,2 km/h (1 Bft) 100,00 %
18.04.2016 13:49 10,1 C 88 % 1017,7 hPa 0,0 l/m 4,0 km/h (1 Bft) N-NO 14 0 min 0,000 mm 1,3 UV-I 226 W/m 8,2 C 10,1 C 8,0 km/h (2 Bft) 100,00 %
18.04.2016 13:50 10,1 C 88 % 1017,7 hPa 0,0 l/m 3,7 km/h (1 Bft) N-NO 15 0 min 0,000 mm 1,3 UV-I 223 W/m 8,2 C 10,1 C 6,4 km/h (2 Bft) 95,65 %
18.04.2016 13:51 10,2 C 89 % 1017,8 hPa 0,0 l/m 3,1 km/h (1 Bft) N-NO 15 0 min 0,000 mm 1,3 UV-I 223 W/m 8,5 C 10,2 C 4,8 km/h (1 Bft) 96,30 %
18.04.2016 13:52 10,1 C 88 % 1017,8 hPa 0,0 l/m 1,7 km/h (1 Bft) N-NO 15 0 min 0,000 mm 1,3 UV-I 222 W/m 8,2 C 10,1 C 3,2 km/h (1 Bft) 100,00 %
18.04.2016 13:53 10,1 C 86 % 1017,8 hPa 0,0 l/m 1,6 km/h (1 Bft) N-NO 15 0 min 0,000 mm 1,3 UV-I 220 W/m 7,9 C 10,1 C 3,2 km/h (1 Bft) 100,00 %
18.04.2016 13:54 10,1 C 87 % 1017,9 hPa 0,0 l/m 3,9 km/h (1 Bft) N-NO 17 0 min 0,000 mm 1,3 UV-I 220 W/m 8,0 C 10,1 C 6,4 km/h (2 Bft) 100,00 %
18.04.2016 13:55 10,1 C 88 % 1017,9 hPa 0,0 l/m 5,2 km/h (1 Bft) NO 40 0 min 0,000 mm 1,3 UV-I 217 W/m 8,2 C 10,1 C 6,4 km/h (2 Bft) 100,00 %
18.04.2016 13:56 10,1 C 88 % 1017,8 hPa 0,0 l/m 6,0 km/h (2 Bft) NO 55 0 min 0,000 mm 1,3 UV-I 213 W/m 8,2 C 10,1 C 8,0 km/h (2 Bft) 100,00 %
18.04.2016 13:57 10,1 C 87 % 1017,9 hPa 0,0 l/m 6,6 km/h (2 Bft) NO 39 0 min 0,000 mm 1,3 UV-I 211 W/m 8,0 C 10,0 C 8,0 km/h (2 Bft) 100,00 %
18.04.2016 13:58 10,1 C 86 % 1017,8 hPa 0,0 l/m 4,1 km/h (1 Bft) N-NO 17 0 min 0,000 mm 1,3 UV-I 209 W/m 7,9 C 10,1 C 6,4 km/h (2 Bft) 100,00 %
18.04.2016 13:59 10,2 C 88 % 1017,9 hPa 0,0 l/m 3,5 km/h (1 Bft) N-NO 14 0 min 0,000 mm 1,3 UV-I 210 W/m 8,3 C 10,2 C 6,4 km/h (2 Bft) 100,00 %
18.04.2016 14:00 10,2 C 87 % 1017,8 hPa 0,0 l/m 3,4 km/h (1 Bft) N-NO 23 0 min 0,000 mm 1,3 UV-I 211 W/m 8,1 C 10,2 C 6,4 km/h (2 Bft) 100,00 %
18.04.2016 14:01 10,2 C 87 % 1017,8 hPa 0,0 l/m 3,8 km/h (1 Bft) N-NO 23 0 min 0,101 mm 1,3 UV-I 210 W/m 8,1 C 10,2 C 6,4 km/h (2 Bft) 100,00 %
18.04.2016 14:02 10,2 C 87 % 1017,8 hPa 0,0 l/m 5,9 km/h (2 Bft) NO 37 0 min 0,000 mm 1,2 UV-I 206 W/m 8,1 C 10,2 C 8,0 km/h (2 Bft) 100,00 %
18.04.2016 14:03 10,2 C 88 % 1017,7 hPa 0,0 l/m 4,7 km/h (1 Bft) NO 53 0 min 0,000 mm 1,2 UV-I 198 W/m 8,3 C 10,2 C 6,4 km/h (2 Bft) 100,00 %
18.04.2016 14:04 10,2 C 86 % 1017,8 hPa 0,0 l/m 5,3 km/h (1 Bft) NO 39 0 min 0,000 mm 1,2 UV-I 190 W/m 8,0 C 10,2 C 6,4 km/h (2 Bft) 100,00 %
18.04.2016 14:05 10,2 C 86 % 1017,8 hPa 0,0 l/m 4,9 km/h (1 Bft) N-NO 30 0 min 0,000 mm 1,1 UV-I 181 W/m 8,0 C 10,2 C 6,4 km/h (2 Bft) 100,00 %
18.04.2016 14:06 10,2 C 86 % 1017,7 hPa 0,0 l/m 3,7 km/h (1 Bft) N-NO 12 0 min 0,000 mm 1,0 UV-I 175 W/m 8,0 C 10,2 C 6,4 km/h (2 Bft) 100,00 %
18.04.2016 14:07 10,1 C 84 % 1017,8 hPa 0,0 l/m 1,9 km/h (1 Bft) N-NO 14 0 min 0,000 mm 1,0 UV-I 170 W/m 7,5 C 10,1 C 3,2 km/h (1 Bft) 100,00 %
18.04.2016 14:08 10,1 C 86 % 1017,7 hPa 0,0 l/m 1,5 km/h (1 Bft) N-NO 15 0 min 0,000 mm 1,0 UV-I 167 W/m 7,9 C 10,1 C 3,2 km/h (1 Bft) 100,00 %
18.04.2016 14:09 10,1 C 86 % 1017,7 hPa 0,0 l/m 0,2 km/h (0 Bft) N-NO 15 0 min 0,000 mm 1,0 UV-I 165 W/m 7,9 C 10,1 C 1,6 km/h (1 Bft) 95,65 %
18.04.2016 14:10 10,2 C 87 % 1017,7 hPa 0,0 l/m 2,9 km/h (1 Bft) N-NO 22 0 min 0,000 mm 1,0 UV-I 166 W/m 8,1 C 10,2 C 4,8 km/h (1 Bft) 100,00 %
18.04.2016 14:11 10,2 C 88 % 1017,7 hPa 0,0 l/m 2,6 km/h (1 Bft) N-NO 20 0 min 0,000 mm 1,0 UV-I 169 W/m 8,3 C 10,2 C 6,4 km/h (2 Bft) 100,00 %
18.04.2016 14:12 10,2 C 85 % 1017,7 hPa 0,0 l/m 2,8 km/h (1 Bft) N-NO 16 0 min 0,000 mm 1,0 UV-I 173 W/m 7,8 C 10,2 C 4,8 km/h (1 Bft) 100,00 %
18.04.2016 14:13 10,2 C 86 % 1017,7 hPa 0,0 l/m 2,7 km/h (1 Bft) N-NO 30 0 min 0,000 mm 1,0 UV-I 177 W/m 8,0 C 10,2 C 4,8 km/h (1 Bft) 95,65 %
18.04.2016 14:14 10,2 C 85 % 1017,7 hPa 0,0 l/m 7,4 km/h (2 Bft) NO 42 0 min 0,000 mm 1,1 UV-I 181 W/m 7,8 C 9,5 C 9,7 km/h (2 Bft) 100,00 %
18.04.2016 14:15 10,2 C 86 % 1017,7 hPa 0,0 l/m 3,8 km/h (1 Bft) N-NO 32 0 min 0,000 mm 1,1 UV-I 187 W/m 8,0 C 10,2 C 8,0 km/h (2 Bft) 100,00 %
18.04.2016 14:16 10,2 C 86 % 1017,7 hPa 0,0 l/m 4,9 km/h (1 Bft) NO 34 0 min 0,000 mm 1,1 UV-I 194 W/m 8,0 C 10,2 C 8,0 km/h (2 Bft) 96,67 %
18.04.2016 14:17 10,2 C 86 % 1017,7 hPa 0,0 l/m 4,8 km/h (1 Bft) O-NO 57 0 min 0,000 mm 1,2 UV-I 199 W/m 8,0 C 10,2 C 6,4 km/h (2 Bft) 100,00 %
18.04.2016 14:18 10,2 C 86 % 1017,7 hPa 0,0 l/m 4,3 km/h (1 Bft) O-NO 57 0 min 0,000 mm 1,2 UV-I 201 W/m 8,0 C 10,2 C 4,8 km/h (1 Bft) 100,00 %
18.04.2016 14:19 10,1 C 84 % 1017,7 hPa 0,0 l/m 4,3 km/h (1 Bft) O-NO 57 0 min 0,000 mm 1,2 UV-I 202 W/m 7,5 C 10,1 C 6,4 km/h (2 Bft) 96,15 %
18.04.2016 14:20 10,2 C 84 % 1017,7 hPa 0,0 l/m 3,3 km/h (1 Bft) NO 52 0 min 0,000 mm 1,2 UV-I 199 W/m 7,6 C 10,2 C 4,8 km/h (1 Bft) 100,00 %
18.04.2016 14:21 10,2 C 85 % 1017,7 hPa 0,0 l/m 6,0 km/h (2 Bft) N-NO 28 0 min 0,000 mm 1,2 UV-I 197 W/m 7,8 C 10,2 C 8,0 km/h (2 Bft) 96,15 %
18.04.2016 14:22 10,2 C 87 % 1017,7 hPa 0,0 l/m 5,8 km/h (2 Bft) NO 34 0 min 0,000 mm 1,1 UV-I 193 W/m 8,1 C 10,2 C 8,0 km/h (2 Bft) 100,00 %
18.04.2016 14:23 10,2 C 88 % 1017,7 hPa 0,0 l/m 3,5 km/h (1 Bft) NW 316 0 min 0,000 mm 1,1 UV-I 194 W/m 8,3 C 10,2 C 6,4 km/h (2 Bft) 100,00 %
18.04.2016 14:24 10,2 C 88 % 1017,7 hPa 0,0 l/m 3,2 km/h (1 Bft) N 355 0 min 0,000 mm 1,1 UV-I 196 W/m 8,3 C 10,2 C 4,8 km/h (1 Bft) 100,00 %
18.04.2016 14:25 10,2 C 88 % 1017,6 hPa 0,0 l/m 4,9 km/h (1 Bft) N-NO 25 0 min 0,000 mm 1,1 UV-I 197 W/m 8,3 C 10,2 C 8,0 km/h (2 Bft) 100,00 %
18.04.2016 14:26 10,2 C 88 % 1017,7 hPa 0,0 l/m 7,1 km/h (2 Bft) N-NO 33 0 min 0,000 mm 1,1 UV-I 197 W/m 8,3 C 9,7 C 14,5 km/h (3 Bft) 96,15 %
18.04.2016 14:27 10,2 C 88 % 1017,7 hPa 0,0 l/m 8,3 km/h (2 Bft) NO 47 0 min 0,000 mm 1,1 UV-I 197 W/m 8,3 C 8,9 C 12,9 km/h (3 Bft) 100,00 %
18.04.2016 14:28 10,1 C 88 % 1017,7 hPa 0,0 l/m 6,5 km/h (2 Bft) NO 36 0 min 0,000 mm 1,1 UV-I 197 W/m 8,2 C 10,1 C 9,7 km/h (2 Bft) 100,00 %
18.04.2016 14:29 10,1 C 87 % 1017,7 hPa 0,0 l/m 6,7 km/h (2 Bft) N-NO 15 0 min 0,000 mm 1,1 UV-I 196 W/m 8,0 C 9,9 C 9,7 km/h (2 Bft) 100,00 %
18.04.2016 14:30 10,1 C 87 % 1017,7 hPa 0,0 l/m 3,3 km/h (1 Bft) N-NO 18 0 min 0,000 mm 1,1 UV-I 191 W/m 8,0 C 10,1 C 8,0 km/h (2 Bft) 100,00 %
18.04.2016 14:31 10,1 C 88 % 1017,7 hPa 0,0 l/m 5,8 km/h (2 Bft) N-NO 33 0 min 0,000 mm 1,0 UV-I 188 W/m 8,2 C 10,1 C 8,0 km/h (2 Bft) 100,00 %
18.04.2016 14:32 10,0 C 86 % 1017,7 hPa 0,0 l/m 5,4 km/h (1 Bft) NO 43 0 min 0,000 mm 1,1 UV-I 190 W/m 7,8 C 10,0 C 9,7 km/h (2 Bft) 96,15 %
18.04.2016 14:33 10,1 C 87 % 1017,8 hPa 0,0 l/m 6,1 km/h (2 Bft) NO 44 0 min 0,000 mm 1,1 UV-I 192 W/m 8,0 C 10,1 C 8,0 km/h (2 Bft) 100,00 %
18.04.2016 14:34 10,1 C 88 % 1017,8 hPa 0,0 l/m 8,0 km/h (2 Bft) N-NO 17 0 min 0,000 mm 1,1 UV-I 193 W/m 8,2 C 9,0 C 9,7 km/h (2 Bft) 100,00 %
18.04.2016 14:35 10,1 C 88 % 1017,8 hPa 0,0 l/m 7,6 km/h (2 Bft) NO 40 0 min 0,000 mm 1,1 UV-I 193 W/m 8,2 C 9,2 C 12,9 km/h (3 Bft) 100,00 %
18.04.2016 14:36 10,1 C 88 % 1017,7 hPa 0,0 l/m 5,0 km/h (1 Bft) O-NO 57 0 min 0,000 mm 1,1 UV-I 195 W/m 8,2 C 10,1 C 9,7 km/h (2 Bft) 100,00 %
18.04.2016 14:37 10,1 C 88 % 1017,7 hPa 0,0 l/m 7,3 km/h (2 Bft) NO 40 0 min 0,000 mm 1,1 UV-I 195 W/m 8,2 C 9,4 C 9,7 km/h (2 Bft) 100,00 %
18.04.2016 14:38 10,1 C 87 % 1017,7 hPa 0,0 l/m 6,2 km/h (2 Bft) O-NO 68 0 min 0,000 mm 1,1 UV-I 191 W/m 8,0 C 10,1 C 9,7 km/h (2 Bft) 100,00 %
18.04.2016 14:39 10,1 C 87 % 1017,8 hPa 0,0 l/m 5,2 km/h (1 Bft) O-NO 65 0 min 0,000 mm 1,0 UV-I 184 W/m 8,0 C 10,1 C 6,4 km/h (2 Bft) 96,67 %
18.04.2016 14:40 10,0 C 86 % 1017,8 hPa 0,0 l/m 3,2 km/h (1 Bft) N-NO 30 0 min 0,000 mm 1,0 UV-I 175 W/m 7,8 C 10,0 C 4,8 km/h (1 Bft) 100,00 %
18.04.2016 14:41 10,1 C 88 % 1017,9 hPa 0,0 l/m 0,8 km/h (0 Bft) NO 36 0 min 0,000 mm 0,9 UV-I 167 W/m 8,2 C 10,1 C 1,6 km/h (1 Bft) 100,00 %
18.04.2016 14:42 10,1 C 89 % 1017,9 hPa 0,0 l/m 1,0 km/h (0 Bft) O 80 0 min 0,000 mm 0,9 UV-I 158 W/m 8,4 C 10,1 C 1,6 km/h (1 Bft) 100,00 %
18.04.2016 14:43 10,1 C 89 % 1017,9 hPa 0,0 l/m 1,0 km/h (0 Bft) NO 45 0 min 0,000 mm 0,8 UV-I 148 W/m 8,4 C 10,1 C 3,2 km/h (1 Bft) 96,30 %
18.04.2016 14:44 10,1 C 88 % 1017,9 hPa 0,0 l/m 2,7 km/h (1 Bft) NO 44 0 min 0,000 mm 0,8 UV-I 141 W/m 8,2 C 10,1 C 4,8 km/h (1 Bft) 100,00 %
18.04.2016 14:45 10,0 C 88 % 1017,9 hPa 0,0 l/m 2,9 km/h (1 Bft) N-NO 13 0 min 0,000 mm 0,8 UV-I 135 W/m 8,1 C 10,0 C 4,8 km/h (1 Bft) 91,67 %
18.04.2016 14:46 10,1 C 89 % 1017,9 hPa 0,0 l/m 1,6 km/h (1 Bft) N-NO 26 0 min 0,000 mm 0,7 UV-I 128 W/m 8,4 C 10,1 C 4,8 km/h (1 Bft) 100,00 %
18.04.2016 14:47 10,1 C 88 % 1018,0 hPa 0,0 l/m 3,7 km/h (1 Bft) N-NO 25 0 min 0,000 mm 0,7 UV-I 120 W/m 8,2 C 10,1 C 6,4 km/h (2 Bft) 93,33 %
18.04.2016 14:48 10,1 C 89 % 1017,9 hPa 0,0 l/m 3,0 km/h (1 Bft) N 11 0 min 0,000 mm 0,6 UV-I 114 W/m 8,4 C 10,1 C 6,4 km/h (2 Bft) 100,00 %
18.04.2016 14:49 10,0 C 87 % 1018,0 hPa 0,0 l/m 1,5 km/h (1 Bft) N-NO 13 0 min 0,000 mm 0,6 UV-I 111 W/m 7,9 C 10,0 C 3,2 km/h (1 Bft) 96,15 %
18.04.2016 14:50 9,9 C 88 % 1018,0 hPa 0,0 l/m 0,6 km/h (0 Bft) N 10 0 min 0,000 mm 0,6 UV-I 106 W/m 8,0 C 9,9 C 3,2 km/h (1 Bft) 92,59 %
18.04.2016 14:51 9,9 C 88 % 1018,0 hPa 0,0 l/m 0,7 km/h (0 Bft) N 10 0 min 0,000 mm 0,6 UV-I 105 W/m 8,0 C 9,9 C 1,6 km/h (1 Bft) 100,00 %
18.04.2016 14:52 9,9 C 87 % 1018,0 hPa 0,0 l/m 0,2 km/h (0 Bft) N 11 0 min 0,000 mm 0,5 UV-I 104 W/m 7,8 C 9,9 C 1,6 km/h (1 Bft) 100,00 %
18.04.2016 14:53 9,8 C 88 % 1018,0 hPa 0,0 l/m 0,2 km/h (0 Bft) N 5 0 min 0,000 mm 0,5 UV-I 101 W/m 7,9 C 9,8 C 1,6 km/h (1 Bft) 96,15 %
18.04.2016 14:54 9,8 C 88 % 1018,0 hPa 0,0 l/m 0,8 km/h (0 Bft) N 5 0 min 0,000 mm 0,5 UV-I 100 W/m 7,9 C 9,8 C 1,6 km/h (1 Bft) 100,00 %
18.04.2016 14:55 9,8 C 87 % 1018,0 hPa 0,0 l/m 0,9 km/h (0 Bft) N 5 0 min 0,000 mm 0,5 UV-I 100 W/m 7,7 C 9,8 C 3,2 km/h (1 Bft) 97,56 %
18.04.2016 14:56 9,8 C 88 % 1018,0 hPa 0,0 l/m 2,1 km/h (1 Bft) N 5 0 min 0,000 mm 0,5 UV-I 100 W/m 7,9 C 9,8 C 3,2 km/h (1 Bft) 95,83 %
18.04.2016 14:57 9,8 C 88 % 1017,9 hPa 0,0 l/m 1,0 km/h (0 Bft) N 5 0 min 0,000 mm 0,5 UV-I 101 W/m 7,9 C 9,8 C 3,2 km/h (1 Bft) 100,00 %
18.04.2016 14:58 9,8 C 89 % 1017,9 hPa 0,0 l/m 0,6 km/h (0 Bft) N 355 0 min 0,000 mm 0,5 UV-I 104 W/m 8,1 C 9,8 C 1,6 km/h (1 Bft) 96,67 %
18.04.2016 14:59 9,8 C 88 % 1017,9 hPa 0,0 l/m 2,5 km/h (1 Bft) N-NO 19 0 min 0,000 mm 0,6 UV-I 108 W/m 7,9 C 9,8 C 4,8 km/h (1 Bft) 96,15 %
18.04.2016 15:00 9,8 C 88 % 1017,9 hPa 0,0 l/m 2,1 km/h (1 Bft) N-NO 13 0 min 0,000 mm 0,6 UV-I 112 W/m 7,9 C 9,8 C 4,8 km/h (1 Bft) 100,00 %
18.04.2016 15:01 9,8 C 88 % 1017,9 hPa 0,0 l/m 2,5 km/h (1 Bft) N-NO 26 0 min 0,076 mm 0,6 UV-I 120 W/m 7,9 C 9,8 C 4,8 km/h (1 Bft) 95,65 %
18.04.2016 15:02 9,8 C 89 % 1017,9 hPa 0,0 l/m 3,4 km/h (1 Bft) N-NO 25 0 min 0,000 mm 0,6 UV-I 127 W/m 8,1 C 9,8 C 4,8 km/h (1 Bft) 100,00 %
18.04.2016 15:03 9,8 C 89 % 1017,9 hPa 0,0 l/m 3,1 km/h (1 Bft) N-NO 15 0 min 0,000 mm 0,7 UV-I 133 W/m 8,1 C 9,8 C 4,8 km/h (1 Bft) 95,83 %
18.04.2016 15:04 9,8 C 89 % 1017,9 hPa 0,0 l/m 2,7 km/h (1 Bft) N-NO 20 0 min 0,000 mm 0,7 UV-I 135 W/m 8,1 C 9,8 C 6,4 km/h (2 Bft) 100,00 %
18.04.2016 15:05 9,8 C 89 % 1017,8 hPa 0,0 l/m 5,7 km/h (1 Bft) N-NO 20 0 min 0,000 mm 0,7 UV-I 135 W/m 8,1 C 9,8 C 11,3 km/h (2 Bft) 95,65 %
18.04.2016 15:06 9,8 C 89 % 1017,8 hPa 0,0 l/m 6,2 km/h (2 Bft) NO 41 0 min 0,000 mm 0,7 UV-I 135 W/m 8,1 C 9,8 C 8,0 km/h (2 Bft) 96,30 %
18.04.2016 15:07 9,8 C 89 % 1017,7 hPa 0,0 l/m 3,7 km/h (1 Bft) N-NO 32 0 min 0,000 mm 0,7 UV-I 135 W/m 8,1 C 9,8 C 6,4 km/h (2 Bft) 100,00 %
18.04.2016 15:08 9,8 C 89 % 1017,7 hPa 0,0 l/m 5,8 km/h (2 Bft) NO 39 0 min 0,000 mm 0,7 UV-I 135 W/m 8,1 C 9,8 C 8,0 km/h (2 Bft) 95,83 %
18.04.2016 15:09 9,8 C 90 % 1017,8 hPa 0,0 l/m 6,0 km/h (2 Bft) NO 50 0 min 0,000 mm 0,7 UV-I 136 W/m 8,2 C 9,8 C 8,0 km/h (2 Bft) 100,00 %
18.04.2016 15:10 9,8 C 89 % 1017,7 hPa 0,0 l/m 5,9 km/h (2 Bft) N-NO 32 0 min 0,000 mm 0,7 UV-I 137 W/m 8,1 C 9,8 C 8,0 km/h (2 Bft) 95,83 %
18.04.2016 15:11 9,8 C 89 % 1017,7 hPa 0,0 l/m 6,4 km/h (2 Bft) N-NO 16 0 min 0,000 mm 0,8 UV-I 141 W/m 8,1 C 9,8 C 8,0 km/h (2 Bft) 100,00 %
18.04.2016 15:12 9,8 C 90 % 1017,7 hPa 0,0 l/m 6,3 km/h (2 Bft) N-NO 28 0 min 0,000 mm 0,8 UV-I 146 W/m 8,2 C 9,8 C 9,7 km/h (2 Bft) 96,15 %
18.04.2016 15:13 9,8 C 89 % 1017,7 hPa 0,0 l/m 5,3 km/h (1 Bft) N-NO 15 0 min 0,000 mm 0,8 UV-I 150 W/m 8,1 C 9,8 C 9,7 km/h (2 Bft) 100,00 %
18.04.2016 15:14 9,8 C 89 % 1017,7 hPa 0,0 l/m 5,5 km/h (1 Bft) N-NO 16 0 min 0,000 mm 0,8 UV-I 152 W/m 8,1 C 9,8 C 6,4 km/h (2 Bft) 96,15 %
18.04.2016 15:15 9,7 C 88 % 1017,6 hPa 0,0 l/m 4,1 km/h (1 Bft) NO 53 0 min 0,000 mm 0,8 UV-I 153 W/m 7,8 C 9,7 C 4,8 km/h (1 Bft) 95,83 %
18.04.2016 15:16 9,7 C 88 % 1017,6 hPa 0,0 l/m 5,3 km/h (1 Bft) N-NO 20 0 min 0,000 mm 0,8 UV-I 154 W/m 7,8 C 9,7 C 8,0 km/h (2 Bft) 100,00 %
18.04.2016 15:17 9,7 C 89 % 1017,6 hPa 0,0 l/m 4,3 km/h (1 Bft) NO 38 0 min 0,000 mm 0,8 UV-I 156 W/m 8,0 C 9,7 C 6,4 km/h (2 Bft) 96,30 %
18.04.2016 15:18 9,7 C 88 % 1017,6 hPa 0,0 l/m 3,6 km/h (1 Bft) N-NO 17 0 min 0,000 mm 0,8 UV-I 158 W/m 7,8 C 9,7 C 4,8 km/h (1 Bft) 100,00 %
18.04.2016 15:19 9,7 C 90 % 1017,6 hPa 0,2 l/m 5,9 km/h (2 Bft) N 5 0 min 0,000 mm 0,8 UV-I 162 W/m 8,1 C 9,7 C 9,7 km/h (2 Bft) 100,00 %
18.04.2016 15:20 9,8 C 90 % 1017,6 hPa 0,0 l/m 4,0 km/h (1 Bft) N-NO 28 0 min 0,000 mm 0,8 UV-I 164 W/m 8,2 C 9,8 C 8,0 km/h (2 Bft) 96,15 %
18.04.2016 15:21 9,8 C 90 % 1017,6 hPa 0,0 l/m 8,2 km/h (2 Bft) NO 40 0 min 0,000 mm 0,8 UV-I 166 W/m 8,2 C 8,5 C 9,7 km/h (2 Bft) 100,00 %
18.04.2016 15:22 9,8 C 90 % 1017,6 hPa 0,0 l/m 6,4 km/h (2 Bft) NO 40 0 min 0,000 mm 0,8 UV-I 168 W/m 8,2 C 9,8 C 8,0 km/h (2 Bft) 100,00 %
18.04.2016 15:23 9,7 C 89 % 1017,6 hPa 0,0 l/m 4,9 km/h (1 Bft) NO 35 0 min 0,000 mm 0,8 UV-I 168 W/m 8,0 C 9,7 C 8,0 km/h (2 Bft) 96,15 %
18.04.2016 15:24 9,7 C 90 % 1017,6 hPa 0,0 l/m 3,8 km/h (1 Bft) N-NO 13 0 min 0,000 mm 0,8 UV-I 165 W/m 8,1 C 9,7 C 6,4 km/h (2 Bft) 100,00 %
18.04.2016 15:25 9,8 C 90 % 1017,5 hPa 0,0 l/m 1,4 km/h (1 Bft) N-NO 32 0 min 0,000 mm 0,8 UV-I 161 W/m 8,2 C 9,8 C 3,2 km/h (1 Bft) 100,00 %
18.04.2016 15:26 9,8 C 91 % 1017,6 hPa 0,0 l/m 1,7 km/h (1 Bft) N 5 0 min 0,000 mm 0,8 UV-I 156 W/m 8,4 C 9,8 C 3,2 km/h (1 Bft) 95,83 %
18.04.2016 15:27 9,8 C 90 % 1017,5 hPa 0,0 l/m 2,9 km/h (1 Bft) N-NO 22 0 min 0,000 mm 0,8 UV-I 151 W/m 8,2 C 9,8 C 8,0 km/h (2 Bft) 100,00 %
18.04.2016 15:28 9,8 C 90 % 1017,5 hPa 0,0 l/m 4,6 km/h (1 Bft) N-NO 23 0 min 0,000 mm 0,8 UV-I 148 W/m 8,2 C 9,8 C 8,0 km/h (2 Bft) 100,00 %
18.04.2016 15:29 9,7 C 90 % 1017,5 hPa 0,0 l/m 7,2 km/h (2 Bft) N-NO 15 0 min 0,000 mm 0,7 UV-I 145 W/m 8,1 C 9,1 C 11,3 km/h (2 Bft) 100,00 %
18.04.2016 15:30 9,7 C 89 % 1017,5 hPa 0,0 l/m 4,0 km/h (1 Bft) N 5 0 min 0,000 mm 0,7 UV-I 141 W/m 8,0 C 9,7 C 6,4 km/h (2 Bft) 100,00 %
18.04.2016 15:31 9,7 C 90 % 1017,5 hPa 0,2 l/m 4,4 km/h (1 Bft) N-NO 29 0 min 0,000 mm 0,7 UV-I 136 W/m 8,1 C 9,7 C 6,4 km/h (2 Bft) 100,00 %
18.04.2016 15:32 9,7 C 89 % 1017,5 hPa 0,0 l/m 3,4 km/h (1 Bft) N-NO 18 0 min 0,000 mm 0,7 UV-I 135 W/m 8,0 C 9,7 C 8,0 km/h (2 Bft) 100,00 %
18.04.2016 15:33 9,7 C 89 % 1017,5 hPa 0,0 l/m 2,7 km/h (1 Bft) N-NO 17 0 min 0,000 mm 0,7 UV-I 133 W/m 8,0 C 9,7 C 8,0 km/h (2 Bft) 100,00 %
18.04.2016 15:34 9,7 C 90 % 1017,5 hPa 0,0 l/m 5,8 km/h (2 Bft) N-NO 33 0 min 0,000 mm 0,7 UV-I 132 W/m 8,1 C 9,7 C 8,0 km/h (2 Bft) 100,00 %
18.04.2016 15:35 9,6 C 90 % 1017,5 hPa 0,0 l/m 5,6 km/h (1 Bft) NO 49 0 min 0,000 mm 0,6 UV-I 129 W/m 8,0 C 9,6 C 6,4 km/h (2 Bft) 100,00 %
18.04.2016 15:36 9,6 C 90 % 1017,5 hPa 0,0 l/m 5,6 km/h (1 Bft) N-NO 22 0 min 0,000 mm 0,6 UV-I 125 W/m 8,0 C 9,6 C 8,0 km/h (2 Bft) 100,00 %
18.04.2016 15:37 9,6 C 91 % 1017,5 hPa 0,0 l/m 6,8 km/h (2 Bft) NO 38 0 min 0,000 mm 0,6 UV-I 123 W/m 8,2 C 9,3 C 8,0 km/h (2 Bft) 100,00 %
18.04.2016 15:38 9,6 C 91 % 1017,5 hPa 0,0 l/m 3,4 km/h (1 Bft) N-NO 31 0 min 0,000 mm 0,6 UV-I 123 W/m 8,2 C 9,6 C 6,4 km/h (2 Bft) 100,00 %
18.04.2016 15:39 9,6 C 91 % 1017,5 hPa 0,0 l/m 4,3 km/h (1 Bft) NO 47 0 min 0,000 mm 0,6 UV-I 122 W/m 8,2 C 9,6 C 6,4 km/h (2 Bft) 100,00 %
18.04.2016 15:40 9,6 C 91 % 1017,5 hPa 0,0 l/m 7,0 km/h (2 Bft) N-NO 26 0 min 0,000 mm 0,6 UV-I 119 W/m 8,2 C 9,2 C 9,7 km/h (2 Bft) 100,00 %
18.04.2016 15:41 9,6 C 91 % 1017,5 hPa 0,0 l/m 6,2 km/h (2 Bft) N-NO 19 0 min 0,000 mm 0,6 UV-I 116 W/m 8,2 C 9,6 C 11,3 km/h (2 Bft) 91,67 %
18.04.2016 15:42 9,6 C 91 % 1017,5 hPa 0,0 l/m 3,9 km/h (1 Bft) NO 38 0 min 0,000 mm 0,6 UV-I 116 W/m 8,2 C 9,6 C 6,4 km/h (2 Bft) 100,00 %
18.04.2016 15:43 9,6 C 91 % 1017,5 hPa 0,0 l/m 5,5 km/h (1 Bft) N-NO 29 0 min 0,000 mm 0,6 UV-I 119 W/m 8,2 C 9,6 C 9,7 km/h (2 Bft) 100,00 %
18.04.2016 15:44 9,6 C 91 % 1017,5 hPa 0,0 l/m 6,7 km/h (2 Bft) N-NO 30 0 min 0,000 mm 0,6 UV-I 123 W/m 8,2 C 9,4 C 9,7 km/h (2 Bft) 100,00 %
18.04.2016 15:45 9,6 C 91 % 1017,5 hPa 0,0 l/m 4,5 km/h (1 Bft) N-NO 26 0 min 0,000 mm 0,6 UV-I 127 W/m 8,2 C 9,6 C 8,0 km/h (2 Bft) 100,00 %
18.04.2016 15:46 9,6 C 90 % 1017,5 hPa 0,0 l/m 5,8 km/h (2 Bft) N-NO 16 0 min 0,000 mm 0,6 UV-I 131 W/m 8,0 C 9,6 C 8,0 km/h (2 Bft) 100,00 %
18.04.2016 15:47 9,6 C 90 % 1017,4 hPa 0,0 l/m 5,7 km/h (1 Bft) N-NO 21 0 min 0,000 mm 0,6 UV-I 134 W/m 8,0 C 9,6 C 8,0 km/h (2 Bft) 100,00 %
18.04.2016 15:48 9,6 C 91 % 1017,5 hPa 0,0 l/m 1,6 km/h (1 Bft) N-NO 20 0 min 0,000 mm 0,6 UV-I 134 W/m 8,2 C 9,6 C 4,8 km/h (1 Bft) 100,00 %
18.04.2016 15:49 9,6 C 91 % 1017,4 hPa 0,0 l/m 3,4 km/h (1 Bft) N-NO 16 0 min 0,000 mm 0,6 UV-I 134 W/m 8,2 C 9,6 C 6,4 km/h (2 Bft) 100,00 %
18.04.2016 15:50 9,6 C 91 % 1017,4 hPa 0,0 l/m 4,1 km/h (1 Bft) N-NO 23 0 min 0,000 mm 0,6 UV-I 131 W/m 8,2 C 9,6 C 6,4 km/h (2 Bft) 100,00 %
18.04.2016 15:51 9,6 C 91 % 1017,4 hPa 0,0 l/m 5,1 km/h (1 Bft) N-NO 24 0 min 0,000 mm 0,6 UV-I 129 W/m 8,2 C 9,6 C 6,4 km/h (2 Bft) 100,00 %
18.04.2016 15:52 9,7 C 91 % 1017,5 hPa 0,0 l/m 2,2 km/h (1 Bft) N 355 0 min 0,000 mm 0,6 UV-I 128 W/m 8,3 C 9,7 C 3,2 km/h (1 Bft) 100,00 %
18.04.2016 15:53 9,7 C 91 % 1017,5 hPa 0,0 l/m 6,2 km/h (2 Bft) O-NO 58 0 min 0,000 mm 0,6 UV-I 127 W/m 8,3 C 9,7 C 8,0 km/h (2 Bft) 100,00 %
18.04.2016 15:54 9,6 C 89 % 1017,5 hPa 0,0 l/m 4,4 km/h (1 Bft) O-NO 58 0 min 0,000 mm 0,6 UV-I 122 W/m 7,9 C 9,6 C 4,8 km/h (1 Bft) 96,15 %
18.04.2016 15:55 9,6 C 89 % 1017,6 hPa 0,0 l/m 3,4 km/h (1 Bft) O-NO 57 0 min 0,000 mm 0,6 UV-I 119 W/m 7,9 C 9,6 C 4,8 km/h (1 Bft) 100,00 %
18.04.2016 15:56 9,7 C 89 % 1017,6 hPa 0,0 l/m 4,3 km/h (1 Bft) NO 49 0 min 0,000 mm 0,6 UV-I 117 W/m 8,0 C 9,7 C 4,8 km/h (1 Bft) 100,00 %
18.04.2016 15:57 9,6 C 88 % 1017,6 hPa 0,0 l/m 3,7 km/h (1 Bft) O-NO 61 0 min 0,000 mm 0,6 UV-I 114 W/m 7,7 C 9,6 C 6,4 km/h (2 Bft) 100,00 %
18.04.2016 15:58 9,6 C 88 % 1017,6 hPa 0,0 l/m 3,6 km/h (1 Bft) NO 46 0 min 0,000 mm 0,5 UV-I 112 W/m 7,7 C 9,6 C 6,4 km/h (2 Bft) 100,00 %
18.04.2016 15:59 9,6 C 89 % 1017,6 hPa 0,0 l/m 3,9 km/h (1 Bft) O 81 0 min 0,000 mm 0,5 UV-I 108 W/m 7,9 C 9,6 C 4,8 km/h (1 Bft) 100,00 %
18.04.2016 16:00 9,6 C 88 % 1017,6 hPa 0,0 l/m 6,4 km/h (2 Bft) O-NO 61 0 min 0,000 mm 0,5 UV-I 105 W/m 7,7 C 9,6 C 8,0 km/h (2 Bft) 100,00 %
18.04.2016 16:01 9,5 C 87 % 1017,7 hPa 0,0 l/m 6,4 km/h (2 Bft) O-NO 61 0 min 0,077 mm 0,5 UV-I 103 W/m 7,4 C 9,5 C 6,4 km/h (2 Bft) 100,00 %
18.04.2016 16:02 9,4 C 87 % 1017,7 hPa 0,0 l/m 5,1 km/h (1 Bft) O-NO 74 0 min 0,000 mm 0,5 UV-I 100 W/m 7,3 C 9,4 C 6,4 km/h (2 Bft) 98,61 %
18.04.2016 16:03 9,4 C 87 % 1017,7 hPa 0,0 l/m 4,2 km/h (1 Bft) O-NO 67 0 min 0,000 mm 0,3 UV-I 97 W/m 7,3 C 9,4 C 6,4 km/h (2 Bft) 94,74 %
18.04.2016 16:04 9,4 C 87 % 1017,7 hPa 0,0 l/m 5,1 km/h (1 Bft) O-NO 59 0 min 0,000 mm 0,0 UV-I 95 W/m 7,3 C 9,4 C 6,4 km/h (2 Bft) 100,00 %
18.04.2016 16:05 9,4 C 86 % 1017,6 hPa 0,0 l/m 5,8 km/h (2 Bft) NO 54 0 min 0,000 mm 0,0 UV-I 93 W/m 7,2 C 9,4 C 8,0 km/h (2 Bft) 95,65 %
18.04.2016 16:06 9,4 C 87 % 1017,7 hPa 0,0 l/m 6,4 km/h (2 Bft) NO 44 0 min 0,000 mm 0,0 UV-I 90 W/m 7,3 C 9,4 C 8,0 km/h (2 Bft) 100,00 %
18.04.2016 16:07 9,4 C 88 % 1017,6 hPa 0,0 l/m 5,0 km/h (1 Bft) NO 38 0 min 0,000 mm 0,0 UV-I 89 W/m 7,5 C 9,4 C 6,4 km/h (2 Bft) 100,00 %
18.04.2016 16:08 9,4 C 88 % 1017,6 hPa 0,0 l/m 6,3 km/h (2 Bft) NO 44 0 min 0,000 mm 0,0 UV-I 91 W/m 7,5 C 9,4 C 8,0 km/h (2 Bft) 100,00 %
18.04.2016 16:09 9,4 C 87 % 1017,5 hPa 0,0 l/m 4,3 km/h (1 Bft) NO 50 0 min 0,000 mm 0,0 UV-I 92 W/m 7,3 C 9,4 C 8,0 km/h (2 Bft) 95,65 %
18.04.2016 16:10 9,4 C 88 % 1017,6 hPa 0,0 l/m 5,2 km/h (1 Bft) NO 56 0 min 0,000 mm 0,0 UV-I 94 W/m 7,5 C 9,4 C 6,4 km/h (2 Bft) 93,33 %
18.04.2016 16:11 9,4 C 87 % 1017,6 hPa 0,2 l/m 4,5 km/h (1 Bft) NO 37 0 min 0,000 mm 0,0 UV-I 100 W/m 7,3 C 9,4 C 6,4 km/h (2 Bft) 96,88 %
18.04.2016 16:12 9,4 C 89 % 1017,6 hPa 0,0 l/m 6,2 km/h (2 Bft) NO 48 0 min 0,000 mm 0,5 UV-I 107 W/m 7,7 C 9,4 C 8,0 km/h (2 Bft) 100,00 %
18.04.2016 16:13 9,4 C 88 % 1017,5 hPa 0,0 l/m 6,0 km/h (2 Bft) NO 55 0 min 0,000 mm 0,5 UV-I 116 W/m 7,5 C 9,4 C 8,0 km/h (2 Bft) 100,00 %
18.04.2016 16:14 9,4 C 89 % 1017,5 hPa 0,0 l/m 5,6 km/h (1 Bft) NO 42 0 min 0,000 mm 0,5 UV-I 124 W/m 7,7 C 9,4 C 6,4 km/h (2 Bft) 100,00 %
18.04.2016 16:15 9,4 C 89 % 1017,6 hPa 0,0 l/m 5,7 km/h (1 Bft) NO 42 0 min 0,000 mm 0,6 UV-I 131 W/m 7,7 C 9,4 C 8,0 km/h (2 Bft) 100,00 %
18.04.2016 16:16 9,4 C 90 % 1017,5 hPa 0,0 l/m 5,3 km/h (1 Bft) NO 42 0 min 0,000 mm 0,6 UV-I 135 W/m 7,8 C 9,4 C 6,4 km/h (2 Bft) 100,00 %
18.04.2016 16:17 9,4 C 90 % 1017,5 hPa 0,0 l/m 5,2 km/h (1 Bft) NO 51 0 min 0,000 mm 0,6 UV-I 135 W/m 7,8 C 9,4 C 8,0 km/h (2 Bft) 100,00 %
18.04.2016 16:18 9,4 C 89 % 1017,5 hPa 0,0 l/m 4,8 km/h (1 Bft) O-NO 58 0 min 0,000 mm 0,6 UV-I 138 W/m 7,7 C 9,4 C 6,4 km/h (2 Bft) 96,30 %
18.04.2016 16:19 9,4 C 88 % 1017,5 hPa 0,0 l/m 4,9 km/h (1 Bft) N-NO 12 0 min 0,000 mm 0,6 UV-I 139 W/m 7,5 C 9,4 C 6,4 km/h (2 Bft) 98,60 %
18.04.2016 16:20 9,4 C 89 % 1017,5 hPa 0,0 l/m 4,0 km/h (1 Bft) N-NO 26 0 min 0,000 mm 0,6 UV-I 138 W/m 7,7 C 9,4 C 4,8 km/h (1 Bft) 100,00 %
18.04.2016 16:21 9,5 C 89 % 1017,5 hPa 0,0 l/m 4,8 km/h (1 Bft) N-NO 25 0 min 0,000 mm 0,6 UV-I 137 W/m 7,8 C 9,5 C 6,4 km/h (2 Bft) 100,00 %
18.04.2016 16:22 9,5 C 89 % 1017,4 hPa 0,0 l/m 5,0 km/h (1 Bft) NO 51 0 min 0,000 mm 0,6 UV-I 135 W/m 7,8 C 9,5 C 6,4 km/h (2 Bft) 100,00 %
18.04.2016 16:23 9,5 C 89 % 1017,5 hPa 0,0 l/m 4,3 km/h (1 Bft) NO 40 0 min 0,000 mm 0,6 UV-I 135 W/m 7,8 C 9,5 C 4,8 km/h (1 Bft) 100,00 %
18.04.2016 16:24 9,5 C 89 % 1017,4 hPa 0,2 l/m 5,6 km/h (1 Bft) NO 38 0 min 0,000 mm 0,6 UV-I 140 W/m 7,8 C 9,5 C 8,0 km/h (2 Bft) 95,65 %
18.04.2016 16:25 9,6 C 89 % 1017,4 hPa 0,0 l/m 5,4 km/h (1 Bft) NO 39 0 min 0,000 mm 0,6 UV-I 146 W/m 7,9 C 9,6 C 6,4 km/h (2 Bft) 100,00 %
18.04.2016 16:26 9,5 C 89 % 1017,4 hPa 0,0 l/m 6,4 km/h (2 Bft) NO 40 0 min 0,000 mm 0,6 UV-I 148 W/m 7,8 C 9,5 C 8,0 km/h (2 Bft) 95,65 %
18.04.2016 16:27 9,5 C 89 % 1017,4 hPa 0,0 l/m 5,5 km/h (1 Bft) NO 45 0 min 0,000 mm 0,6 UV-I 154 W/m 7,8 C 9,5 C 6,4 km/h (2 Bft) 100,00 %
18.04.2016 16:28 9,6 C 91 % 1017,4 hPa 0,0 l/m 5,0 km/h (1 Bft) NO 40 0 min 0,000 mm 0,6 UV-I 162 W/m 8,2 C 9,6 C 6,4 km/h (2 Bft) 100,00 %
18.04.2016 16:29 9,6 C 90 % 1017,4 hPa 0,0 l/m 6,0 km/h (2 Bft) NO 36 0 min 0,000 mm 0,7 UV-I 172 W/m 8,0 C 9,6 C 8,0 km/h (2 Bft) 100,00 %
18.04.2016 16:30 9,6 C 90 % 1017,3 hPa 0,0 l/m 5,2 km/h (1 Bft) N-NO 24 0 min 0,000 mm 0,7 UV-I 181 W/m 8,0 C 9,6 C 8,0 km/h (2 Bft) 100,00 %
18.04.2016 16:31 9,6 C 90 % 1017,3 hPa 0,0 l/m 5,4 km/h (1 Bft) NO 51 0 min 0,000 mm 0,7 UV-I 189 W/m 8,0 C 9,6 C 8,0 km/h (2 Bft) 100,00 %
18.04.2016 16:32 9,6 C 91 % 1017,2 hPa 0,0 l/m 7,2 km/h (2 Bft) NO 43 0 min 0,000 mm 0,7 UV-I 200 W/m 8,2 C 9,0 C 9,7 km/h (2 Bft) 100,00 %
18.04.2016 16:33 9,7 C 91 % 1017,2 hPa 0,0 l/m 8,7 km/h (2 Bft) NO 45 0 min 0,000 mm 0,8 UV-I 211 W/m 8,3 C 8,1 C 14,5 km/h (3 Bft) 100,00 %
18.04.2016 16:34 9,7 C 91 % 1017,3 hPa 0,0 l/m 9,4 km/h (2 Bft) NO 39 0 min 0,000 mm 0,8 UV-I 227 W/m 8,3 C 7,6 C 11,3 km/h (2 Bft) 100,00 %
18.04.2016 16:35 9,7 C 91 % 1017,2 hPa 0,0 l/m 9,6 km/h (2 Bft) O-NO 59 0 min 0,000 mm 0,8 UV-I 248 W/m 8,3 C 7,5 C 11,3 km/h (2 Bft) 100,00 %
18.04.2016 16:36 9,7 C 91 % 1017,2 hPa 0,0 l/m 8,6 km/h (2 Bft) NO 46 0 min 0,000 mm 0,9 UV-I 270 W/m 8,3 C 8,1 C 11,3 km/h (2 Bft) 100,00 %
18.04.2016 16:37 9,8 C 91 % 1017,1 hPa 0,0 l/m 6,7 km/h (2 Bft) NO 42 0 min 0,000 mm 0,9 UV-I 288 W/m 8,4 C 9,6 C 11,3 km/h (2 Bft) 100,00 %
18.04.2016 16:38 9,8 C 91 % 1017,1 hPa 0,0 l/m 7,4 km/h (2 Bft) NO 44 0 min 0,000 mm 0,9 UV-I 289 W/m 8,4 C 9,1 C 9,7 km/h (2 Bft) 100,00 %
18.04.2016 16:39 9,8 C 91 % 1017,1 hPa 0,0 l/m 8,9 km/h (2 Bft) N-NO 30 1 min 0,000 mm 1,0 UV-I 292 W/m 8,4 C 8,0 C 11,3 km/h (2 Bft) 100,00 %
18.04.2016 16:40 9,9 C 91 % 1017,1 hPa 0,0 l/m 8,7 km/h (2 Bft) O 84 1 min 0,000 mm 1,0 UV-I 292 W/m 8,5 C 8,3 C 11,3 km/h (2 Bft) 100,00 %
18.04.2016 16:41 9,9 C 91 % 1017,0 hPa 0,0 l/m 8,4 km/h (2 Bft) O-NO 60 1 min 0,000 mm 1,0 UV-I 303 W/m 8,5 C 8,5 C 11,3 km/h (2 Bft) 96,30 %
18.04.2016 16:42 9,9 C 91 % 1017,0 hPa 0,0 l/m 10,5 km/h (2 Bft) NO 38 1 min 0,000 mm 1,1 UV-I 325 W/m 8,5 C 7,2 C 16,1 km/h (3 Bft) 100,00 %
18.04.2016 16:43 9,9 C 90 % 1017,1 hPa 0,0 l/m 10,9 km/h (2 Bft) O-NO 64 1 min 0,000 mm 1,1 UV-I 337 W/m 8,3 C 7,0 C 14,5 km/h (3 Bft) 96,15 %
18.04.2016 16:44 9,9 C 91 % 1017,0 hPa 0,0 l/m 9,9 km/h (2 Bft) NO 46 1 min 0,000 mm 1,1 UV-I 346 W/m 8,5 C 7,5 C 14,5 km/h (3 Bft) 100,00 %
18.04.2016 16:45 9,9 C 90 % 1017,1 hPa 0,0 l/m 8,5 km/h (2 Bft) N-NO 15 1 min 0,000 mm 1,1 UV-I 319 W/m 8,3 C 8,4 C 11,3 km/h (2 Bft) 96,15 %
18.04.2016 16:46 9,9 C 91 % 1017,1 hPa 0,0 l/m 10,6 km/h (2 Bft) N-NO 31 1 min 0,000 mm 1,1 UV-I 302 W/m 8,5 C 7,1 C 16,1 km/h (3 Bft) 100,00 %
18.04.2016 16:47 10,0 C 91 % 1017,1 hPa 0,0 l/m 10,3 km/h (2 Bft) NO 40 1 min 0,000 mm 1,1 UV-I 312 W/m 8,6 C 7,4 C 12,9 km/h (3 Bft) 93,10 %
18.04.2016 16:48 10,1 C 92 % 1017,1 hPa 0,0 l/m 9,5 km/h (2 Bft) NO 49 1 min 0,000 mm 1,0 UV-I 318 W/m 8,9 C 8,0 C 12,9 km/h (3 Bft) 100,00 %
18.04.2016 16:49 10,2 C 92 % 1017,1 hPa 0,0 l/m 5,2 km/h (1 Bft) NO 53 1 min 0,000 mm 1,1 UV-I 355 W/m 9,0 C 10,2 C 8,0 km/h (2 Bft) 95,65 %
18.04.2016 16:50 10,2 C 91 % 1017,2 hPa 0,0 l/m 5,9 km/h (2 Bft) NO 41 1 min 0,000 mm 1,0 UV-I 281 W/m 8,8 C 10,2 C 8,0 km/h (2 Bft) 100,00 %
18.04.2016 16:51 10,2 C 91 % 1017,2 hPa 0,0 l/m 8,1 km/h (2 Bft) O-NO 65 0 min 0,000 mm 1,0 UV-I 263 W/m 8,8 C 9,0 C 12,9 km/h (3 Bft) 96,55 %
18.04.2016 16:52 10,2 C 89 % 1017,1 hPa 0,0 l/m 7,3 km/h (2 Bft) NO 46 1 min 0,000 mm 1,0 UV-I 329 W/m 8,5 C 9,6 C 9,7 km/h (2 Bft) 91,67 %
18.04.2016 16:53 10,2 C 89 % 1017,2 hPa 0,0 l/m 9,3 km/h (2 Bft) N-NO 25 0 min 0,000 mm 0,9 UV-I 264 W/m 8,5 C 8,2 C 14,5 km/h (3 Bft) 100,00 %
18.04.2016 16:54 10,2 C 89 % 1017,2 hPa 0,0 l/m 8,6 km/h (2 Bft) O-NO 62 0 min 0,000 mm 0,9 UV-I 236 W/m 8,5 C 8,7 C 9,7 km/h (2 Bft) 95,83 %
18.04.2016 16:55 10,2 C 90 % 1017,2 hPa 0,0 l/m 7,1 km/h (2 Bft) NO 55 0 min 0,000 mm 0,9 UV-I 239 W/m 8,6 C 9,7 C 11,3 km/h (2 Bft) 100,00 %
18.04.2016 16:56 10,1 C 89 % 1017,2 hPa 0,0 l/m 7,3 km/h (2 Bft) O 79 0 min 0,000 mm 0,9 UV-I 246 W/m 8,4 C 9,4 C 12,9 km/h (3 Bft) 93,33 %
18.04.2016 16:57 10,1 C 88 % 1017,2 hPa 0,0 l/m 10,9 km/h (2 Bft) O-NO 65 0 min 0,000 mm 0,9 UV-I 256 W/m 8,2 C 7,2 C 16,1 km/h (3 Bft) 100,00 %
18.04.2016 16:58 10,1 C 87 % 1017,2 hPa 0,0 l/m 10,6 km/h (2 Bft) NO 38 0 min 0,000 mm 0,9 UV-I 259 W/m 8,0 C 7,4 C 14,5 km/h (3 Bft) 91,67 %
18.04.2016 16:59 10,1 C 88 % 1017,2 hPa 0,0 l/m 11,0 km/h (2 Bft) NO 42 1 min 0,000 mm 1,0 UV-I 307 W/m 8,2 C 7,1 C 14,5 km/h (3 Bft) 100,00 %
18.04.2016 17:00 10,1 C 89 % 1017,2 hPa 0,0 l/m 7,6 km/h (2 Bft) O-NO 67 1 min 0,101 mm 0,9 UV-I 355 W/m 8,4 C 9,2 C 12,9 km/h (3 Bft) 92,59 %
18.04.2016 17:01 10,1 C 88 % 1017,2 hPa 0,2 l/m 11,1 km/h (2 Bft) O-NO 64 1 min 0,000 mm 0,9 UV-I 293 W/m 8,2 C 7,1 C 14,5 km/h (3 Bft) 95,65 %
18.04.2016 17:02 10,1 C 87 % 1017,2 hPa 0,0 l/m 7,2 km/h (2 Bft) NO 43 0 min 0,000 mm 0,9 UV-I 237 W/m 8,0 C 9,5 C 14,5 km/h (3 Bft) 100,00 %
18.04.2016 17:03 10,1 C 88 % 1017,2 hPa 0,0 l/m 8,7 km/h (2 Bft) O-NO 57 0 min 0,000 mm 0,9 UV-I 215 W/m 8,2 C 8,5 C 11,3 km/h (2 Bft) 91,67 %
18.04.2016 17:04 10,1 C 88 % 1017,2 hPa 0,0 l/m 7,8 km/h (2 Bft) NO 54 0 min 0,000 mm 0,8 UV-I 203 W/m 8,2 C 9,1 C 9,7 km/h (2 Bft) 100,00 %
18.04.2016 17:05 10,1 C 87 % 1017,3 hPa 0,0 l/m 7,6 km/h (2 Bft) O-NO 67 0 min 0,000 mm 0,8 UV-I 192 W/m 8,0 C 9,2 C 14,5 km/h (3 Bft) 95,83 %
18.04.2016 17:06 10,1 C 86 % 1017,3 hPa 0,0 l/m 10,5 km/h (2 Bft) O-NO 67 0 min 0,000 mm 0,8 UV-I 184 W/m 7,9 C 7,4 C 14,5 km/h (3 Bft) 100,00 %
18.04.2016 17:07 10,1 C 86 % 1017,3 hPa 0,0 l/m 9,7 km/h (2 Bft) O-NO 64 0 min 0,000 mm 0,8 UV-I 188 W/m 7,9 C 7,9 C 12,9 km/h (3 Bft) 96,30 %
18.04.2016 17:08 10,1 C 86 % 1017,4 hPa 0,0 l/m 6,4 km/h (2 Bft) NO 53 0 min 0,000 mm 0,7 UV-I 191 W/m 7,9 C 10,1 C 9,7 km/h (2 Bft) 100,00 %
18.04.2016 17:09 10,1 C 88 % 1017,4 hPa 0,0 l/m 5,6 km/h (1 Bft) O-NO 63 0 min 0,000 mm 0,6 UV-I 182 W/m 8,2 C 10,1 C 8,0 km/h (2 Bft) 96,30 %
18.04.2016 17:10 10,1 C 88 % 1017,4 hPa 0,0 l/m 6,4 km/h (2 Bft) O-NO 78 0 min 0,000 mm 0,6 UV-I 175 W/m 8,2 C 10,1 C 9,7 km/h (2 Bft) 96,15 %
18.04.2016 17:11 10,1 C 88 % 1017,4 hPa 0,0 l/m 9,3 km/h (2 Bft) NO 46 0 min 0,000 mm 0,5 UV-I 169 W/m 8,2 C 8,1 C 14,5 km/h (3 Bft) 100,00 %
18.04.2016 17:12 10,1 C 86 % 1017,4 hPa 0,0 l/m 9,8 km/h (2 Bft) NO 36 0 min 0,000 mm 0,5 UV-I 162 W/m 7,9 C 7,8 C 14,5 km/h (3 Bft) 92,31 %
18.04.2016 17:13 10,1 C 85 % 1017,4 hPa 0,0 l/m 7,1 km/h (2 Bft) O-NO 64 0 min 0,000 mm 0,5 UV-I 157 W/m 7,7 C 9,6 C 9,7 km/h (2 Bft) 100,00 %
18.04.2016 17:14 10,0 C 85 % 1017,4 hPa 0,0 l/m 6,8 km/h (2 Bft) NO 42 0 min 0,000 mm 0,5 UV-I 154 W/m 7,6 C 9,7 C 8,0 km/h (2 Bft) 100,00 %
18.04.2016 17:15 10,1 C 86 % 1017,4 hPa 0,0 l/m 6,5 km/h (2 Bft) NO 40 0 min 0,000 mm 0,5 UV-I 149 W/m 7,9 C 10,1 C 9,7 km/h (2 Bft) 100,00 %
18.04.2016 17:16 10,1 C 88 % 1017,4 hPa 0,0 l/m 10,1 km/h (2 Bft) NO 53 0 min 0,000 mm 0,5 UV-I 146 W/m 8,2 C 7,6 C 12,9 km/h (3 Bft) 100,00 %
18.04.2016 17:17 10,1 C 88 % 1017,5 hPa 0,0 l/m 7,1 km/h (2 Bft) NO 42 0 min 0,000 mm 0,5 UV-I 144 W/m 8,2 C 9,6 C 11,3 km/h (2 Bft) 100,00 %
18.04.2016 17:18 10,1 C 88 % 1017,5 hPa 0,0 l/m 6,0 km/h (2 Bft) NO 39 0 min 0,000 mm 0,5 UV-I 143 W/m 8,2 C 10,1 C 8,0 km/h (2 Bft) 100,00 %
18.04.2016 17:19 10,1 C 87 % 1017,5 hPa 0,0 l/m 4,2 km/h (1 Bft) O-NO 59 0 min 0,000 mm 0,5 UV-I 140 W/m 8,0 C 10,1 C 4,8 km/h (1 Bft) 96,30 %
18.04.2016 17:20 10,1 C 87 % 1017,5 hPa 0,0 l/m 2,9 km/h (1 Bft) NO 51 0 min 0,000 mm 0,5 UV-I 138 W/m 8,0 C 10,1 C 6,4 km/h (2 Bft) 96,15 %
18.04.2016 17:21 10,1 C 88 % 1017,5 hPa 0,0 l/m 5,6 km/h (1 Bft) NO 49 0 min 0,000 mm 0,2 UV-I 135 W/m 8,2 C 10,1 C 9,7 km/h (2 Bft) 100,00 %
18.04.2016 17:22 10,1 C 88 % 1017,5 hPa 0,0 l/m 6,2 km/h (2 Bft) NO 51 0 min 0,000 mm 0,0 UV-I 135 W/m 8,2 C 10,1 C 8,0 km/h (2 Bft) 100,00 %
18.04.2016 17:23 10,1 C 88 % 1017,5 hPa 0,0 l/m 6,6 km/h (2 Bft) O-NO 67 0 min 0,000 mm 0,0 UV-I 134 W/m 8,2 C 10,0 C 8,0 km/h (2 Bft) 100,00 %
18.04.2016 17:24 10,1 C 87 % 1017,5 hPa 0,0 l/m 8,9 km/h (2 Bft) NO 55 0 min 0,000 mm 0,0 UV-I 136 W/m 8,0 C 8,4 C 12,9 km/h (3 Bft) 100,00 %
18.04.2016 17:25 10,1 C 86 % 1017,5 hPa 0,0 l/m 10,6 km/h (2 Bft) NO 53 0 min 0,000 mm 0,0 UV-I 137 W/m 7,9 C 7,4 C 16,1 km/h (3 Bft) 100,00 %
18.04.2016 17:26 10,0 C 86 % 1017,5 hPa 0,0 l/m 8,0 km/h (2 Bft) NO 55 0 min 0,000 mm 0,0 UV-I 137 W/m 7,8 C 8,9 C 9,7 km/h (2 Bft) 100,00 %
18.04.2016 17:27 10,0 C 86 % 1017,6 hPa 0,0 l/m 5,6 km/h (1 Bft) O-NO 60 0 min 0,000 mm 0,0 UV-I 135 W/m 7,8 C 10,0 C 6,4 km/h (2 Bft) 100,00 %
18.04.2016 17:28 10,0 C 86 % 1017,6 hPa 0,0 l/m 7,1 km/h (2 Bft) O-NO 66 0 min 0,000 mm 0,0 UV-I 129 W/m 7,8 C 9,5 C 12,9 km/h (3 Bft) 100,00 %
18.04.2016 17:29 9,9 C 86 % 1017,6 hPa 0,0 l/m 6,9 km/h (2 Bft) O-NO 67 0 min 0,000 mm 0,0 UV-I 124 W/m 7,7 C 9,5 C 9,7 km/h (2 Bft) 100,00 %
18.04.2016 17:30 9,9 C 86 % 1017,6 hPa 0,0 l/m 8,9 km/h (2 Bft) O-NO 71 0 min 0,000 mm 0,0 UV-I 117 W/m 7,7 C 8,2 C 12,9 km/h (3 Bft) 100,00 %
18.04.2016 17:31 9,9 C 85 % 1017,6 hPa 0,0 l/m 7,7 km/h (2 Bft) O 82 0 min 0,000 mm 0,0 UV-I 112 W/m 7,5 C 9,0 C 9,7 km/h (2 Bft) 100,00 %
18.04.2016 17:32 9,9 C 85 % 1017,5 hPa 0,0 l/m 5,6 km/h (1 Bft) O-NO 58 0 min 0,000 mm 0,0 UV-I 108 W/m 7,5 C 9,9 C 8,0 km/h (2 Bft) 100,00 %
18.04.2016 17:33 9,9 C 86 % 1017,6 hPa 0,0 l/m 5,5 km/h (1 Bft) O-NO 71 0 min 0,000 mm 0,0 UV-I 104 W/m 7,7 C 9,9 C 8,0 km/h (2 Bft) 100,00 %
18.04.2016 17:34 9,9 C 86 % 1017,5 hPa 0,0 l/m 5,1 km/h (1 Bft) O 97 0 min 0,000 mm 0,0 UV-I 102 W/m 7,7 C 9,9 C 8,0 km/h (2 Bft) 95,83 %
18.04.2016 17:35 9,9 C 87 % 1017,6 hPa 0,0 l/m 4,8 km/h (1 Bft) O-NO 78 0 min 0,000 mm 0,0 UV-I 99 W/m 7,8 C 9,9 C 8,0 km/h (2 Bft) 100,00 %
18.04.2016 17:36 9,9 C 87 % 1017,6 hPa 0,0 l/m 5,6 km/h (1 Bft) O-NO 62 0 min 0,000 mm 0,0 UV-I 98 W/m 7,8 C 9,9 C 6,4 km/h (2 Bft) 100,00 %
18.04.2016 17:37 9,8 C 86 % 1017,6 hPa 0,0 l/m 2,9 km/h (1 Bft) O-NO 62 0 min 0,000 mm 0,0 UV-I 98 W/m 7,6 C 9,8 C 4,8 km/h (1 Bft) 100,00 %
18.04.2016 17:38 9,8 C 87 % 1017,6 hPa 0,0 l/m 4,2 km/h (1 Bft) O-NO 65 0 min 0,000 mm 0,0 UV-I 98 W/m 7,7 C 9,8 C 6,4 km/h (2 Bft) 100,00 %
18.04.2016 17:39 9,8 C 87 % 1017,6 hPa 0,0 l/m 4,5 km/h (1 Bft) O-NO 63 0 min 0,000 mm 0,0 UV-I 100 W/m 7,7 C 9,8 C 6,4 km/h (2 Bft) 100,00 %
18.04.2016 17:40 9,8 C 87 % 1017,6 hPa 0,0 l/m 5,2 km/h (1 Bft) O-NO 67 0 min 0,000 mm 0,0 UV-I 106 W/m 7,7 C 9,8 C 6,4 km/h (2 Bft) 100,00 %
18.04.2016 17:41 9,8 C 88 % 1017,6 hPa 0,0 l/m 4,3 km/h (1 Bft) O-NO 59 0 min 0,000 mm 0,0 UV-I 110 W/m 7,9 C 9,8 C 6,4 km/h (2 Bft) 100,00 %
18.04.2016 17:42 9,9 C 87 % 1017,6 hPa 0,0 l/m 4,7 km/h (1 Bft) NO 39 0 min 0,000 mm 0,0 UV-I 113 W/m 7,8 C 9,9 C 6,4 km/h (2 Bft) 96,30 %
18.04.2016 17:43 9,9 C 87 % 1017,6 hPa 0,0 l/m 3,8 km/h (1 Bft) NO 40 0 min 0,000 mm 0,0 UV-I 109 W/m 7,8 C 9,9 C 4,8 km/h (1 Bft) 100,00 %
18.04.2016 17:44 9,9 C 87 % 1017,6 hPa 0,0 l/m 4,2 km/h (1 Bft) NO 40 0 min 0,000 mm 0,0 UV-I 101 W/m 7,8 C 9,9 C 6,4 km/h (2 Bft) 100,00 %
18.04.2016 17:45 9,9 C 88 % 1017,6 hPa 0,0 l/m 5,5 km/h (1 Bft) NO 49 0 min 0,000 mm 0,0 UV-I 95 W/m 8,0 C 9,9 C 6,4 km/h (2 Bft) 100,00 %
18.04.2016 17:46 9,9 C 88 % 1017,7 hPa 0,0 l/m 4,8 km/h (1 Bft) NO 51 0 min 0,000 mm 0,0 UV-I 91 W/m 8,0 C 9,9 C 6,4 km/h (2 Bft) 100,00 %
18.04.2016 17:47 9,9 C 87 % 1017,6 hPa 0,0 l/m 3,6 km/h (1 Bft) NO 51 0 min 0,000 mm 0,0 UV-I 89 W/m 7,8 C 9,9 C 4,8 km/h (1 Bft) 95,83 %
18.04.2016 17:48 9,9 C 86 % 1017,6 hPa 0,0 l/m 5,0 km/h (1 Bft) O-NO 62 0 min 0,000 mm 0,0 UV-I 83 W/m 7,7 C 9,9 C 6,4 km/h (2 Bft) 100,00 %
18.04.2016 17:49 9,9 C 86 % 1017,6 hPa 0,0 l/m 4,4 km/h (1 Bft) O-NO 71 0 min 0,000 mm 0,0 UV-I 75 W/m 7,7 C 9,9 C 6,4 km/h (2 Bft) 100,00 %
18.04.2016 17:50 9,9 C 87 % 1017,6 hPa 0,0 l/m 4,5 km/h (1 Bft) O-NO 69 0 min 0,000 mm 0,0 UV-I 70 W/m 7,8 C 9,9 C 6,4 km/h (2 Bft) 100,00 %
18.04.2016 17:51 9,9 C 87 % 1017,6 hPa 0,0 l/m 4,2 km/h (1 Bft) O-NO 69 0 min 0,000 mm 0,0 UV-I 63 W/m 7,8 C 9,9 C 4,8 km/h (1 Bft) 100,00 %
18.04.2016 17:52 9,9 C 87 % 1017,6 hPa 0,0 l/m 4,0 km/h (1 Bft) O-NO 65 0 min 0,000 mm 0,0 UV-I 59 W/m 7,8 C 9,9 C 4,8 km/h (1 Bft) 100,00 %
18.04.2016 17:53 9,9 C 87 % 1017,6 hPa 0,0 l/m 3,2 km/h (1 Bft) NO 56 0 min 0,000 mm 0,0 UV-I 57 W/m 7,8 C 9,9 C 4,8 km/h (1 Bft) 100,00 %
18.04.2016 17:54 9,9 C 87 % 1017,6 hPa 0,0 l/m 4,7 km/h (1 Bft) NO 56 0 min 0,000 mm 0,0 UV-I 56 W/m 7,8 C 9,9 C 4,8 km/h (1 Bft) 100,00 %
18.04.2016 17:55 9,9 C 87 % 1017,5 hPa 0,0 l/m 4,1 km/h (1 Bft) NO 56 0 min 0,000 mm 0,0 UV-I 56 W/m 7,8 C 9,9 C 4,8 km/h (1 Bft) 91,67 %
18.04.2016 17:56 9,9 C 87 % 1017,5 hPa 0,0 l/m 5,1 km/h (1 Bft) O-NO 67 0 min 0,000 mm 0,0 UV-I 56 W/m 7,8 C 9,9 C 6,4 km/h (2 Bft) 92,31 %
18.04.2016 17:57 9,9 C 87 % 1017,5 hPa 0,0 l/m 3,5 km/h (1 Bft) O 83 0 min 0,000 mm 0,0 UV-I 56 W/m 7,8 C 9,9 C 6,4 km/h (2 Bft) 100,00 %
18.04.2016 17:58 9,9 C 87 % 1017,5 hPa 0,0 l/m 5,8 km/h (2 Bft) O-NO 65 0 min 0,000 mm 0,0 UV-I 56 W/m 7,8 C 9,9 C 8,0 km/h (2 Bft) 100,00 %
18.04.2016 17:59 9,9 C 87 % 1017,5 hPa 0,0 l/m 4,3 km/h (1 Bft) O-NO 77 0 min 0,000 mm 0,0 UV-I 58 W/m 7,8 C 9,9 C 6,4 km/h (2 Bft) 100,00 %
18.04.2016 18:00 9,9 C 88 % 1017,5 hPa 0,0 l/m 5,0 km/h (1 Bft) O-NO 77 0 min 0,000 mm 0,0 UV-I 62 W/m 8,0 C 9,9 C 6,4 km/h (2 Bft) 100,00 %
18.04.2016 18:01 9,9 C 88 % 1017,5 hPa 0,0 l/m 5,4 km/h (1 Bft) O-NO 65 0 min 0,076 mm 0,0 UV-I 66 W/m 8,0 C 9,9 C 6,4 km/h (2 Bft) 95,83 %
18.04.2016 18:02 9,8 C 88 % 1017,5 hPa 0,0 l/m 5,0 km/h (1 Bft) O-NO 71 0 min 0,000 mm 0,0 UV-I 72 W/m 7,9 C 9,8 C 8,0 km/h (2 Bft) 95,65 %
18.04.2016 18:03 9,8 C 87 % 1017,4 hPa 0,0 l/m 6,9 km/h (2 Bft) O-NO 62 0 min 0,000 mm 0,0 UV-I 78 W/m 7,7 C 9,4 C 8,0 km/h (2 Bft) 100,00 %
18.04.2016 18:04 9,8 C 86 % 1017,4 hPa 0,0 l/m 6,1 km/h (2 Bft) O-NO 57 0 min 0,000 mm 0,0 UV-I 84 W/m 7,6 C 9,8 C 8,0 km/h (2 Bft) 100,00 %
18.04.2016 18:05 9,8 C 86 % 1017,4 hPa 0,0 l/m 4,8 km/h (1 Bft) NO 56 0 min 0,000 mm 0,0 UV-I 88 W/m 7,6 C 9,8 C 6,4 km/h (2 Bft) 100,00 %
18.04.2016 18:06 9,8 C 86 % 1017,4 hPa 0,0 l/m 6,1 km/h (2 Bft) O-NO 65 0 min 0,000 mm 0,0 UV-I 91 W/m 7,6 C 9,8 C 8,0 km/h (2 Bft) 100,00 %
18.04.2016 18:07 9,8 C 86 % 1017,3 hPa 0,0 l/m 5,4 km/h (1 Bft) O-NO 66 0 min 0,000 mm 0,0 UV-I 91 W/m 7,6 C 9,8 C 8,0 km/h (2 Bft) 100,00 %
18.04.2016 18:08 9,8 C 86 % 1017,4 hPa 0,0 l/m 4,2 km/h (1 Bft) O-NO 62 0 min 0,000 mm 0,0 UV-I 91 W/m 7,6 C 9,8 C 4,8 km/h (1 Bft) 100,00 %
18.04.2016 18:09 9,8 C 87 % 1017,4 hPa 0,0 l/m 4,2 km/h (1 Bft) NO 51 0 min 0,000 mm 0,0 UV-I 91 W/m 7,7 C 9,8 C 6,4 km/h (2 Bft) 96,15 %
18.04.2016 18:10 9,9 C 87 % 1017,4 hPa 0,0 l/m 3,9 km/h (1 Bft) O-NO 60 0 min 0,000 mm 0,0 UV-I 91 W/m 7,8 C 9,9 C 6,4 km/h (2 Bft) 100,00 %
18.04.2016 18:11 9,9 C 86 % 1017,4 hPa 0,0 l/m 4,4 km/h (1 Bft) O-NO 60 0 min 0,000 mm 0,0 UV-I 91 W/m 7,7 C 9,9 C 4,8 km/h (1 Bft) 100,00 %
18.04.2016 18:12 9,9 C 86 % 1017,5 hPa 0,0 l/m 4,6 km/h (1 Bft) O-NO 71 0 min 0,000 mm 0,0 UV-I 90 W/m 7,7 C 9,9 C 6,4 km/h (2 Bft) 100,00 %
18.04.2016 18:13 9,9 C 86 % 1017,5 hPa 0,0 l/m 4,8 km/h (1 Bft) O-NO 57 0 min 0,000 mm 0,0 UV-I 87 W/m 7,7 C 9,9 C 6,4 km/h (2 Bft) 100,00 %
18.04.2016 18:14 9,9 C 86 % 1017,5 hPa 0,0 l/m 4,3 km/h (1 Bft) O-NO 59 0 min 0,000 mm 0,0 UV-I 83 W/m 7,7 C 9,9 C 6,4 km/h (2 Bft) 100,00 %
18.04.2016 18:15 9,9 C 87 % 1017,4 hPa 0,0 l/m 4,4 km/h (1 Bft) NO 53 0 min 0,000 mm 0,0 UV-I 76 W/m 7,8 C 9,9 C 6,4 km/h (2 Bft) 95,65 %
18.04.2016 18:16 9,9 C 87 % 1017,4 hPa 0,0 l/m 4,2 km/h (1 Bft) NO 48 0 min 0,000 mm 0,0 UV-I 71 W/m 7,8 C 9,9 C 6,4 km/h (2 Bft) 100,00 %
18.04.2016 18:17 9,9 C 88 % 1017,4 hPa 0,0 l/m 2,3 km/h (1 Bft) NO 46 0 min 0,000 mm 0,0 UV-I 67 W/m 8,0 C 9,9 C 4,8 km/h (1 Bft) 100,00 %
18.04.2016 18:18 9,9 C 88 % 1017,4 hPa 0,0 l/m 2,9 km/h (1 Bft) NO 46 0 min 0,000 mm 0,0 UV-I 63 W/m 8,0 C 9,9 C 4,8 km/h (1 Bft) 100,00 %
18.04.2016 18:19 9,9 C 88 % 1017,4 hPa 0,0 l/m 2,3 km/h (1 Bft) NO 46 0 min 0,000 mm 0,0 UV-I 62 W/m 8,0 C 9,9 C 3,2 km/h (1 Bft) 100,00 %
18.04.2016 18:20 9,9 C 88 % 1017,4 hPa 0,0 l/m 2,1 km/h (1 Bft) NO 45 0 min 0,000 mm 0,0 UV-I 60 W/m 8,0 C 9,9 C 4,8 km/h (1 Bft) 100,00 %
18.04.2016 18:21 9,9 C 88 % 1017,4 hPa 0,0 l/m 3,9 km/h (1 Bft) N-NO 29 0 min 0,000 mm 0,0 UV-I 59 W/m 8,0 C 9,9 C 6,4 km/h (2 Bft) 95,65 %
18.04.2016 18:22 9,9 C 89 % 1017,4 hPa 0,0 l/m 5,5 km/h (1 Bft) N-NO 25 0 min 0,000 mm 0,0 UV-I 55 W/m 8,2 C 9,9 C 8,0 km/h (2 Bft) 100,00 %
18.04.2016 18:23 9,9 C 89 % 1017,4 hPa 0,0 l/m 5,3 km/h (1 Bft) NO 42 0 min 0,000 mm 0,0 UV-I 52 W/m 8,2 C 9,9 C 6,4 km/h (2 Bft) 100,00 %
18.04.2016 18:24 9,9 C 88 % 1017,3 hPa 0,0 l/m 5,8 km/h (2 Bft) NO 44 0 min 0,000 mm 0,0 UV-I 48 W/m 8,0 C 9,9 C 6,4 km/h (2 Bft) 100,00 %
18.04.2016 18:25 9,9 C 88 % 1017,3 hPa 0,0 l/m 3,6 km/h (1 Bft) NO 43 0 min 0,000 mm 0,0 UV-I 46 W/m 8,0 C 9,9 C 4,8 km/h (1 Bft) 100,00 %
18.04.2016 18:26 9,9 C 88 % 1017,3 hPa 0,0 l/m 3,8 km/h (1 Bft) NO 34 0 min 0,000 mm 0,0 UV-I 44 W/m 8,0 C 9,9 C 6,4 km/h (2 Bft) 96,15 %
18.04.2016 18:27 9,9 C 88 % 1017,3 hPa 0,0 l/m 3,3 km/h (1 Bft) NO 35 0 min 0,000 mm 0,0 UV-I 44 W/m 8,0 C 9,9 C 4,8 km/h (1 Bft) 100,00 %
18.04.2016 18:28 9,8 C 88 % 1017,3 hPa 0,0 l/m 4,0 km/h (1 Bft) NO 40 0 min 0,000 mm 0,0 UV-I 44 W/m 7,9 C 9,8 C 4,8 km/h (1 Bft) 95,65 %
18.04.2016 18:29 9,8 C 88 % 1017,3 hPa 0,0 l/m 2,5 km/h (1 Bft) NO 40 0 min 0,000 mm 0,0 UV-I 45 W/m 7,9 C 9,8 C 3,2 km/h (1 Bft) 100,00 %
18.04.2016 18:30 9,8 C 89 % 1017,3 hPa 0,0 l/m 4,2 km/h (1 Bft) NO 40 0 min 0,000 mm 0,0 UV-I 46 W/m 8,1 C 9,8 C 6,4 km/h (2 Bft) 96,15 %
18.04.2016 18:31 9,9 C 89 % 1017,3 hPa 0,0 l/m 4,7 km/h (1 Bft) NO 49 0 min 0,000 mm 0,0 UV-I 47 W/m 8,2 C 9,9 C 6,4 km/h (2 Bft) 100,00 %
18.04.2016 18:32 9,9 C 89 % 1017,3 hPa 0,0 l/m 5,9 km/h (2 Bft) O-NO 64 0 min 0,000 mm 0,0 UV-I 47 W/m 8,2 C 9,9 C 6,4 km/h (2 Bft) 100,00 %
18.04.2016 18:33 9,9 C 89 % 1017,3 hPa 0,0 l/m 5,0 km/h (1 Bft) O-NO 59 0 min 0,000 mm 0,0 UV-I 49 W/m 8,2 C 9,9 C 6,4 km/h (2 Bft) 95,83 %
18.04.2016 18:34 9,9 C 88 % 1017,3 hPa 0,0 l/m 4,5 km/h (1 Bft) O-NO 62 0 min 0,000 mm 0,0 UV-I 50 W/m 8,0 C 9,9 C 6,4 km/h (2 Bft) 100,00 %
18.04.2016 18:35 9,9 C 88 % 1017,3 hPa 0,0 l/m 4,1 km/h (1 Bft) O-NO 62 0 min 0,000 mm 0,0 UV-I 51 W/m 8,0 C 9,9 C 6,4 km/h (2 Bft) 100,00 %
18.04.2016 18:36 9,9 C 88 % 1017,3 hPa 0,0 l/m 4,2 km/h (1 Bft) O-NO 62 0 min 0,000 mm 0,0 UV-I 51 W/m 8,0 C 9,9 C 4,8 km/h (1 Bft) 100,00 %
18.04.2016 18:37 9,9 C 88 % 1017,3 hPa 0,0 l/m 3,2 km/h (1 Bft) O-NO 62 0 min 0,000 mm 0,0 UV-I 51 W/m 8,0 C 9,9 C 3,2 km/h (1 Bft) 100,00 %
18.04.2016 18:38 9,9 C 89 % 1017,3 hPa 0,0 l/m 6,0 km/h (2 Bft) N-NO 31 0 min 0,000 mm 0,0 UV-I 51 W/m 8,2 C 9,9 C 8,0 km/h (2 Bft) 100,00 %
18.04.2016 18:39 9,9 C 89 % 1017,3 hPa 0,0 l/m 5,9 km/h (2 Bft) NO 48 0 min 0,000 mm 0,0 UV-I 50 W/m 8,2 C 9,9 C 6,4 km/h (2 Bft) 100,00 %
18.04.2016 18:40 9,9 C 89 % 1017,3 hPa 0,0 l/m 5,7 km/h (1 Bft) NO 47 0 min 0,000 mm 0,0 UV-I 48 W/m 8,2 C 9,9 C 8,0 km/h (2 Bft) 91,67 %
18.04.2016 18:41 9,9 C 89 % 1017,3 hPa 0,0 l/m 3,5 km/h (1 Bft) N-NO 32 0 min 0,000 mm 0,0 UV-I 47 W/m 8,2 C 9,9 C 6,4 km/h (2 Bft) 100,00 %
18.04.2016 18:42 9,8 C 89 % 1017,3 hPa 0,0 l/m 5,2 km/h (1 Bft) NO 45 0 min 0,000 mm 0,0 UV-I 45 W/m 8,1 C 9,8 C 6,4 km/h (2 Bft) 92,59 %
18.04.2016 18:43 9,8 C 89 % 1017,3 hPa 0,0 l/m 4,9 km/h (1 Bft) NO 53 0 min 0,000 mm 0,0 UV-I 44 W/m 8,1 C 9,8 C 6,4 km/h (2 Bft) 96,15 %
18.04.2016 18:44 9,8 C 89 % 1017,3 hPa 0,0 l/m 6,8 km/h (2 Bft) N-NO 13 0 min 0,000 mm 0,0 UV-I 42 W/m 8,1 C 9,5 C 9,7 km/h (2 Bft) 100,00 %
18.04.2016 18:45 9,8 C 89 % 1017,3 hPa 0,0 l/m 5,4 km/h (1 Bft) N-NO 30 0 min 0,000 mm 0,0 UV-I 42 W/m 8,1 C 9,8 C 8,0 km/h (2 Bft) 93,33 %
18.04.2016 18:46 9,8 C 89 % 1017,3 hPa 0,0 l/m 7,2 km/h (2 Bft) NO 41 0 min 0,000 mm 0,0 UV-I 41 W/m 8,1 C 9,2 C 11,3 km/h (2 Bft) 100,00 %
18.04.2016 18:47 9,8 C 89 % 1017,3 hPa 0,0 l/m 7,0 km/h (2 Bft) N-NO 22 0 min 0,000 mm 0,0 UV-I 40 W/m 8,1 C 9,4 C 11,3 km/h (2 Bft) 96,15 %
18.04.2016 18:48 9,8 C 89 % 1017,3 hPa 0,0 l/m 6,6 km/h (2 Bft) N-NO 24 0 min 0,000 mm 0,0 UV-I 39 W/m 8,1 C 9,7 C 9,7 km/h (2 Bft) 100,00 %
18.04.2016 18:49 9,7 C 89 % 1017,3 hPa 0,0 l/m 5,6 km/h (1 Bft) N-NO 26 0 min 0,000 mm 0,0 UV-I 37 W/m 8,0 C 9,7 C 8,0 km/h (2 Bft) 95,65 %
18.04.2016 18:50 9,7 C 89 % 1017,3 hPa 0,0 l/m 5,8 km/h (2 Bft) N-NO 33 0 min 0,000 mm 0,0 UV-I 37 W/m 8,0 C 9,7 C 8,0 km/h (2 Bft) 100,00 %
18.04.2016 18:51 9,7 C 89 % 1017,4 hPa 0,0 l/m 3,1 km/h (1 Bft) N-NO 28 0 min 0,000 mm 0,0 UV-I 34 W/m 8,0 C 9,7 C 4,8 km/h (1 Bft) 96,15 %
18.04.2016 18:52 9,7 C 89 % 1017,4 hPa 0,0 l/m 4,5 km/h (1 Bft) NO 46 0 min 0,000 mm 0,0 UV-I 32 W/m 8,0 C 9,7 C 6,4 km/h (2 Bft) 95,83 %
18.04.2016 18:53 9,7 C 89 % 1017,4 hPa 0,0 l/m 3,1 km/h (1 Bft) NO 43 0 min 0,000 mm 0,0 UV-I 31 W/m 8,0 C 9,7 C 6,4 km/h (2 Bft) 100,00 %
18.04.2016 18:54 9,7 C 89 % 1017,4 hPa 0,0 l/m 3,2 km/h (1 Bft) NO 43 0 min 0,000 mm 0,0 UV-I 30 W/m 8,0 C 9,7 C 6,4 km/h (2 Bft) 100,00 %
18.04.2016 18:55 9,7 C 89 % 1017,4 hPa 0,0 l/m 4,6 km/h (1 Bft) NO 43 0 min 0,000 mm 0,0 UV-I 28 W/m 8,0 C 9,7 C 6,4 km/h (2 Bft) 95,65 %
18.04.2016 18:56 9,7 C 89 % 1017,5 hPa 0,0 l/m 3,8 km/h (1 Bft) NO 43 0 min 0,000 mm 0,0 UV-I 26 W/m 8,0 C 9,7 C 4,8 km/h (1 Bft) 95,83 %
18.04.2016 18:57 9,7 C 89 % 1017,5 hPa 0,0 l/m 2,7 km/h (1 Bft) NO 43 0 min 0,000 mm 0,0 UV-I 26 W/m 8,0 C 9,7 C 3,2 km/h (1 Bft) 100,00 %
18.04.2016 18:58 9,7 C 89 % 1017,5 hPa 0,0 l/m 3,1 km/h (1 Bft) NO 43 0 min 0,000 mm 0,0 UV-I 25 W/m 8,0 C 9,7 C 4,8 km/h (1 Bft) 96,30 %
18.04.2016 18:59 9,7 C 89 % 1017,6 hPa 0,0 l/m 3,5 km/h (1 Bft) NO 42 0 min 0,000 mm 0,0 UV-I 25 W/m 8,0 C 9,7 C 6,4 km/h (2 Bft) 100,00 %
18.04.2016 19:00 9,7 C 89 % 1017,5 hPa 0,0 l/m 3,2 km/h (1 Bft) NO 42 0 min 0,000 mm 0,0 UV-I 25 W/m 8,0 C 9,7 C 4,8 km/h (1 Bft) 91,67 %
18.04.2016 19:01 9,7 C 89 % 1017,5 hPa 0,0 l/m 3,0 km/h (1 Bft) NO 44 0 min 0,026 mm 0,0 UV-I 25 W/m 8,0 C 9,7 C 4,8 km/h (1 Bft) 95,65 %
18.04.2016 19:02 9,7 C 88 % 1017,6 hPa 0,0 l/m 2,3 km/h (1 Bft) NO 44 0 min 0,000 mm 0,0 UV-I 25 W/m 7,8 C 9,7 C 3,2 km/h (1 Bft) 100,00 %
18.04.2016 19:03 9,7 C 88 % 1017,5 hPa 0,0 l/m 1,9 km/h (1 Bft) NO 44 0 min 0,000 mm 0,0 UV-I 26 W/m 7,8 C 9,7 C 3,2 km/h (1 Bft) 93,33 %
18.04.2016 19:04 9,7 C 88 % 1017,5 hPa 0,0 l/m 2,3 km/h (1 Bft) NO 44 0 min 0,000 mm 0,0 UV-I 26 W/m 7,8 C 9,7 C 3,2 km/h (1 Bft) 100,00 %
18.04.2016 19:05 9,7 C 88 % 1017,5 hPa 0,0 l/m 3,0 km/h (1 Bft) NO 44 0 min 0,000 mm 0,0 UV-I 26 W/m 7,8 C 9,7 C 3,2 km/h (1 Bft) 96,30 %
18.04.2016 19:06 9,7 C 89 % 1017,5 hPa 0,0 l/m 2,9 km/h (1 Bft) NO 44 0 min 0,000 mm 0,0 UV-I 26 W/m 8,0 C 9,7 C 3,2 km/h (1 Bft) 100,00 %
18.04.2016 19:07 9,7 C 89 % 1017,5 hPa 0,0 l/m 3,7 km/h (1 Bft) NO 42 0 min 0,000 mm 0,0 UV-I 28 W/m 8,0 C 9,7 C 4,8 km/h (1 Bft) 91,67 %
18.04.2016 19:08 9,7 C 90 % 1017,5 hPa 0,0 l/m 3,6 km/h (1 Bft) N-NO 24 0 min 0,000 mm 0,0 UV-I 28 W/m 8,1 C 9,7 C 4,8 km/h (1 Bft) 100,00 %
18.04.2016 19:09 9,7 C 89 % 1017,5 hPa 0,0 l/m 2,7 km/h (1 Bft) N-NO 24 0 min 0,000 mm 0,0 UV-I 28 W/m 8,0 C 9,7 C 4,8 km/h (1 Bft) 95,83 %
18.04.2016 19:10 9,7 C 89 % 1017,6 hPa 0,0 l/m 3,1 km/h (1 Bft) N-NO 27 0 min 0,000 mm 0,0 UV-I 27 W/m 8,0 C 9,7 C 3,2 km/h (1 Bft) 96,15 %
18.04.2016 19:11 9,7 C 89 % 1017,6 hPa 0,0 l/m 1,0 km/h (0 Bft) N-NO 27 0 min 0,000 mm 0,0 UV-I 26 W/m 8,0 C 9,7 C 3,2 km/h (1 Bft) 100,00 %
18.04.2016 19:12 9,7 C 89 % 1017,6 hPa 0,0 l/m 0,8 km/h (0 Bft) N-NO 27 0 min 0,000 mm 0,0 UV-I 25 W/m 8,0 C 9,7 C 3,2 km/h (1 Bft) 94,12 %
18.04.2016 19:13 9,7 C 89 % 1017,6 hPa 0,0 l/m 2,2 km/h (1 Bft) N-NO 27 0 min 0,000 mm 0,0 UV-I 25 W/m 8,0 C 9,7 C 3,2 km/h (1 Bft) 100,00 %
18.04.2016 19:14 9,7 C 89 % 1017,7 hPa 0,0 l/m 1,3 km/h (1 Bft) N-NO 27 0 min 0,000 mm 0,0 UV-I 23 W/m 8,0 C 9,7 C 1,6 km/h (1 Bft) 100,00 %
18.04.2016 19:15 9,6 C 90 % 1017,7 hPa 0,0 l/m 0,0 km/h (0 Bft) N-NO 27 0 min 0,000 mm 0,0 UV-I 23 W/m 8,0 C 9,6 C 0,0 km/h (0 Bft) 100,00 %
18.04.2016 19:16 9,6 C 90 % 1017,7 hPa 0,0 l/m 0,4 km/h (0 Bft) N-NO 27 0 min 0,000 mm 0,0 UV-I 22 W/m 8,0 C 9,6 C 1,6 km/h (1 Bft) 98,58 %
18.04.2016 19:17 9,6 C 90 % 1017,7 hPa 0,0 l/m 1,4 km/h (1 Bft) N-NO 27 0 min 0,000 mm 0,0 UV-I 21 W/m 8,0 C 9,6 C 3,2 km/h (1 Bft) 97,56 %
18.04.2016 19:18 9,6 C 90 % 1017,7 hPa 0,0 l/m 1,3 km/h (1 Bft) N-NO 27 0 min 0,000 mm 0,0 UV-I 21 W/m 8,0 C 9,6 C 1,6 km/h (1 Bft) 100,00 %
18.04.2016 19:19 9,6 C 90 % 1017,8 hPa 0,0 l/m 1,3 km/h (1 Bft) N-NO 27 0 min 0,000 mm 0,0 UV-I 21 W/m 8,0 C 9,6 C 1,6 km/h (1 Bft) 100,00 %
18.04.2016 19:20 9,6 C 91 % 1017,7 hPa 0,0 l/m 0,0 km/h (0 Bft) N-NO 27 0 min 0,000 mm 0,0 UV-I 19 W/m 8,2 C 9,6 C 0,0 km/h (0 Bft) 100,00 %
18.04.2016 19:21 9,6 C 91 % 1017,8 hPa 0,0 l/m 0,1 km/h (0 Bft) N-NO 27 0 min 0,000 mm 0,0 UV-I 19 W/m 8,2 C 9,6 C 1,6 km/h (1 Bft) 95,83 %
18.04.2016 19:22 9,6 C 91 % 1017,7 hPa 0,0 l/m 0,5 km/h (0 Bft) N-NO 27 0 min 0,000 mm 0,0 UV-I 19 W/m 8,2 C 9,6 C 1,6 km/h (1 Bft) 100,00 %
18.04.2016 19:23 9,6 C 92 % 1017,7 hPa 0,0 l/m 0,2 km/h (0 Bft) N-NO 27 0 min 0,000 mm 0,0 UV-I 19 W/m 8,4 C 9,6 C 1,6 km/h (1 Bft) 100,00 %
18.04.2016 19:24 9,6 C 92 % 1017,8 hPa 0,0 l/m 0,1 km/h (0 Bft) N-NO 27 0 min 0,000 mm 0,0 UV-I 19 W/m 8,4 C 9,6 C 1,6 km/h (1 Bft) 100,00 %
18.04.2016 19:25 9,6 C 92 % 1017,8 hPa 0,0 l/m 0,0 km/h (0 Bft) N-NO 27 0 min 0,000 mm 0,0 UV-I 18 W/m 8,4 C 9,6 C 0,0 km/h (0 Bft) 96,55 %
18.04.2016 19:26 9,6 C 92 % 1017,8 hPa 0,0 l/m 0,1 km/h (0 Bft) N-NO 27 0 min 0,000 mm 0,0 UV-I 17 W/m 8,4 C 9,6 C 1,6 km/h (1 Bft) 100,00 %
18.04.2016 19:27 9,5 C 92 % 1017,8 hPa 0,0 l/m 0,0 km/h (0 Bft) N-NO 27 0 min 0,000 mm 0,0 UV-I 15 W/m 8,3 C 9,5 C 0,0 km/h (0 Bft) 95,65 %
18.04.2016 19:28 9,5 C 92 % 1017,8 hPa 0,0 l/m 0,1 km/h (0 Bft) N-NO 27 0 min 0,000 mm 0,0 UV-I 14 W/m 8,3 C 9,5 C 1,6 km/h (1 Bft) 100,00 %
18.04.2016 19:29 9,5 C 92 % 1017,9 hPa 0,0 l/m 0,4 km/h (0 Bft) N-NO 27 0 min 0,000 mm 0,0 UV-I 13 W/m 8,3 C 9,5 C 1,6 km/h (1 Bft) 100,00 %
18.04.2016 19:30 9,5 C 92 % 1017,8 hPa 0,0 l/m 0,0 km/h (0 Bft) N-NO 27 0 min 0,000 mm 0,0 UV-I 12 W/m 8,3 C 9,5 C 0,0 km/h (0 Bft) 100,00 %
18.04.2016 19:31 9,5 C 92 % 1017,8 hPa 0,0 l/m 0,3 km/h (0 Bft) N-NO 27 0 min 0,000 mm 0,0 UV-I 11 W/m 8,3 C 9,5 C 1,6 km/h (1 Bft) 100,00 %
18.04.2016 19:32 9,5 C 92 % 1017,8 hPa 0,0 l/m 0,7 km/h (0 Bft) N-NO 27 0 min 0,000 mm 0,0 UV-I 11 W/m 8,3 C 9,5 C 1,6 km/h (1 Bft) 96,30 %
18.04.2016 19:33 9,5 C 92 % 1017,8 hPa 0,0 l/m 0,3 km/h (0 Bft) N-NO 27 0 min 0,000 mm 0,0 UV-I 11 W/m 8,3 C 9,5 C 1,6 km/h (1 Bft) 100,00 %
18.04.2016 19:34 9,5 C 92 % 1017,8 hPa 0,0 l/m 0,5 km/h (0 Bft) N-NO 27 0 min 0,000 mm 0,0 UV-I 11 W/m 8,3 C 9,5 C 1,6 km/h (1 Bft) 95,83 %
18.04.2016 19:35 9,4 C 92 % 1017,8 hPa 0,0 l/m 0,0 km/h (0 Bft) N-NO 27 0 min 0,000 mm 0,0 UV-I 10 W/m 8,2 C 9,4 C 0,0 km/h (0 Bft) 100,00 %
18.04.2016 19:36 9,4 C 92 % 1017,8 hPa 0,0 l/m 0,6 km/h (0 Bft) N-NO 24 0 min 0,000 mm 0,0 UV-I 9 W/m 8,2 C 9,4 C 1,6 km/h (1 Bft) 93,33 %
18.04.2016 19:37 9,4 C 92 % 1017,8 hPa 0,0 l/m 0,1 km/h (0 Bft) N-NO 24 0 min 0,000 mm 0,0 UV-I 9 W/m 8,2 C 9,4 C 1,6 km/h (1 Bft) 91,67 %
18.04.2016 19:38 9,4 C 92 % 1017,8 hPa 0,0 l/m 0,1 km/h (0 Bft) N-NO 24 0 min 0,000 mm 0,0 UV-I 9 W/m 8,2 C 9,4 C 1,6 km/h (1 Bft) 100,00 %
18.04.2016 19:39 9,4 C 92 % 1017,8 hPa 0,0 l/m 0,1 km/h (0 Bft) N-NO 24 0 min 0,000 mm 0,0 UV-I 8 W/m 8,2 C 9,4 C 1,6 km/h (1 Bft) 100,00 %
18.04.2016 19:40 9,4 C 92 % 1017,8 hPa 0,0 l/m 0,1 km/h (0 Bft) N-NO 24 0 min 0,000 mm 0,0 UV-I 7 W/m 8,2 C 9,4 C 1,6 km/h (1 Bft) 100,00 %
18.04.2016 19:41 9,3 C 93 % 1017,9 hPa 0,0 l/m 0,0 km/h (0 Bft) N-NO 24 0 min 0,000 mm 0,0 UV-I 7 W/m 8,2 C 9,3 C 0,0 km/h (0 Bft) 100,00 %
18.04.2016 19:42 9,3 C 93 % 1017,9 hPa 0,0 l/m 0,0 km/h (0 Bft) N-NO 24 0 min 0,000 mm 0,0 UV-I 7 W/m 8,2 C 9,3 C 0,0 km/h (0 Bft) 100,00 %
18.04.2016 19:43 9,3 C 93 % 1017,9 hPa 0,0 l/m 0,9 km/h (0 Bft) N-NO 24 0 min 0,000 mm 0,0 UV-I 7 W/m 8,2 C 9,3 C 1,6 km/h (1 Bft) 100,00 %
18.04.2016 19:44 9,3 C 93 % 1017,9 hPa 0,0 l/m 0,1 km/h (0 Bft) N-NO 24 0 min 0,000 mm 0,0 UV-I 7 W/m 8,2 C 9,3 C 1,6 km/h (1 Bft) 95,83 %
18.04.2016 19:45 9,3 C 93 % 1017,9 hPa 0,0 l/m 0,5 km/h (0 Bft) N-NO 24 0 min 0,000 mm 0,0 UV-I 7 W/m 8,2 C 9,3 C 1,6 km/h (1 Bft) 100,00 %
18.04.2016 19:46 9,3 C 93 % 1017,9 hPa 0,0 l/m 0,5 km/h (0 Bft) N-NO 24 0 min 0,000 mm 0,0 UV-I 7 W/m 8,2 C 9,3 C 3,2 km/h (1 Bft) 100,00 %
18.04.2016 19:47 9,3 C 93 % 1017,8 hPa 0,0 l/m 1,6 km/h (1 Bft) N-NO 24 0 min 0,000 mm 0,0 UV-I 7 W/m 8,2 C 9,3 C 3,2 km/h (1 Bft) 100,00 %
18.04.2016 19:48 9,3 C 93 % 1017,8 hPa 0,0 l/m 1,3 km/h (1 Bft) N-NO 24 0 min 0,000 mm 0,0 UV-I 7 W/m 8,2 C 9,3 C 3,2 km/h (1 Bft) 95,65 %
18.04.2016 19:49 9,2 C 93 % 1017,8 hPa 0,0 l/m 2,7 km/h (1 Bft) NO 34 0 min 0,000 mm 0,0 UV-I 6 W/m 8,1 C 9,2 C 4,8 km/h (1 Bft) 100,00 %
18.04.2016 19:50 9,2 C 93 % 1017,8 hPa 0,0 l/m 3,5 km/h (1 Bft) NO 34 0 min 0,000 mm 0,0 UV-I 5 W/m 8,1 C 9,2 C 4,8 km/h (1 Bft) 100,00 %
18.04.2016 19:51 9,2 C 93 % 1017,9 hPa 0,0 l/m 2,8 km/h (1 Bft) NO 34 0 min 0,000 mm 0,0 UV-I 5 W/m 8,1 C 9,2 C 4,8 km/h (1 Bft) 96,30 %
18.04.2016 19:52 9,2 C 93 % 1017,9 hPa 0,0 l/m 3,0 km/h (1 Bft) NO 34 0 min 0,000 mm 0,0 UV-I 5 W/m 8,1 C 9,2 C 3,2 km/h (1 Bft) 100,00 %
18.04.2016 19:53 9,2 C 93 % 1017,9 hPa 0,0 l/m 3,1 km/h (1 Bft) NO 34 0 min 0,000 mm 0,0 UV-I 5 W/m 8,1 C 9,2 C 4,8 km/h (1 Bft) 100,00 %
18.04.2016 19:54 9,2 C 93 % 1018,0 hPa 0,0 l/m 1,8 km/h (1 Bft) NO 34 0 min 0,000 mm 0,0 UV-I 5 W/m 8,1 C 9,2 C 3,2 km/h (1 Bft) 90,91 %
18.04.2016 19:55 9,2 C 93 % 1017,9 hPa 0,0 l/m 1,4 km/h (1 Bft) NO 34 0 min 0,000 mm 0,0 UV-I 0 W/m 8,1 C 9,2 C 3,2 km/h (1 Bft) 100,00 %
18.04.2016 19:56 9,2 C 93 % 1018,0 hPa 0,0 l/m 2,0 km/h (1 Bft) NO 34 0 min 0,000 mm 0,0 UV-I 0 W/m 8,1 C 9,2 C 3,2 km/h (1 Bft) 100,00 %
18.04.2016 19:57 9,2 C 93 % 1018,0 hPa 0,0 l/m 2,3 km/h (1 Bft) NO 34 0 min 0,000 mm 0,0 UV-I 0 W/m 8,1 C 9,2 C 3,2 km/h (1 Bft) 100,00 %
18.04.2016 19:58 9,2 C 93 % 1018,0 hPa 0,0 l/m 2,7 km/h (1 Bft) NO 34 0 min 0,000 mm 0,0 UV-I 0 W/m 8,1 C 9,2 C 3,2 km/h (1 Bft) 100,00 %
18.04.2016 19:59 9,2 C 93 % 1018,0 hPa 0,0 l/m 2,3 km/h (1 Bft) NO 34 0 min 0,000 mm 0,0 UV-I 0 W/m 8,1 C 9,2 C 3,2 km/h (1 Bft) 100,00 %
18.04.2016 20:00 9,2 C 93 % 1018,0 hPa 0,0 l/m 3,8 km/h (1 Bft) NO 34 0 min 0,000 mm 0,0 UV-I 0 W/m 8,1 C 9,2 C 4,8 km/h (1 Bft) 95,83 %
18.04.2016 20:01 9,2 C 93 % 1018,0 hPa 0,0 l/m 2,7 km/h (1 Bft) NO 34 0 min 0,000 mm 0,0 UV-I 0 W/m 8,1 C 9,2 C 3,2 km/h (1 Bft) 100,00 %
18.04.2016 20:02 9,2 C 93 % 1018,0 hPa 0,0 l/m 2,2 km/h (1 Bft) NO 34 0 min 0,000 mm 0,0 UV-I 0 W/m 8,1 C 9,2 C 3,2 km/h (1 Bft) 100,00 %
18.04.2016 20:03 9,2 C 93 % 1018,0 hPa 0,0 l/m 3,4 km/h (1 Bft) NO 34 0 min 0,000 mm 0,0 UV-I 0 W/m 8,1 C 9,2 C 4,8 km/h (1 Bft) 100,00 %
18.04.2016 20:04 9,2 C 93 % 1018,0 hPa 0,0 l/m 3,0 km/h (1 Bft) NO 34 0 min 0,000 mm 0,0 UV-I 0 W/m 8,1 C 9,2 C 4,8 km/h (1 Bft) 100,00 %
18.04.2016 20:05 9,1 C 93 % 1018,0 hPa 0,0 l/m 1,8 km/h (1 Bft) NO 34 0 min 0,000 mm 0,0 UV-I 0 W/m 8,0 C 9,1 C 3,2 km/h (1 Bft) 100,00 %
18.04.2016 20:06 9,1 C 93 % 1018,0 hPa 0,0 l/m 2,1 km/h (1 Bft) NO 34 0 min 0,000 mm 0,0 UV-I 0 W/m 8,0 C 9,1 C 3,2 km/h (1 Bft) 100,00 %
18.04.2016 20:07 9,1 C 94 % 1018,0 hPa 0,0 l/m 2,0 km/h (1 Bft) NO 34 0 min 0,000 mm 0,0 UV-I 0 W/m 8,2 C 9,1 C 3,2 km/h (1 Bft) 100,00 %
18.04.2016 20:08 9,1 C 94 % 1018,1 hPa 0,0 l/m 2,2 km/h (1 Bft) NO 34 0 min 0,000 mm 0,0 UV-I 0 W/m 8,2 C 9,1 C 3,2 km/h (1 Bft) 100,00 %
18.04.2016 20:09 9,1 C 94 % 1018,1 hPa 0,0 l/m 2,7 km/h (1 Bft) NO 34 0 min 0,000 mm 0,0 UV-I 0 W/m 8,2 C 9,1 C 3,2 km/h (1 Bft) 100,00 %
18.04.2016 20:10 9,0 C 94 % 1018,2 hPa 0,0 l/m 2,3 km/h (1 Bft) NO 34 0 min 0,000 mm 0,0 UV-I 0 W/m 8,1 C 9,0 C 3,2 km/h (1 Bft) 100,00 %
18.04.2016 20:11 9,0 C 94 % 1018,2 hPa 0,0 l/m 1,8 km/h (1 Bft) NO 34 0 min 0,000 mm 0,0 UV-I 0 W/m 8,1 C 9,0 C 3,2 km/h (1 Bft) 98,60 %
18.04.2016 20:12 8,9 C 94 % 1018,2 hPa 0,0 l/m 1,6 km/h (1 Bft) NO 34 0 min 0,000 mm 0,0 UV-I 0 W/m 8,0 C 8,9 C 3,2 km/h (1 Bft) 100,00 %
18.04.2016 20:13 8,9 C 94 % 1018,2 hPa 0,0 l/m 1,0 km/h (0 Bft) NO 34 0 min 0,000 mm 0,0 UV-I 0 W/m 8,0 C 8,9 C 1,6 km/h (1 Bft) 100,00 %
18.04.2016 20:14 8,9 C 94 % 1018,2 hPa 0,0 l/m 0,7 km/h (0 Bft) NO 34 0 min 0,000 mm 0,0 UV-I 0 W/m 8,0 C 8,9 C 1,6 km/h (1 Bft) 100,00 %
18.04.2016 20:15 8,9 C 94 % 1018,2 hPa 0,0 l/m 0,3 km/h (0 Bft) NO 34 0 min 0,000 mm 0,0 UV-I 0 W/m 8,0 C 8,9 C 1,6 km/h (1 Bft) 91,67 %
18.04.2016 20:16 8,9 C 94 % 1018,3 hPa 0,0 l/m 0,2 km/h (0 Bft) NO 34 0 min 0,000 mm 0,0 UV-I 0 W/m 8,0 C 8,9 C 1,6 km/h (1 Bft) 100,00 %
18.04.2016 20:17 8,9 C 94 % 1018,3 hPa 0,0 l/m 0,0 km/h (0 Bft) NO 34 0 min 0,000 mm 0,0 UV-I 0 W/m 8,0 C 8,9 C 0,0 km/h (0 Bft) 100,00 %
18.04.2016 20:18 8,9 C 94 % 1018,3 hPa 0,0 l/m 0,0 km/h (0 Bft) NO 34 0 min 0,000 mm 0,0 UV-I 0 W/m 8,0 C 8,9 C 0,0 km/h (0 Bft) 100,00 %
18.04.2016 20:19 8,9 C 94 % 1018,3 hPa 0,0 l/m 0,0 km/h (0 Bft) NO 34 0 min 0,000 mm 0,0 UV-I 0 W/m 8,0 C 8,9 C 0,0 km/h (0 Bft) 100,00 %
18.04.2016 20:20 8,9 C 94 % 1018,4 hPa 0,0 l/m 0,0 km/h (0 Bft) NO 34 0 min 0,000 mm 0,0 UV-I 0 W/m 8,0 C 8,9 C 0,0 km/h (0 Bft) 100,00 %
18.04.2016 20:21 8,9 C 94 % 1018,4 hPa 0,0 l/m 0,0 km/h (0 Bft) NO 34 0 min 0,000 mm 0,0 UV-I 0 W/m 8,0 C 8,9 C 0,0 km/h (0 Bft) 100,00 %
18.04.2016 20:22 8,9 C 94 % 1018,4 hPa 0,0 l/m 0,0 km/h (0 Bft) NO 34 0 min 0,000 mm 0,0 UV-I 0 W/m 8,0 C 8,9 C 0,0 km/h (0 Bft) 100,00 %
18.04.2016 20:23 8,9 C 94 % 1018,4 hPa 0,0 l/m 0,0 km/h (0 Bft) NO 34 0 min 0,000 mm 0,0 UV-I 0 W/m 8,0 C 8,9 C 0,0 km/h (0 Bft) 100,00 %
18.04.2016 20:24 8,8 C 94 % 1018,5 hPa 0,0 l/m 0,0 km/h (0 Bft) NO 34 0 min 0,000 mm 0,0 UV-I 0 W/m 7,9 C 8,8 C 0,0 km/h (0 Bft) 100,00 %
18.04.2016 20:25 8,8 C 94 % 1018,5 hPa 0,0 l/m 0,0 km/h (0 Bft) NO 34 0 min 0,000 mm 0,0 UV-I 0 W/m 7,9 C 8,8 C 0,0 km/h (0 Bft) 95,83 %
18.04.2016 20:26 8,8 C 94 % 1018,5 hPa 0,0 l/m 0,0 km/h (0 Bft) NO 34 0 min 0,000 mm 0,0 UV-I 0 W/m 7,9 C 8,8 C 0,0 km/h (0 Bft) 95,65 %
18.04.2016 20:27 8,8 C 94 % 1018,6 hPa 0,0 l/m 0,0 km/h (0 Bft) NO 34 0 min 0,000 mm 0,0 UV-I 0 W/m 7,9 C 8,8 C 0,0 km/h (0 Bft) 100,00 %
18.04.2016 20:28 8,8 C 95 % 1018,6 hPa 0,0 l/m 0,0 km/h (0 Bft) NO 34 0 min 0,000 mm 0,0 UV-I 0 W/m 8,0 C 8,8 C 0,0 km/h (0 Bft) 100,00 %
18.04.2016 20:29 8,8 C 95 % 1018,6 hPa 0,0 l/m 0,0 km/h (0 Bft) NO 34 0 min 0,000 mm 0,0 UV-I 0 W/m 8,0 C 8,8 C 0,0 km/h (0 Bft) 100,00 %
18.04.2016 20:30 8,8 C 95 % 1018,6 hPa 0,0 l/m 0,0 km/h (0 Bft) NO 34 0 min 0,000 mm 0,0 UV-I 0 W/m 8,0 C 8,8 C 0,0 km/h (0 Bft) 100,00 %
18.04.2016 20:31 8,8 C 95 % 1018,6 hPa 0,0 l/m 0,0 km/h (0 Bft) NO 34 0 min 0,000 mm 0,0 UV-I 0 W/m 8,0 C 8,8 C 0,0 km/h (0 Bft) 100,00 %
18.04.2016 20:32 8,9 C 95 % 1018,6 hPa 0,0 l/m 0,0 km/h (0 Bft) NO 34 0 min 0,000 mm 0,0 UV-I 0 W/m 8,1 C 8,9 C 0,0 km/h (0 Bft) 92,86 %
18.04.2016 20:33 8,9 C 95 % 1018,7 hPa 0,0 l/m 0,0 km/h (0 Bft) NO 34 0 min 0,000 mm 0,0 UV-I 0 W/m 8,1 C 8,9 C 0,0 km/h (0 Bft) 100,00 %
18.04.2016 20:34 8,9 C 95 % 1018,6 hPa 0,0 l/m 0,0 km/h (0 Bft) NO 34 0 min 0,000 mm 0,0 UV-I 0 W/m 8,1 C 8,9 C 0,0 km/h (0 Bft) 100,00 %
18.04.2016 20:35 8,9 C 95 % 1018,7 hPa 0,0 l/m 0,0 km/h (0 Bft) NO 34 0 min 0,000 mm 0,0 UV-I 0 W/m 8,1 C 8,9 C 0,0 km/h (0 Bft) 100,00 %
18.04.2016 20:36 8,9 C 95 % 1018,7 hPa 0,0 l/m 0,0 km/h (0 Bft) NO 34 0 min 0,000 mm 0,0 UV-I 0 W/m 8,1 C 8,9 C 0,0 km/h (0 Bft) 100,00 %
18.04.2016 20:37 8,9 C 95 % 1018,7 hPa 0,0 l/m 0,0 km/h (0 Bft) NO 34 0 min 0,000 mm 0,0 UV-I 0 W/m 8,1 C 8,9 C 0,0 km/h (0 Bft) 100,00 %
18.04.2016 20:38 8,8 C 95 % 1018,8 hPa 0,0 l/m 0,0 km/h (0 Bft) NO 34 0 min 0,000 mm 0,0 UV-I 0 W/m 8,0 C 8,8 C 0,0 km/h (0 Bft) 91,67 %
18.04.2016 20:39 8,8 C 94 % 1018,8 hPa 0,0 l/m 0,0 km/h (0 Bft) NO 34 0 min 0,000 mm 0,0 UV-I 0 W/m 7,9 C 8,8 C 0,0 km/h (0 Bft) 100,00 %
18.04.2016 20:40 8,8 C 94 % 1018,8 hPa 0,0 l/m 0,0 km/h (0 Bft) NO 34 0 min 0,000 mm 0,0 UV-I 0 W/m 7,9 C 8,8 C 0,0 km/h (0 Bft) 100,00 %
18.04.2016 20:41 8,8 C 95 % 1018,8 hPa 0,0 l/m 0,0 km/h (0 Bft) NO 34 0 min 0,000 mm 0,0 UV-I 0 W/m 8,0 C 8,8 C 0,0 km/h (0 Bft) 100,00 %
18.04.2016 20:42 8,8 C 95 % 1018,8 hPa 0,0 l/m 0,0 km/h (0 Bft) NO 34 0 min 0,000 mm 0,0 UV-I 0 W/m 8,0 C 8,8 C 0,0 km/h (0 Bft) 100,00 %
18.04.2016 20:43 8,8 C 95 % 1018,8 hPa 0,0 l/m 0,1 km/h (0 Bft) NO 34 0 min 0,000 mm 0,0 UV-I 0 W/m 8,0 C 8,8 C 1,6 km/h (1 Bft) 100,00 %
18.04.2016 20:44 8,8 C 95 % 1018,8 hPa 0,0 l/m 0,0 km/h (0 Bft) NO 34 0 min 0,000 mm 0,0 UV-I 0 W/m 8,0 C 8,8 C 0,0 km/h (0 Bft) 95,83 %
18.04.2016 20:45 8,8 C 95 % 1018,8 hPa 0,0 l/m 0,0 km/h (0 Bft) NO 34 0 min 0,000 mm 0,0 UV-I 0 W/m 8,0 C 8,8 C 0,0 km/h (0 Bft) 96,15 %
18.04.2016 20:46 8,8 C 95 % 1018,8 hPa 0,0 l/m 0,0 km/h (0 Bft) NO 34 0 min 0,000 mm 0,0 UV-I 0 W/m 8,0 C 8,8 C 0,0 km/h (0 Bft) 100,00 %
18.04.2016 20:47 8,8 C 95 % 1018,8 hPa 0,0 l/m 0,3 km/h (0 Bft) NO 34 0 min 0,000 mm 0,0 UV-I 0 W/m 8,0 C 8,8 C 1,6 km/h (1 Bft) 96,15 %
18.04.2016 20:48 8,8 C 95 % 1018,8 hPa 0,0 l/m 0,5 km/h (0 Bft) NO 34 0 min 0,000 mm 0,0 UV-I 0 W/m 8,0 C 8,8 C 1,6 km/h (1 Bft) 100,00 %
18.04.2016 20:49 8,8 C 95 % 1018,8 hPa 0,0 l/m 0,0 km/h (0 Bft) NO 34 0 min 0,000 mm 0,0 UV-I 0 W/m 8,0 C 8,8 C 0,0 km/h (0 Bft) 95,65 %
18.04.2016 20:50 8,8 C 95 % 1018,9 hPa 0,0 l/m 0,2 km/h (0 Bft) NO 34 0 min 0,000 mm 0,0 UV-I 0 W/m 8,0 C 8,8 C 1,6 km/h (1 Bft) 100,00 %
18.04.2016 20:51 8,8 C 95 % 1018,8 hPa 0,0 l/m 1,1 km/h (1 Bft) NO 34 0 min 0,000 mm 0,0 UV-I 0 W/m 8,0 C 8,8 C 1,6 km/h (1 Bft) 91,30 %
18.04.2016 20:52 8,8 C 95 % 1018,8 hPa 0,0 l/m 1,6 km/h (1 Bft) NO 34 0 min 0,000 mm 0,0 UV-I 0 W/m 8,0 C 8,8 C 1,6 km/h (1 Bft) 100,00 %
18.04.2016 20:53 8,8 C 95 % 1018,9 hPa 0,0 l/m 1,0 km/h (0 Bft) NO 34 0 min 0,000 mm 0,0 UV-I 0 W/m 8,0 C 8,8 C 1,6 km/h (1 Bft) 96,15 %
18.04.2016 20:54 8,7 C 94 % 1018,9 hPa 0,0 l/m 0,5 km/h (0 Bft) NO 34 0 min 0,000 mm 0,0 UV-I 0 W/m 7,8 C 8,7 C 1,6 km/h (1 Bft) 96,30 %
18.04.2016 20:55 8,7 C 94 % 1018,9 hPa 0,0 l/m 0,1 km/h (0 Bft) NO 34 0 min 0,000 mm 0,0 UV-I 0 W/m 7,8 C 8,7 C 1,6 km/h (1 Bft) 100,00 %
18.04.2016 20:56 8,7 C 94 % 1018,9 hPa 0,0 l/m 0,0 km/h (0 Bft) NO 34 0 min 0,000 mm 0,0 UV-I 0 W/m 7,8 C 8,7 C 0,0 km/h (0 Bft) 93,33 %
18.04.2016 20:57 8,7 C 95 % 1019,0 hPa 0,0 l/m 0,0 km/h (0 Bft) NO 34 0 min 0,000 mm 0,0 UV-I 0 W/m 7,9 C 8,7 C 0,0 km/h (0 Bft) 100,00 %
18.04.2016 20:58 8,7 C 95 % 1019,0 hPa 0,0 l/m 0,0 km/h (0 Bft) NO 34 0 min 0,000 mm 0,0 UV-I 0 W/m 7,9 C 8,7 C 0,0 km/h (0 Bft) 91,30 %
18.04.2016 20:59 8,7 C 95 % 1019,0 hPa 0,0 l/m 0,0 km/h (0 Bft) NO 34 0 min 0,000 mm 0,0 UV-I 0 W/m 7,9 C 8,7 C 0,0 km/h (0 Bft) 100,00 %
18.04.2016 21:00 8,6 C 95 % 1019,0 hPa 0,0 l/m 0,0 km/h (0 Bft) NO 34 0 min 0,000 mm 0,0 UV-I 0 W/m 7,8 C 8,6 C 0,0 km/h (0 Bft) 96,15 %
18.04.2016 21:01 8,7 C 95 % 1019,0 hPa 0,0 l/m 0,0 km/h (0 Bft) NO 34 0 min 0,000 mm 0,0 UV-I 0 W/m 7,9 C 8,7 C 0,0 km/h (0 Bft) 100,00 %
18.04.2016 21:02 8,7 C 95 % 1019,0 hPa 0,0 l/m 0,0 km/h (0 Bft) NO 34 0 min 0,000 mm 0,0 UV-I 0 W/m 7,9 C 8,7 C 0,0 km/h (0 Bft) 95,65 %
18.04.2016 21:03 8,7 C 95 % 1019,1 hPa 0,0 l/m 0,0 km/h (0 Bft) NO 34 0 min 0,000 mm 0,0 UV-I 0 W/m 7,9 C 8,7 C 0,0 km/h (0 Bft) 95,83 %
18.04.2016 21:04 8,7 C 95 % 1019,1 hPa 0,0 l/m 0,0 km/h (0 Bft) NO 34 0 min 0,000 mm 0,0 UV-I 0 W/m 7,9 C 8,7 C 0,0 km/h (0 Bft) 100,00 %
18.04.2016 21:05 8,7 C 95 % 1019,1 hPa 0,0 l/m 0,0 km/h (0 Bft) NO 34 0 min 0,000 mm 0,0 UV-I 0 W/m 7,9 C 8,7 C 0,0 km/h (0 Bft) 95,83 %
18.04.2016 21:06 8,7 C 95 % 1019,1 hPa 0,0 l/m 0,0 km/h (0 Bft) NO 34 0 min 0,000 mm 0,0 UV-I 0 W/m 7,9 C 8,7 C 0,0 km/h (0 Bft) 100,00 %
18.04.2016 21:07 8,7 C 95 % 1019,1 hPa 0,0 l/m 0,0 km/h (0 Bft) NO 34 0 min 0,000 mm 0,0 UV-I 0 W/m 7,9 C 8,7 C 0,0 km/h (0 Bft) 96,30 %
18.04.2016 21:08 8,7 C 95 % 1019,1 hPa 0,0 l/m 0,0 km/h (0 Bft) NO 34 0 min 0,000 mm 0,0 UV-I 0 W/m 7,9 C 8,7 C 0,0 km/h (0 Bft) 100,00 %
18.04.2016 21:09 8,7 C 95 % 1019,2 hPa 0,0 l/m 0,0 km/h (0 Bft) NO 34 0 min 0,000 mm 0,0 UV-I 0 W/m 7,9 C 8,7 C 0,0 km/h (0 Bft) 93,33 %
18.04.2016 21:10 8,7 C 95 % 1019,2 hPa 0,0 l/m 0,0 km/h (0 Bft) NO 34 0 min 0,000 mm 0,0 UV-I 0 W/m 7,9 C 8,7 C 0,0 km/h (0 Bft) 100,00 %
18.04.2016 21:11 8,7 C 95 % 1019,2 hPa 0,0 l/m 0,0 km/h (0 Bft) NO 34 0 min 0,000 mm 0,0 UV-I 0 W/m 7,9 C 8,7 C 0,0 km/h (0 Bft) 95,83 %
18.04.2016 21:12 8,7 C 95 % 1019,1 hPa 0,0 l/m 0,0 km/h (0 Bft) NO 34 0 min 0,000 mm 0,0 UV-I 0 W/m 7,9 C 8,7 C 0,0 km/h (0 Bft) 96,15 %
18.04.2016 21:13 8,7 C 95 % 1019,2 hPa 0,0 l/m 0,0 km/h (0 Bft) NO 34 0 min 0,000 mm 0,0 UV-I 0 W/m 7,9 C 8,7 C 0,0 km/h (0 Bft) 100,00 %
18.04.2016 21:14 8,7 C 95 % 1019,2 hPa 0,0 l/m 0,1 km/h (0 Bft) NO 34 0 min 0,000 mm 0,0 UV-I 0 W/m 7,9 C 8,7 C 1,6 km/h (1 Bft) 95,65 %
18.04.2016 21:15 8,7 C 95 % 1019,2 hPa 0,0 l/m 0,0 km/h (0 Bft) NO 34 0 min 0,000 mm 0,0 UV-I 0 W/m 7,9 C 8,7 C 0,0 km/h (0 Bft) 100,00 %
18.04.2016 21:16 8,7 C 95 % 1019,2 hPa 0,0 l/m 0,0 km/h (0 Bft) NO 34 0 min 0,000 mm 0,0 UV-I 0 W/m 7,9 C 8,7 C 0,0 km/h (0 Bft) 100,00 %
18.04.2016 21:17 8,7 C 95 % 1019,2 hPa 0,0 l/m 0,0 km/h (0 Bft) NO 34 0 min 0,000 mm 0,0 UV-I 0 W/m 7,9 C 8,7 C 0,0 km/h (0 Bft) 100,00 %
18.04.2016 21:18 8,7 C 95 % 1019,2 hPa 0,0 l/m 0,0 km/h (0 Bft) NO 34 0 min 0,000 mm 0,0 UV-I 0 W/m 7,9 C 8,7 C 0,0 km/h (0 Bft) 100,00 %
18.04.2016 21:19 8,7 C 95 % 1019,2 hPa 0,0 l/m 1,3 km/h (1 Bft) NO 34 0 min 0,000 mm 0,0 UV-I 0 W/m 7,9 C 8,7 C 3,2 km/h (1 Bft) 100,00 %
18.04.2016 21:20 8,6 C 95 % 1019,2 hPa 0,0 l/m 1,5 km/h (1 Bft) NO 34 0 min 0,000 mm 0,0 UV-I 0 W/m 7,8 C 8,6 C 1,6 km/h (1 Bft) 96,30 %
18.04.2016 21:21 8,6 C 95 % 1019,2 hPa 0,0 l/m 0,9 km/h (0 Bft) NO 34 0 min 0,000 mm 0,0 UV-I 0 W/m 7,8 C 8,6 C 1,6 km/h (1 Bft) 96,15 %
18.04.2016 21:22 8,6 C 95 % 1019,3 hPa 0,0 l/m 0,8 km/h (0 Bft) NO 34 0 min 0,000 mm 0,0 UV-I 0 W/m 7,8 C 8,6 C 1,6 km/h (1 Bft) 100,00 %
18.04.2016 21:23 8,6 C 95 % 1019,3 hPa 0,0 l/m 0,0 km/h (0 Bft) NO 34 0 min 0,000 mm 0,0 UV-I 0 W/m 7,8 C 8,6 C 0,0 km/h (0 Bft) 100,00 %
18.04.2016 21:24 8,6 C 95 % 1019,2 hPa 0,0 l/m 0,0 km/h (0 Bft) NO 34 0 min 0,000 mm 0,0 UV-I 0 W/m 7,8 C 8,6 C 0,0 km/h (0 Bft) 100,00 %
18.04.2016 21:25 8,6 C 95 % 1019,2 hPa 0,0 l/m 0,0 km/h (0 Bft) NO 34 0 min 0,000 mm 0,0 UV-I 0 W/m 7,8 C 8,6 C 0,0 km/h (0 Bft) 100,00 %
18.04.2016 21:26 8,6 C 95 % 1019,3 hPa 0,0 l/m 0,0 km/h (0 Bft) NO 34 0 min 0,000 mm 0,0 UV-I 0 W/m 7,8 C 8,6 C 0,0 km/h (0 Bft) 100,00 %
18.04.2016 21:27 8,6 C 95 % 1019,3 hPa 0,0 l/m 0,0 km/h (0 Bft) NO 34 0 min 0,000 mm 0,0 UV-I 0 W/m 7,8 C 8,6 C 0,0 km/h (0 Bft) 95,65 %
18.04.2016 21:28 8,6 C 95 % 1019,3 hPa 0,0 l/m 0,0 km/h (0 Bft) NO 34 0 min 0,000 mm 0,0 UV-I 0 W/m 7,8 C 8,6 C 0,0 km/h (0 Bft) 100,00 %
18.04.2016 21:29 8,6 C 95 % 1019,3 hPa 0,0 l/m 0,0 km/h (0 Bft) NO 34 0 min 0,000 mm 0,0 UV-I 0 W/m 7,8 C 8,6 C 0,0 km/h (0 Bft) 100,00 %
18.04.2016 21:30 8,6 C 95 % 1019,4 hPa 0,0 l/m 0,0 km/h (0 Bft) NO 34 0 min 0,000 mm 0,0 UV-I 0 W/m 7,8 C 8,6 C 0,0 km/h (0 Bft) 100,00 %
18.04.2016 21:31 8,6 C 95 % 1019,4 hPa 0,0 l/m 0,0 km/h (0 Bft) NO 34 0 min 0,000 mm 0,0 UV-I 0 W/m 7,8 C 8,6 C 0,0 km/h (0 Bft) 100,00 %
18.04.2016 21:32 8,6 C 95 % 1019,4 hPa 0,0 l/m 0,0 km/h (0 Bft) NO 34 0 min 0,000 mm 0,0 UV-I 0 W/m 7,8 C 8,6 C 0,0 km/h (0 Bft) 100,00 %
18.04.2016 21:33 8,6 C 95 % 1019,4 hPa 0,0 l/m 0,0 km/h (0 Bft) NO 34 0 min 0,000 mm 0,0 UV-I 0 W/m 7,8 C 8,6 C 0,0 km/h (0 Bft) 100,00 %
18.04.2016 21:34 8,6 C 95 % 1019,4 hPa 0,0 l/m 0,0 km/h (0 Bft) NO 34 0 min 0,000 mm 0,0 UV-I 0 W/m 7,8 C 8,6 C 0,0 km/h (0 Bft) 95,83 %
18.04.2016 21:35 8,6 C 95 % 1019,4 hPa 0,0 l/m 0,0 km/h (0 Bft) NO 34 0 min 0,000 mm 0,0 UV-I 0 W/m 7,8 C 8,6 C 0,0 km/h (0 Bft) 95,65 %
18.04.2016 21:36 8,6 C 95 % 1019,4 hPa 0,0 l/m 0,0 km/h (0 Bft) NO 34 0 min 0,000 mm 0,0 UV-I 0 W/m 7,8 C 8,6 C 0,0 km/h (0 Bft) 100,00 %
18.04.2016 21:37 8,6 C 95 % 1019,5 hPa 0,0 l/m 0,0 km/h (0 Bft) NO 34 0 min 0,000 mm 0,0 UV-I 0 W/m 7,8 C 8,6 C 0,0 km/h (0 Bft) 100,00 %
18.04.2016 21:38 8,6 C 95 % 1019,5 hPa 0,0 l/m 0,0 km/h (0 Bft) NO 34 0 min 0,000 mm 0,0 UV-I 0 W/m 7,8 C 8,6 C 0,0 km/h (0 Bft) 100,00 %
18.04.2016 21:39 8,6 C 95 % 1019,5 hPa 0,0 l/m 0,0 km/h (0 Bft) NO 34 0 min 0,000 mm 0,0 UV-I 0 W/m 7,8 C 8,6 C 0,0 km/h (0 Bft) 100,00 %
18.04.2016 21:40 8,6 C 95 % 1019,5 hPa 0,0 l/m 0,1 km/h (0 Bft) NO 34 0 min 0,000 mm 0,0 UV-I 0 W/m 7,8 C 8,6 C 1,6 km/h (1 Bft) 100,00 %
18.04.2016 21:41 8,6 C 96 % 1019,5 hPa 0,0 l/m 0,6 km/h (0 Bft) NO 34 0 min 0,000 mm 0,0 UV-I 0 W/m 8,0 C 8,6 C 1,6 km/h (1 Bft) 95,65 %
18.04.2016 21:42 8,7 C 96 % 1019,5 hPa 0,0 l/m 1,2 km/h (1 Bft) NO 34 0 min 0,000 mm 0,0 UV-I 0 W/m 8,1 C 8,7 C 3,2 km/h (1 Bft) 100,00 %
18.04.2016 21:43 8,7 C 96 % 1019,5 hPa 0,0 l/m 1,8 km/h (1 Bft) NO 34 0 min 0,000 mm 0,0 UV-I 0 W/m 8,1 C 8,7 C 3,2 km/h (1 Bft) 100,00 %
18.04.2016 21:44 8,7 C 96 % 1019,5 hPa 0,0 l/m 1,5 km/h (1 Bft) NO 34 0 min 0,000 mm 0,0 UV-I 0 W/m 8,1 C 8,7 C 1,6 km/h (1 Bft) 100,00 %
18.04.2016 21:45 8,7 C 96 % 1019,6 hPa 0,0 l/m 0,8 km/h (0 Bft) NO 34 0 min 0,000 mm 0,0 UV-I 0 W/m 8,1 C 8,7 C 1,6 km/h (1 Bft) 100,00 %
18.04.2016 21:46 8,7 C 96 % 1019,5 hPa 0,0 l/m 0,0 km/h (0 Bft) NO 34 0 min 0,000 mm 0,0 UV-I 0 W/m 8,1 C 8,7 C 0,0 km/h (0 Bft) 100,00 %
18.04.2016 21:47 8,7 C 96 % 1019,5 hPa 0,0 l/m 0,0 km/h (0 Bft) NO 34 0 min 0,000 mm 0,0 UV-I 0 W/m 8,1 C 8,7 C 0,0 km/h (0 Bft) 100,00 %
18.04.2016 21:48 8,7 C 96 % 1019,6 hPa 0,0 l/m 0,0 km/h (0 Bft) NO 34 0 min 0,000 mm 0,0 UV-I 0 W/m 8,1 C 8,7 C 0,0 km/h (0 Bft) 100,00 %
18.04.2016 21:49 8,7 C 96 % 1019,6 hPa 0,0 l/m 0,0 km/h (0 Bft) NO 34 0 min 0,000 mm 0,0 UV-I 0 W/m 8,1 C 8,7 C 0,0 km/h (0 Bft) 100,00 %
18.04.2016 21:50 8,7 C 96 % 1019,6 hPa 0,0 l/m 0,0 km/h (0 Bft) NO 34 0 min 0,000 mm 0,0 UV-I 0 W/m 8,1 C 8,7 C 0,0 km/h (0 Bft) 100,00 %
18.04.2016 21:51 8,7 C 96 % 1019,6 hPa 0,0 l/m 0,0 km/h (0 Bft) NO 34 0 min 0,000 mm 0,0 UV-I 0 W/m 8,1 C 8,7 C 0,0 km/h (0 Bft) 100,00 %
18.04.2016 21:52 8,7 C 96 % 1019,6 hPa 0,0 l/m 0,0 km/h (0 Bft) NO 34 0 min 0,000 mm 0,0 UV-I 0 W/m 8,1 C 8,7 C 0,0 km/h (0 Bft) 100,00 %
18.04.2016 21:53 8,7 C 96 % 1019,6 hPa 0,0 l/m 0,0 km/h (0 Bft) NO 34 0 min 0,000 mm 0,0 UV-I 0 W/m 8,1 C 8,7 C 0,0 km/h (0 Bft) 96,30 %
18.04.2016 21:54 8,7 C 96 % 1019,6 hPa 0,0 l/m 0,1 km/h (0 Bft) NO 34 0 min 0,000 mm 0,0 UV-I 0 W/m 8,1 C 8,7 C 1,6 km/h (1 Bft) 100,00 %
18.04.2016 21:55 8,7 C 96 % 1019,6 hPa 0,0 l/m 0,5 km/h (0 Bft) NO 34 0 min 0,000 mm 0,0 UV-I 0 W/m 8,1 C 8,7 C 1,6 km/h (1 Bft) 100,00 %
18.04.2016 21:56 8,7 C 96 % 1019,6 hPa 0,0 l/m 0,9 km/h (0 Bft) NO 34 0 min 0,000 mm 0,0 UV-I 0 W/m 8,1 C 8,7 C 1,6 km/h (1 Bft) 98,61 %
18.04.2016 21:57 8,7 C 96 % 1019,6 hPa 0,0 l/m 0,1 km/h (0 Bft) NO 34 0 min 0,000 mm 0,0 UV-I 0 W/m 8,1 C 8,7 C 1,6 km/h (1 Bft) 97,56 %
18.04.2016 21:58 8,7 C 96 % 1019,6 hPa 0,0 l/m 0,0 km/h (0 Bft) NO 34 0 min 0,000 mm 0,0 UV-I 0 W/m 8,1 C 8,7 C 0,0 km/h (0 Bft) 100,00 %
18.04.2016 21:59 8,7 C 96 % 1019,7 hPa 0,0 l/m 0,0 km/h (0 Bft) NO 34 0 min 0,000 mm 0,0 UV-I 0 W/m 8,1 C 8,7 C 0,0 km/h (0 Bft) 100,00 %
18.04.2016 22:00 8,7 C 96 % 1019,6 hPa 0,0 l/m 0,0 km/h (0 Bft) NO 34 0 min 0,000 mm 0,0 UV-I 0 W/m 8,1 C 8,7 C 0,0 km/h (0 Bft) 100,00 %
18.04.2016 22:01 8,7 C 96 % 1019,7 hPa 0,0 l/m 0,0 km/h (0 Bft) NO 34 0 min 0,000 mm 0,0 UV-I 0 W/m 8,1 C 8,7 C 0,0 km/h (0 Bft) 95,65 %
18.04.2016 22:02 8,7 C 96 % 1019,7 hPa 0,0 l/m 0,0 km/h (0 Bft) NO 34 0 min 0,000 mm 0,0 UV-I 0 W/m 8,1 C 8,7 C 0,0 km/h (0 Bft) 100,00 %
18.04.2016 22:03 8,7 C 96 % 1019,7 hPa 0,0 l/m 0,0 km/h (0 Bft) NO 34 0 min 0,000 mm 0,0 UV-I 0 W/m 8,1 C 8,7 C 0,0 km/h (0 Bft) 100,00 %
18.04.2016 22:04 8,7 C 96 % 1019,8 hPa 0,0 l/m 0,1 km/h (0 Bft) NO 34 0 min 0,000 mm 0,0 UV-I 0 W/m 8,1 C 8,7 C 1,6 km/h (1 Bft) 100,00 %
18.04.2016 22:05 8,7 C 96 % 1019,8 hPa 0,0 l/m 0,1 km/h (0 Bft) NO 34 0 min 0,000 mm 0,0 UV-I 0 W/m 8,1 C 8,7 C 1,6 km/h (1 Bft) 100,00 %
18.04.2016 22:06 8,7 C 96 % 1019,8 hPa 0,0 l/m 0,8 km/h (0 Bft) NO 34 0 min 0,000 mm 0,0 UV-I 0 W/m 8,1 C 8,7 C 1,6 km/h (1 Bft) 100,00 %
18.04.2016 22:07 8,7 C 96 % 1019,8 hPa 0,0 l/m 0,8 km/h (0 Bft) NO 34 0 min 0,000 mm 0,0 UV-I 0 W/m 8,1 C 8,7 C 1,6 km/h (1 Bft) 100,00 %
18.04.2016 22:08 8,7 C 96 % 1019,8 hPa 0,0 l/m 1,3 km/h (1 Bft) NO 34 0 min 0,000 mm 0,0 UV-I 0 W/m 8,1 C 8,7 C 1,6 km/h (1 Bft) 100,00 %
18.04.2016 22:09 8,7 C 96 % 1019,9 hPa 0,0 l/m 1,6 km/h (1 Bft) NO 34 0 min 0,000 mm 0,0 UV-I 0 W/m 8,1 C 8,7 C 3,2 km/h (1 Bft) 100,00 %
18.04.2016 22:10 8,7 C 96 % 1019,8 hPa 0,0 l/m 1,8 km/h (1 Bft) NO 34 0 min 0,000 mm 0,0 UV-I 0 W/m 8,1 C 8,7 C 3,2 km/h (1 Bft) 96,30 %
18.04.2016 22:11 8,7 C 96 % 1019,9 hPa 0,0 l/m 2,2 km/h (1 Bft) NO 34 0 min 0,000 mm 0,0 UV-I 0 W/m 8,1 C 8,7 C 3,2 km/h (1 Bft) 100,00 %
18.04.2016 22:12 8,7 C 96 % 1019,9 hPa 0,0 l/m 1,8 km/h (1 Bft) NO 34 0 min 0,000 mm 0,0 UV-I 0 W/m 8,1 C 8,7 C 3,2 km/h (1 Bft) 100,00 %
18.04.2016 22:13 8,7 C 96 % 1019,8 hPa 0,0 l/m 1,9 km/h (1 Bft) NO 34 0 min 0,000 mm 0,0 UV-I 0 W/m 8,1 C 8,7 C 3,2 km/h (1 Bft) 100,00 %
18.04.2016 22:14 8,7 C 96 % 1019,8 hPa 0,0 l/m 1,9 km/h (1 Bft) NO 34 0 min 0,000 mm 0,0 UV-I 0 W/m 8,1 C 8,7 C 3,2 km/h (1 Bft) 100,00 %
18.04.2016 22:15 8,6 C 96 % 1019,9 hPa 0,0 l/m 1,8 km/h (1 Bft) NO 34 0 min 0,000 mm 0,0 UV-I 0 W/m 8,0 C 8,6 C 3,2 km/h (1 Bft) 100,00 %
18.04.2016 22:16 8,6 C 96 % 1019,9 hPa 0,0 l/m 1,7 km/h (1 Bft) NO 34 0 min 0,000 mm 0,0 UV-I 0 W/m 8,0 C 8,6 C 3,2 km/h (1 Bft) 100,00 %
18.04.2016 22:17 8,6 C 96 % 1019,9 hPa 0,0 l/m 1,4 km/h (1 Bft) NO 34 0 min 0,000 mm 0,0 UV-I 0 W/m 8,0 C 8,6 C 1,6 km/h (1 Bft) 100,00 %
18.04.2016 22:18 8,6 C 96 % 1019,9 hPa 0,0 l/m 1,1 km/h (1 Bft) NO 34 0 min 0,000 mm 0,0 UV-I 0 W/m 8,0 C 8,6 C 1,6 km/h (1 Bft) 100,00 %
18.04.2016 22:19 8,6 C 96 % 1019,9 hPa 0,0 l/m 0,6 km/h (0 Bft) NO 34 0 min 0,000 mm 0,0 UV-I 0 W/m 8,0 C 8,6 C 1,6 km/h (1 Bft) 95,83 %
18.04.2016 22:20 8,6 C 96 % 1019,9 hPa 0,0 l/m 1,2 km/h (1 Bft) NO 34 0 min 0,000 mm 0,0 UV-I 0 W/m 8,0 C 8,6 C 3,2 km/h (1 Bft) 100,00 %
18.04.2016 22:21 8,6 C 96 % 1019,9 hPa 0,0 l/m 0,7 km/h (0 Bft) NO 34 0 min 0,000 mm 0,0 UV-I 0 W/m 8,0 C 8,6 C 1,6 km/h (1 Bft) 100,00 %
18.04.2016 22:22 8,6 C 96 % 1019,9 hPa 0,0 l/m 1,0 km/h (0 Bft) NO 34 0 min 0,000 mm 0,0 UV-I 0 W/m 8,0 C 8,6 C 1,6 km/h (1 Bft) 100,00 %
18.04.2016 22:23 8,6 C 96 % 1019,9 hPa 0,0 l/m 0,1 km/h (0 Bft) NO 34 0 min 0,000 mm 0,0 UV-I 0 W/m 8,0 C 8,6 C 1,6 km/h (1 Bft) 96,30 %
18.04.2016 22:24 8,6 C 96 % 1019,9 hPa 0,0 l/m 0,0 km/h (0 Bft) NO 34 0 min 0,000 mm 0,0 UV-I 0 W/m 8,0 C 8,6 C 0,0 km/h (0 Bft) 100,00 %
18.04.2016 22:25 8,6 C 96 % 1019,9 hPa 0,0 l/m 0,1 km/h (0 Bft) NO 34 0 min 0,000 mm 0,0 UV-I 0 W/m 8,0 C 8,6 C 1,6 km/h (1 Bft) 100,00 %
18.04.2016 22:26 8,6 C 96 % 1019,9 hPa 0,0 l/m 0,0 km/h (0 Bft) NO 34 0 min 0,000 mm 0,0 UV-I 0 W/m 8,0 C 8,6 C 0,0 km/h (0 Bft) 100,00 %
18.04.2016 22:27 8,6 C 96 % 1019,9 hPa 0,0 l/m 0,0 km/h (0 Bft) NO 34 0 min 0,000 mm 0,0 UV-I 0 W/m 8,0 C 8,6 C 0,0 km/h (0 Bft) 100,00 %
18.04.2016 22:28 8,7 C 96 % 1019,9 hPa 0,0 l/m 0,1 km/h (0 Bft) NO 34 0 min 0,000 mm 0,0 UV-I 0 W/m 8,1 C 8,7 C 1,6 km/h (1 Bft) 95,65 %
18.04.2016 22:29 8,7 C 96 % 1019,9 hPa 0,0 l/m 0,0 km/h (0 Bft) NO 34 0 min 0,000 mm 0,0 UV-I 0 W/m 8,1 C 8,7 C 0,0 km/h (0 Bft) 100,00 %
18.04.2016 22:30 8,7 C 96 % 1019,9 hPa 0,0 l/m 0,0 km/h (0 Bft) NO 34 0 min 0,000 mm 0,0 UV-I 0 W/m 8,1 C 8,7 C 0,0 km/h (0 Bft) 100,00 %
18.04.2016 22:31 8,7 C 96 % 1019,9 hPa 0,0 l/m 0,0 km/h (0 Bft) NO 34 0 min 0,000 mm 0,0 UV-I 0 W/m 8,1 C 8,7 C 0,0 km/h (0 Bft) 100,00 %
18.04.2016 22:32 8,7 C 96 % 1019,9 hPa 0,0 l/m 0,0 km/h (0 Bft) NO 34 0 min 0,000 mm 0,0 UV-I 0 W/m 8,1 C 8,7 C 0,0 km/h (0 Bft) 100,00 %
18.04.2016 22:33 8,7 C 96 % 1019,9 hPa 0,0 l/m 0,0 km/h (0 Bft) NO 34 0 min 0,000 mm 0,0 UV-I 0 W/m 8,1 C 8,7 C 0,0 km/h (0 Bft) 100,00 %
18.04.2016 22:34 8,7 C 96 % 1020,0 hPa 0,0 l/m 0,0 km/h (0 Bft) NO 34 0 min 0,000 mm 0,0 UV-I 0 W/m 8,1 C 8,7 C 0,0 km/h (0 Bft) 100,00 %
18.04.2016 22:35 8,7 C 96 % 1020,0 hPa 0,0 l/m 0,0 km/h (0 Bft) NO 34 0 min 0,000 mm 0,0 UV-I 0 W/m 8,1 C 8,7 C 0,0 km/h (0 Bft) 96,15 %
18.04.2016 22:36 8,7 C 96 % 1020,0 hPa 0,0 l/m 0,0 km/h (0 Bft) NO 34 0 min 0,000 mm 0,0 UV-I 0 W/m 8,1 C 8,7 C 0,0 km/h (0 Bft) 100,00 %
18.04.2016 22:37 8,7 C 96 % 1020,0 hPa 0,0 l/m 0,0 km/h (0 Bft) NO 34 0 min 0,000 mm 0,0 UV-I 0 W/m 8,1 C 8,7 C 0,0 km/h (0 Bft) 95,65 %
18.04.2016 22:38 8,7 C 96 % 1020,0 hPa 0,0 l/m 0,1 km/h (0 Bft) NO 34 0 min 0,000 mm 0,0 UV-I 0 W/m 8,1 C 8,7 C 1,6 km/h (1 Bft) 100,00 %
18.04.2016 22:39 8,7 C 96 % 1020,1 hPa 0,0 l/m 0,0 km/h (0 Bft) NO 34 0 min 0,000 mm 0,0 UV-I 0 W/m 8,1 C 8,7 C 0,0 km/h (0 Bft) 100,00 %
18.04.2016 22:40 8,7 C 96 % 1020,1 hPa 0,0 l/m 0,0 km/h (0 Bft) NO 45 0 min 0,000 mm 0,0 UV-I 0 W/m 8,1 C 8,7 C 1,6 km/h (1 Bft) 100,00 %
18.04.2016 22:45 8,7 C 96 % 1020,1 hPa 0,0 l/m 0,0 km/h (0 Bft) NO 45 0 min 0,000 mm 0,0 UV-I 0 W/m 8,1 C 8,7 C 1,6 km/h (1 Bft) 99,12 %
18.04.2016 22:50 8,6 C 96 % 1020,1 hPa 0,0 l/m 1,6 km/h (1 Bft) NO 45 0 min 0,000 mm 0,0 UV-I 0 W/m 8,0 C 8,6 C 3,2 km/h (1 Bft) 100,00 %
18.04.2016 22:55 8,6 C 96 % 1020,2 hPa 0,0 l/m 1,6 km/h (1 Bft) NO 45 0 min 0,000 mm 0,0 UV-I 0 W/m 8,0 C 8,6 C 3,2 km/h (1 Bft) 99,12 %
18.04.2016 23:00 8,6 C 96 % 1020,3 hPa 0,0 l/m 0,0 km/h (0 Bft) NO 45 0 min 0,000 mm 0,0 UV-I 0 W/m 8,0 C 8,6 C 1,6 km/h (1 Bft) 100,00 %
18.04.2016 23:05 8,6 C 96 % 1020,2 hPa 0,0 l/m 0,0 km/h (0 Bft) NO 45 0 min 0,000 mm 0,0 UV-I 0 W/m 8,0 C 8,6 C 1,6 km/h (1 Bft) 100,00 %
18.04.2016 23:10 8,7 C 97 % 1020,3 hPa 0,0 l/m 0,0 km/h (0 Bft) NO 45 0 min 0,000 mm 0,0 UV-I 0 W/m 8,3 C 8,7 C 1,6 km/h (1 Bft) 100,00 %
18.04.2016 23:12 8,7 C 97 % 1020,4 hPa 0,0 l/m 0,1 km/h (0 Bft) NO 34 0 min 0,000 mm 0,0 UV-I 0 W/m 8,3 C 8,7 C 1,6 km/h (1 Bft) 97,40 %
18.04.2016 23:13 8,7 C 97 % 1020,4 hPa 0,0 l/m 0,8 km/h (0 Bft) NO 34 0 min 0,000 mm 0,0 UV-I 0 W/m 8,3 C 8,7 C 1,6 km/h (1 Bft) 95,83 %
18.04.2016 23:14 8,7 C 97 % 1020,4 hPa 0,0 l/m 0,7 km/h (0 Bft) NO 34 0 min 0,000 mm 0,0 UV-I 0 W/m 8,3 C 8,7 C 1,6 km/h (1 Bft) 96,15 %
18.04.2016 23:15 8,7 C 97 % 1020,4 hPa 0,0 l/m 0,6 km/h (0 Bft) NO 34 0 min 0,000 mm 0,0 UV-I 0 W/m 8,3 C 8,7 C 1,6 km/h (1 Bft) 100,00 %
18.04.2016 23:16 8,7 C 97 % 1020,4 hPa 0,0 l/m 0,0 km/h (0 Bft) NO 34 0 min 0,000 mm 0,0 UV-I 0 W/m 8,3 C 8,7 C 0,0 km/h (0 Bft) 100,00 %
18.04.2016 23:17 8,7 C 97 % 1020,4 hPa 0,0 l/m 0,3 km/h (0 Bft) NO 34 0 min 0,000 mm 0,0 UV-I 0 W/m 8,3 C 8,7 C 1,6 km/h (1 Bft) 100,00 %
18.04.2016 23:18 8,7 C 97 % 1020,4 hPa 0,0 l/m 1,1 km/h (1 Bft) N-NO 33 0 min 0,000 mm 0,0 UV-I 0 W/m 8,3 C 8,7 C 3,2 km/h (1 Bft) 92,86 %
18.04.2016 23:19 8,7 C 96 % 1020,4 hPa 0,0 l/m 0,3 km/h (0 Bft) N-NO 33 0 min 0,000 mm 0,0 UV-I 0 W/m 8,1 C 8,7 C 1,6 km/h (1 Bft) 100,00 %
18.04.2016 23:20 8,7 C 96 % 1020,4 hPa 0,0 l/m 0,1 km/h (0 Bft) N-NO 33 0 min 0,000 mm 0,0 UV-I 0 W/m 8,1 C 8,7 C 1,6 km/h (1 Bft) 96,15 %
18.04.2016 23:21 8,7 C 96 % 1020,4 hPa 0,0 l/m 0,0 km/h (0 Bft) N-NO 33 0 min 0,000 mm 0,0 UV-I 0 W/m 8,1 C 8,7 C 0,0 km/h (0 Bft) 100,00 %
18.04.2016 23:22 8,7 C 96 % 1020,4 hPa 0,0 l/m 0,0 km/h (0 Bft) N-NO 33 0 min 0,000 mm 0,0 UV-I 0 W/m 8,1 C 8,7 C 0,0 km/h (0 Bft) 95,65 %
18.04.2016 23:23 8,7 C 96 % 1020,4 hPa 0,0 l/m 0,1 km/h (0 Bft) N-NO 33 0 min 0,000 mm 0,0 UV-I 0 W/m 8,1 C 8,7 C 1,6 km/h (1 Bft) 100,00 %
18.04.2016 23:24 8,7 C 96 % 1020,4 hPa 0,0 l/m 0,1 km/h (0 Bft) N-NO 33 0 min 0,000 mm 0,0 UV-I 0 W/m 8,1 C 8,7 C 1,6 km/h (1 Bft) 100,00 %
18.04.2016 23:25 8,7 C 96 % 1020,4 hPa 0,0 l/m 0,0 km/h (0 Bft) N-NO 33 0 min 0,000 mm 0,0 UV-I 0 W/m 8,1 C 8,7 C 0,0 km/h (0 Bft) 100,00 %
18.04.2016 23:26 8,7 C 96 % 1020,5 hPa 0,0 l/m 0,0 km/h (0 Bft) N-NO 33 0 min 0,000 mm 0,0 UV-I 0 W/m 8,1 C 8,7 C 0,0 km/h (0 Bft) 100,00 %
18.04.2016 23:27 8,7 C 96 % 1020,5 hPa 0,0 l/m 0,0 km/h (0 Bft) N-NO 33 0 min 0,000 mm 0,0 UV-I 0 W/m 8,1 C 8,7 C 0,0 km/h (0 Bft) 91,30 %
18.04.2016 23:28 8,7 C 96 % 1020,5 hPa 0,0 l/m 0,1 km/h (0 Bft) N-NO 33 0 min 0,000 mm 0,0 UV-I 0 W/m 8,1 C 8,7 C 1,6 km/h (1 Bft) 100,00 %
18.04.2016 23:29 8,7 C 96 % 1020,5 hPa 0,2 l/m 0,6 km/h (0 Bft) N-NO 33 0 min 0,000 mm 0,0 UV-I 0 W/m 8,1 C 8,7 C 1,6 km/h (1 Bft) 100,00 %
18.04.2016 23:30 8,7 C 96 % 1020,5 hPa 0,0 l/m 0,2 km/h (0 Bft) N-NO 33 0 min 0,000 mm 0,0 UV-I 0 W/m 8,1 C 8,7 C 1,6 km/h (1 Bft) 100,00 %
18.04.2016 23:31 8,7 C 96 % 1020,5 hPa 0,0 l/m 0,3 km/h (0 Bft) N-NO 33 0 min 0,000 mm 0,0 UV-I 0 W/m 8,1 C 8,7 C 1,6 km/h (1 Bft) 100,00 %
18.04.2016 23:32 8,6 C 96 % 1020,5 hPa 0,0 l/m 0,5 km/h (0 Bft) N-NO 33 0 min 0,000 mm 0,0 UV-I 0 W/m 8,0 C 8,6 C 1,6 km/h (1 Bft) 100,00 %
18.04.2016 23:33 8,6 C 96 % 1020,5 hPa 0,0 l/m 1,0 km/h (0 Bft) N-NO 33 0 min 0,000 mm 0,0 UV-I 0 W/m 8,0 C 8,6 C 1,6 km/h (1 Bft) 100,00 %
18.04.2016 23:34 8,6 C 96 % 1020,5 hPa 0,0 l/m 1,7 km/h (1 Bft) N-NO 33 0 min 0,000 mm 0,0 UV-I 0 W/m 8,0 C 8,6 C 3,2 km/h (1 Bft) 100,00 %
18.04.2016 23:35 8,6 C 96 % 1020,5 hPa 0,0 l/m 0,9 km/h (0 Bft) N-NO 33 0 min 0,000 mm 0,0 UV-I 0 W/m 8,0 C 8,6 C 1,6 km/h (1 Bft) 96,55 %
18.04.2016 23:36 8,6 C 96 % 1020,6 hPa 0,0 l/m 0,3 km/h (0 Bft) N-NO 33 0 min 0,000 mm 0,0 UV-I 0 W/m 8,0 C 8,6 C 1,6 km/h (1 Bft) 100,00 %
18.04.2016 23:37 8,6 C 96 % 1020,6 hPa 0,0 l/m 0,5 km/h (0 Bft) N-NO 33 0 min 0,000 mm 0,0 UV-I 0 W/m 8,0 C 8,6 C 1,6 km/h (1 Bft) 100,00 %
18.04.2016 23:38 8,7 C 96 % 1020,6 hPa 0,0 l/m 1,4 km/h (1 Bft) N-NO 33 0 min 0,000 mm 0,0 UV-I 0 W/m 8,1 C 8,7 C 1,6 km/h (1 Bft) 100,00 %
18.04.2016 23:39 8,6 C 96 % 1020,6 hPa 0,0 l/m 0,6 km/h (0 Bft) N-NO 33 0 min 0,000 mm 0,0 UV-I 0 W/m 8,0 C 8,6 C 3,2 km/h (1 Bft) 100,00 %
18.04.2016 23:40 8,6 C 96 % 1020,6 hPa 0,0 l/m 1,1 km/h (1 Bft) N-NO 33 0 min 0,000 mm 0,0 UV-I 0 W/m 8,0 C 8,6 C 1,6 km/h (1 Bft) 100,00 %
18.04.2016 23:41 8,6 C 96 % 1020,6 hPa 0,0 l/m 0,6 km/h (0 Bft) N-NO 33 0 min 0,000 mm 0,0 UV-I 0 W/m 8,0 C 8,6 C 1,6 km/h (1 Bft) 100,00 %
18.04.2016 23:42 8,6 C 96 % 1020,6 hPa 0,0 l/m 0,8 km/h (0 Bft) N-NO 33 0 min 0,000 mm 0,0 UV-I 0 W/m 8,0 C 8,6 C 1,6 km/h (1 Bft) 98,61 %
18.04.2016 23:43 8,6 C 96 % 1020,6 hPa 0,0 l/m 0,2 km/h (0 Bft) N-NO 33 0 min 0,000 mm 0,0 UV-I 0 W/m 8,0 C 8,6 C 1,6 km/h (1 Bft) 97,44 %
18.04.2016 23:44 8,6 C 96 % 1020,7 hPa 0,0 l/m 0,1 km/h (0 Bft) N-NO 33 0 min 0,000 mm 0,0 UV-I 0 W/m 8,0 C 8,6 C 1,6 km/h (1 Bft) 96,15 %
18.04.2016 23:45 8,6 C 96 % 1020,7 hPa 0,0 l/m 0,1 km/h (0 Bft) N-NO 33 0 min 0,000 mm 0,0 UV-I 0 W/m 8,0 C 8,6 C 1,6 km/h (1 Bft) 100,00 %
18.04.2016 23:46 8,6 C 95 % 1020,7 hPa 0,0 l/m 0,5 km/h (0 Bft) N-NO 33 0 min 0,000 mm 0,0 UV-I 0 W/m 7,8 C 8,6 C 1,6 km/h (1 Bft) 100,00 %
18.04.2016 23:47 8,6 C 95 % 1020,7 hPa 0,0 l/m 1,6 km/h (1 Bft) N-NO 33 0 min 0,000 mm 0,0 UV-I 0 W/m 7,8 C 8,6 C 3,2 km/h (1 Bft) 95,83 %
18.04.2016 23:48 8,6 C 95 % 1020,8 hPa 0,0 l/m 2,1 km/h (1 Bft) N-NO 33 0 min 0,000 mm 0,0 UV-I 0 W/m 7,8 C 8,6 C 3,2 km/h (1 Bft) 100,00 %
18.04.2016 23:49 8,6 C 95 % 1020,7 hPa 0,0 l/m 1,6 km/h (1 Bft) N-NO 33 0 min 0,000 mm 0,0 UV-I 0 W/m 7,8 C 8,6 C 3,2 km/h (1 Bft) 100,00 %
18.04.2016 23:50 8,6 C 95 % 1020,8 hPa 0,0 l/m 0,9 km/h (0 Bft) N-NO 33 0 min 0,000 mm 0,0 UV-I 0 W/m 7,8 C 8,6 C 1,6 km/h (1 Bft) 100,00 %
18.04.2016 23:51 8,6 C 95 % 1020,8 hPa 0,0 l/m 1,7 km/h (1 Bft) N-NO 33 0 min 0,000 mm 0,0 UV-I 0 W/m 7,8 C 8,6 C 3,2 km/h (1 Bft) 100,00 %
18.04.2016 23:52 8,6 C 95 % 1020,8 hPa 0,0 l/m 1,8 km/h (1 Bft) N-NO 33 0 min 0,000 mm 0,0 UV-I 0 W/m 7,8 C 8,6 C 3,2 km/h (1 Bft) 100,00 %
18.04.2016 23:53 8,6 C 95 % 1020,8 hPa 0,0 l/m 2,5 km/h (1 Bft) O-SO 115 0 min 0,000 mm 0,0 UV-I 0 W/m 7,8 C 8,6 C 4,8 km/h (1 Bft) 100,00 %
18.04.2016 23:54 8,6 C 95 % 1020,8 hPa 0,0 l/m 3,1 km/h (1 Bft) O-SO 121 0 min 0,000 mm 0,0 UV-I 0 W/m 7,8 C 8,6 C 3,2 km/h (1 Bft) 100,00 %
18.04.2016 23:55 8,6 C 95 % 1020,8 hPa 0,0 l/m 3,5 km/h (1 Bft) SO 124 0 min 0,000 mm 0,0 UV-I 0 W/m 7,8 C 8,6 C 4,8 km/h (1 Bft) 100,00 %
18.04.2016 23:56 8,6 C 95 % 1020,8 hPa 0,0 l/m 2,5 km/h (1 Bft) SO 124 0 min 0,000 mm 0,0 UV-I 0 W/m 7,8 C 8,6 C 3,2 km/h (1 Bft) 92,86 %
18.04.2016 23:57 8,6 C 95 % 1020,8 hPa 0,0 l/m 3,0 km/h (1 Bft) SO 124 0 min 0,000 mm 0,0 UV-I 0 W/m 7,8 C 8,6 C 4,8 km/h (1 Bft) 100,00 %
18.04.2016 23:58 8,6 C 95 % 1020,8 hPa 0,0 l/m 2,3 km/h (1 Bft) SO 124 0 min 0,000 mm 0,0 UV-I 0 W/m 7,8 C 8,6 C 3,2 km/h (1 Bft) 100,00 %
18.04.2016 23:59 8,6 C 95 % 1020,8 hPa 0,0 l/m 1,2 km/h (1 Bft) SO 125 0 min 0,000 mm 0,0 UV-I 0 W/m 7,8 C 8,6 C 3,2 km/h (1 Bft) 100,00 %
_ Min-Zeit 06:55 12:06 00:02 - 10:26 - - - - - - 12:06 00:09 10:26 00:37
Minimum _ 7,6 C 80 % 1014,0 hPa - 0,0 km/h (0 Bft) - - - - - - 6,3 C 4,9 C 0,0 km/h (0 Bft) 86,67 %
_ Max-Zeit 14:24 23:10 23:48 00:06 00:09 - - 09:57 11:00 10:10 10:11 16:49 13:51 00:09 00:00
Maximum _ 10,3 C 97 % 1020,8 hPa 0,2 l/m 14,0 km/h
W-SW (3 Bft)
- - 1 min 0,127 mm 1,6 UV-I 440 W/m 9,0 C 10,2 C 19,3 km/h
W-SW (3 Bft)
100,00 %
Durchschnitt _ 8,9 C 92 % 1017,1 hPa #6,0 l/m 3,6 km/h (1 Bft) W - #32 min. #0,940 mm 1,0 UV-I 141 W/m 7,7 C 8,8 C 5,6 km/h (1 Bft) 98,67 %